Darstellungsparameter: Aktuell verwendete Einstellungen:
Skalierung der Graphiken ... ?
xyx+y,   Skalierungsfaktor:      Skalierung: Modus: x, Faktor: 1
Darstellungszeitraum ... ?
Vom - - bis: - -   Zeitraum: 07.09.2020 - 13.09.2020
Min/Max/Avg-Anzeige ... ?
Zeige MMA aktuell
Zeige MMA Monat
Zeige MMA alles
Zeige --A aktuell
Zeige --A Monat
Zeige --A alles
Keine MMA-Anzeige
MMA:
Average (ber die Originaldaten)
MMA-Basis: 23.02.2003 - 30.09.2020
Quicknavigation für Darstellung... ?
Tage:      1T, 2T, 3T, 5T -1T -2T -3T -5T +1T +2T +3T +5T
Wochen: 1W, 2W, 3W -1W -2W -3W +1W +2W +3W
Monate: 1M, 3M, 6M -1M -3M -6M +1M +3M +6M
Jahre:    1J, 3J, 5J, 10J -1J -3J -5J -10J +1J +3J +5J +10J
Nutze für die Darstellung ... ?
Originaldaten oder Mittelwerte auf ...
Stundenbasis Tagesbasis Wochenbasis
Monatsbasis Jahresbasis      Datenbasis: Original-Daten
Darstellen als:
Statistik (Auto) Statistik J:M      Darstellung:
Zur Graphik,    zurück zur Übersicht aller Sensoren.
 
Tabellarische Datenbersicht: ?
 
Sensor: Nr:Datum:Temp:Abs-Feuchte:Windchill:Wind:
Aussen-T/F 1 07-09-2020 00:00:00 12.6 C 9.07 g/m*3 12.6 C 0 km/h
2 07-09-2020 00:05:00 12.6 C 9.07 g/m*3 12.6 C 0 km/h
3 07-09-2020 00:10:00 12.6 C 8.96 g/m*3 12.6 C 1.6 km/h
4 07-09-2020 00:15:00 12.6 C 8.96 g/m*3 12.6 C 0 km/h
5 07-09-2020 00:20:00 12.6 C 8.96 g/m*3 12.6 C 0 km/h
6 07-09-2020 00:25:00 12.6 C 8.96 g/m*3 12.6 C 0 km/h
7 07-09-2020 00:30:00 12.6 C 9.07 g/m*3 12.6 C 0 km/h
8 07-09-2020 00:35:00 12.6 C 9.07 g/m*3 12.6 C 0 km/h
9 07-09-2020 00:40:00 12.6 C 9.07 g/m*3 12.6 C 0 km/h
10 07-09-2020 00:45:00 12.6 C 9.07 g/m*3 12.6 C 0 km/h
11 07-09-2020 00:50:00 12.6 C 9.07 g/m*3 12.6 C 0 km/h
12 07-09-2020 00:55:00 12.5 C 9.02 g/m*3 12.5 C 0 km/h
13 07-09-2020 01:00:00 12.5 C 9.02 g/m*3 12.5 C 0 km/h
14 07-09-2020 01:05:00 12.5 C 9.02 g/m*3 12.5 C 0 km/h
15 07-09-2020 01:10:00 12.4 C 9.07 g/m*3 12.4 C 0 km/h
16 07-09-2020 01:15:00 12.4 C 9.07 g/m*3 12.4 C 0 km/h
17 07-09-2020 01:20:00 12.4 C 9.07 g/m*3 12.4 C 0 km/h
18 07-09-2020 01:25:00 12.3 C 9.01 g/m*3 12.3 C 0 km/h
19 07-09-2020 01:30:00 12.3 C 9.01 g/m*3 12.3 C 0 km/h
20 07-09-2020 01:35:00 12.2 C 8.96 g/m*3 12.2 C 0 km/h
21 07-09-2020 01:40:00 12 C 8.85 g/m*3 12 C 0 km/h
22 07-09-2020 01:45:00 11.9 C 8.79 g/m*3 11.9 C 0 km/h
23 07-09-2020 01:50:00 11.8 C 8.84 g/m*3 11.8 C 0 km/h
24 07-09-2020 01:55:00 11.6 C 8.73 g/m*3 11.6 C 0 km/h
25 07-09-2020 02:00:00 11.5 C 8.68 g/m*3 11.5 C 0 km/h
Sensor: Nr:Datum:Temp:Abs-Feuchte:Windchill:Wind:
Aussen-T/F 26 07-09-2020 02:05:00 11.3 C 8.57 g/m*3 11.3 C 0 km/h
27 07-09-2020 02:10:00 11.2 C 8.51 g/m*3 11.2 C 0 km/h
28 07-09-2020 02:15:00 11.1 C 8.56 g/m*3 11.1 C 0 km/h
29 07-09-2020 02:20:00 10.9 C 8.45 g/m*3 10.9 C 1.6 km/h
30 07-09-2020 02:25:00 10.8 C 8.5 g/m*3 10.8 C 0 km/h
31 07-09-2020 02:30:00 10.6 C 8.39 g/m*3 10.6 C 0 km/h
32 07-09-2020 02:35:00 10.5 C 8.44 g/m*3 10.5 C 0 km/h
33 07-09-2020 02:40:00 10.4 C 8.38 g/m*3 10.4 C 0 km/h
34 07-09-2020 02:45:00 10.3 C 8.33 g/m*3 10.3 C 0 km/h
35 07-09-2020 02:50:00 10.1 C 8.23 g/m*3 10.1 C 0 km/h
36 07-09-2020 02:55:00 10 C 8.27 g/m*3 10 C 0 km/h
37 07-09-2020 03:00:00 9.9 C 8.22 g/m*3 9.9 C 0 km/h
38 07-09-2020 03:05:00 9.8 C 8.16 g/m*3 9.8 C 0 km/h
39 07-09-2020 03:10:00 9.7 C 8.11 g/m*3 9.7 C 0 km/h
40 07-09-2020 03:15:00 9.6 C 8.15 g/m*3 9.6 C 1.6 km/h
41 07-09-2020 03:20:00 9.6 C 8.15 g/m*3 9.6 C 0 km/h
42 07-09-2020 03:25:00 9.4 C 8.05 g/m*3 9.4 C 0 km/h
43 07-09-2020 03:30:00 9.4 C 8.05 g/m*3 9.4 C 0 km/h
44 07-09-2020 03:35:00 9.3 C 8.09 g/m*3 9.3 C 0 km/h
45 07-09-2020 03:40:00 9.3 C 8.09 g/m*3 9.3 C 0 km/h
46 07-09-2020 03:45:00 9.3 C 8.09 g/m*3 9.3 C 0 km/h
47 07-09-2020 03:50:00 9.2 C 8.04 g/m*3 9.2 C 0 km/h
48 07-09-2020 03:55:00 9.2 C 8.04 g/m*3 9.2 C 0 km/h
49 07-09-2020 04:00:00 9.1 C 7.99 g/m*3 9.1 C 0 km/h
50 07-09-2020 04:05:00 9 C 8.02 g/m*3 9 C 0 km/h
Sensor: Nr:Datum:Temp:Abs-Feuchte:Windchill:Wind:
Aussen-T/F 51 07-09-2020 04:10:00 9 C 8.02 g/m*3 9 C 0 km/h
52 07-09-2020 04:15:00 8.9 C 7.97 g/m*3 8.9 C 0 km/h
53 07-09-2020 04:20:00 8.9 C 7.97 g/m*3 8.9 C 0 km/h
54 07-09-2020 04:25:00 8.8 C 7.92 g/m*3 8.8 C 0 km/h
55 07-09-2020 04:30:00 8.8 C 7.92 g/m*3 8.8 C 0 km/h
56 07-09-2020 04:35:00 8.8 C 7.92 g/m*3 8.8 C 0 km/h
57 07-09-2020 04:40:00 8.7 C 7.87 g/m*3 8.7 C 0 km/h
58 07-09-2020 04:45:00 8.6 C 7.82 g/m*3 8.6 C 0 km/h
59 07-09-2020 04:50:00 8.6 C 7.91 g/m*3 8.6 C 0 km/h
60 07-09-2020 04:55:00 8.5 C 7.85 g/m*3 8.5 C 1.6 km/h
61 07-09-2020 05:00:00 8.5 C 7.85 g/m*3 8.5 C 0 km/h
62 07-09-2020 05:05:00 8.4 C 7.8 g/m*3 8.4 C 1.6 km/h
63 07-09-2020 05:10:00 8.4 C 7.8 g/m*3 8.4 C 3.2 km/h
64 07-09-2020 05:15:00 8.4 C 7.89 g/m*3 8.4 C 0 km/h
65 07-09-2020 05:20:00 8.3 C 7.75 g/m*3 8.3 C 0 km/h
66 07-09-2020 05:25:00 8.3 C 7.75 g/m*3 8.3 C 0 km/h
67 07-09-2020 05:30:00 8.3 C 7.75 g/m*3 8.3 C 0 km/h
68 07-09-2020 05:35:00 8.2 C 7.7 g/m*3 8.2 C 0 km/h
69 07-09-2020 05:40:00 8.1 C 7.74 g/m*3 8.1 C 0 km/h
70 07-09-2020 05:45:00 8.1 C 7.74 g/m*3 8.1 C 0 km/h
71 07-09-2020 05:50:00 8 C 7.69 g/m*3 8 C 0 km/h
72 07-09-2020 05:55:00 7.9 C 7.64 g/m*3 7.9 C 0 km/h
73 07-09-2020 06:00:00 7.9 C 7.64 g/m*3 7.9 C 0 km/h
74 07-09-2020 06:05:00 7.9 C 7.64 g/m*3 7.9 C 0 km/h
75 07-09-2020 06:10:00 7.8 C 7.59 g/m*3 7.8 C 0 km/h
Sensor: Nr:Datum:Temp:Abs-Feuchte:Windchill:Wind:
Aussen-T/F 76 07-09-2020 06:15:00 7.8 C 7.59 g/m*3 7.8 C 1.6 km/h
77 07-09-2020 06:20:00 7.9 C 7.72 g/m*3 7.9 C 3.2 km/h
78 07-09-2020 06:25:00 7.9 C 7.72 g/m*3 7.9 C 1.6 km/h
79 07-09-2020 06:30:00 7.9 C 7.72 g/m*3 7.9 C 0 km/h
80 07-09-2020 06:35:00 7.9 C 7.64 g/m*3 7.9 C 0 km/h
81 07-09-2020 06:40:00 7.8 C 7.59 g/m*3 7.8 C 0 km/h
82 07-09-2020 06:45:00 7.7 C 7.54 g/m*3 7.7 C 0 km/h
83 07-09-2020 06:50:00 7.7 C 7.54 g/m*3 7.7 C 0 km/h
84 07-09-2020 06:55:00 7.6 C 7.49 g/m*3 7.6 C 0 km/h
85 07-09-2020 07:00:00 7.6 C 7.57 g/m*3 7.6 C 0 km/h
86 07-09-2020 07:05:00 7.7 C 7.62 g/m*3 7.7 C 0 km/h
87 07-09-2020 07:10:00 7.6 C 7.57 g/m*3 7.6 C 0 km/h
88 07-09-2020 07:15:00 7.6 C 7.57 g/m*3 7.6 C 0 km/h
89 07-09-2020 07:20:00 7.5 C 7.52 g/m*3 7.5 C 0 km/h
90 07-09-2020 07:25:00 7.5 C 7.52 g/m*3 7.5 C 0 km/h
91 07-09-2020 07:30:00 7.5 C 7.52 g/m*3 7.5 C 0 km/h
92 07-09-2020 07:35:00 7.6 C 7.57 g/m*3 7.6 C 0 km/h
93 07-09-2020 07:40:00 7.6 C 7.57 g/m*3 7.6 C 0 km/h
94 07-09-2020 07:45:00 7.6 C 7.57 g/m*3 7.6 C 0 km/h
95 07-09-2020 07:50:00 7.7 C 7.62 g/m*3 7.7 C 0 km/h
96 07-09-2020 07:55:00 7.7 C 7.62 g/m*3 7.7 C 0 km/h
97 07-09-2020 08:00:00 7.7 C 7.7 g/m*3 7.7 C 0 km/h
98 07-09-2020 08:05:00 7.8 C 7.75 g/m*3 7.8 C 0 km/h
99 07-09-2020 08:10:00 7.8 C 7.75 g/m*3 7.8 C 0 km/h
100 07-09-2020 08:15:00 7.8 C 7.75 g/m*3 7.8 C 0 km/h
Sensor: Nr:Datum:Temp:Abs-Feuchte:Windchill:Wind:
Aussen-T/F 101 07-09-2020 08:20:00 7.9 C 7.8 g/m*3 7.9 C 0 km/h
102 07-09-2020 08:25:00 7.9 C 7.8 g/m*3 7.9 C 0 km/h
103 07-09-2020 08:30:00 8 C 7.85 g/m*3 8 C 0 km/h
104 07-09-2020 08:35:00 8.1 C 7.9 g/m*3 8.1 C 1.6 km/h
105 07-09-2020 08:40:00 8.1 C 7.9 g/m*3 8.1 C 1.6 km/h
106 07-09-2020 08:45:00 8.2 C 7.96 g/m*3 8.2 C 0 km/h
107 07-09-2020 08:50:00 8.2 C 7.96 g/m*3 8.2 C 0 km/h
108 07-09-2020 08:55:00 8.3 C 8.01 g/m*3 8.3 C 0 km/h
109 07-09-2020 09:00:00 8.4 C 8.06 g/m*3 8.4 C 0 km/h
110 07-09-2020 09:05:00 8.4 C 8.06 g/m*3 8.4 C 0 km/h
111 07-09-2020 09:10:00 8.6 C 8.16 g/m*3 8.6 C 0 km/h
112 07-09-2020 09:15:00 8.7 C 8.22 g/m*3 8.7 C 1.6 km/h
113 07-09-2020 09:20:00 8.8 C 8.36 g/m*3 8.8 C 0 km/h
114 07-09-2020 09:25:00 8.9 C 8.32 g/m*3 8.9 C 0 km/h
115 07-09-2020 09:30:00 9.1 C 8.52 g/m*3 9.1 C 0 km/h
116 07-09-2020 09:35:00 9.2 C 8.57 g/m*3 9.2 C 0 km/h
117 07-09-2020 09:40:00 9.2 C 8.57 g/m*3 9.2 C 1.6 km/h
118 07-09-2020 09:45:00 9.3 C 8.54 g/m*3 9.3 C 0 km/h
119 07-09-2020 09:50:00 9.4 C 8.59 g/m*3 9.4 C 0 km/h
120 07-09-2020 09:55:00 9.5 C 8.74 g/m*3 9.5 C 1.6 km/h
121 07-09-2020 10:00:00 9.7 C 8.85 g/m*3 9.7 C 3.2 km/h
122 07-09-2020 10:05:00 9.8 C 8.91 g/m*3 9.8 C 3.2 km/h
123 07-09-2020 10:10:00 9.9 C 8.96 g/m*3 9.9 C 3.2 km/h
124 07-09-2020 10:15:00 10.1 C 9.08 g/m*3 10.1 C 0 km/h
125 07-09-2020 10:20:00 10.2 C 9.14 g/m*3 10.2 C 0 km/h
Sensor: Nr:Datum:Temp:Abs-Feuchte:Windchill:Wind:
Aussen-T/F 126 07-09-2020 10:25:00 10.4 C 9.25 g/m*3 10.4 C 0 km/h
127 07-09-2020 10:30:00 10.6 C 9.37 g/m*3 10.6 C 0 km/h
128 07-09-2020 10:35:00 10.8 C 9.39 g/m*3 10.8 C 0 km/h
129 07-09-2020 10:40:00 11 C 9.51 g/m*3 11 C 0 km/h
130 07-09-2020 10:45:00 11.2 C 9.63 g/m*3 11.2 C 0 km/h
131 07-09-2020 10:50:00 11.4 C 9.65 g/m*3 11.4 C 0 km/h
132 07-09-2020 10:55:00 11.7 C 9.83 g/m*3 11.7 C 1.6 km/h
133 07-09-2020 11:00:00 12.1 C 9.97 g/m*3 12.1 C 0 km/h
134 07-09-2020 11:05:00 12.3 C 9.99 g/m*3 12.3 C 3.2 km/h
135 07-09-2020 11:10:00 12.7 C 10.13 g/m*3 12.7 C 0 km/h
136 07-09-2020 11:15:00 12.9 C 10.14 g/m*3 12.9 C 1.6 km/h
137 07-09-2020 11:20:00 13.3 C 10.28 g/m*3 13.3 C 3.2 km/h
138 07-09-2020 11:25:00 13.6 C 10.36 g/m*3 13.6 C 0 km/h
139 07-09-2020 11:30:00 13.8 C 10.13 g/m*3 13.8 C 1.6 km/h
140 07-09-2020 11:35:00 14.2 C 10.26 g/m*3 14.2 C 6.4 km/h
141 07-09-2020 11:40:00 14.4 C 10.26 g/m*3 14.4 C 0 km/h
142 07-09-2020 11:45:00 14.7 C 10.45 g/m*3 14.7 C 0 km/h
143 07-09-2020 11:50:00 14.9 C 10.32 g/m*3 14.9 C 1.6 km/h
144 07-09-2020 11:55:00 15.1 C 10.32 g/m*3 15.1 C 3.2 km/h
145 07-09-2020 12:00:00 15.3 C 10.32 g/m*3 15.3 C 1.6 km/h
146 07-09-2020 12:05:00 15.5 C 10.18 g/m*3 15.5 C 0 km/h
147 07-09-2020 12:10:00 15.8 C 10.36 g/m*3 15.8 C 0 km/h
148 07-09-2020 12:15:00 15.9 C 10.02 g/m*3 15.9 C 4.8 km/h
149 07-09-2020 12:20:00 16.3 C 10.13 g/m*3 16.3 C 4.8 km/h
150 07-09-2020 12:25:00 16.5 C 10.11 g/m*3 16.5 C 0 km/h
Sensor: Nr:Datum:Temp:Abs-Feuchte:Windchill:Wind:
Aussen-T/F 151 07-09-2020 12:30:00 16.7 C 10.09 g/m*3 16.7 C 1.6 km/h
152 07-09-2020 12:35:00 16.8 C 9.87 g/m*3 16.8 C 4.8 km/h
153 07-09-2020 12:40:00 17 C 9.69 g/m*3 17 C 3.2 km/h
154 07-09-2020 12:45:00 17.2 C 9.81 g/m*3 17.2 C 4.8 km/h
155 07-09-2020 12:50:00 17.3 C 9.72 g/m*3 17.3 C 6.4 km/h
156 07-09-2020 12:55:00 17.4 C 9.48 g/m*3 17.4 C 8.1 km/h
157 07-09-2020 13:00:00 17.6 C 9.6 g/m*3 17.6 C 6.4 km/h
158 07-09-2020 13:05:00 17.8 C 9.87 g/m*3 17.8 C 3.2 km/h
159 07-09-2020 13:10:00 17.9 C 9.62 g/m*3 17.9 C 4.8 km/h
160 07-09-2020 13:15:00 18 C 9.52 g/m*3 18 C 1.6 km/h
161 07-09-2020 13:20:00 18.1 C 9.58 g/m*3 18.1 C 9.7 km/h
162 07-09-2020 13:25:00 18.2 C 9.64 g/m*3 18.2 C 6.4 km/h
163 07-09-2020 13:30:00 18.2 C 9.79 g/m*3 18.2 C 0 km/h
164 07-09-2020 13:35:00 18.3 C 9.22 g/m*3 18.3 C 3.2 km/h
165 07-09-2020 13:40:00 18.3 C 9.38 g/m*3 18.3 C 3.2 km/h
166 07-09-2020 13:45:00 18.3 C 9.07 g/m*3 18.3 C 3.2 km/h
167 07-09-2020 13:50:00 18.4 C 8.97 g/m*3 18.4 C 3.2 km/h
168 07-09-2020 13:55:00 18.5 C 9.02 g/m*3 18.5 C 1.6 km/h
169 07-09-2020 14:00:00 18.7 C 8.97 g/m*3 18.7 C 4.8 km/h
170 07-09-2020 14:05:00 18.8 C 8.54 g/m*3 18.8 C 8.1 km/h
171 07-09-2020 14:10:00 19 C 8.96 g/m*3 19 C 8.1 km/h
172 07-09-2020 14:15:00 19.2 C 8.9 g/m*3 19.2 C 9.7 km/h
173 07-09-2020 14:20:00 19.3 C 8.96 g/m*3 19.3 C 8.1 km/h
174 07-09-2020 14:25:00 19.3 C 8.79 g/m*3 19.3 C 0 km/h
175 07-09-2020 14:30:00 19.4 C 8.68 g/m*3 19.4 C 6.4 km/h
Sensor: Nr:Datum:Temp:Abs-Feuchte:Windchill:Wind:
Aussen-T/F 176 07-09-2020 14:35:00 19.5 C 9.06 g/m*3 19.5 C 6.4 km/h
177 07-09-2020 14:40:00 19.7 C 8.83 g/m*3 19.7 C 9.7 km/h
178 07-09-2020 14:45:00 19.9 C 8.93 g/m*3 19.9 C 6.4 km/h
179 07-09-2020 14:50:00 20.1 C 8.87 g/m*3 20.1 C 1.6 km/h
180 07-09-2020 14:55:00 20.3 C 8.62 g/m*3 20.3 C 11.3 km/h
181 07-09-2020 15:00:00 20.3 C 8.79 g/m*3 20.3 C 4.8 km/h
182 07-09-2020 15:05:00 20.4 C 8.49 g/m*3 20.4 C 4.8 km/h
183 07-09-2020 15:10:00 20.5 C 9.07 g/m*3 20.5 C 6.4 km/h
184 07-09-2020 15:15:00 20.5 C 8.72 g/m*3 20.5 C 6.4 km/h
185 07-09-2020 15:20:00 20.6 C 8.95 g/m*3 20.6 C 1.6 km/h
186 07-09-2020 15:25:00 20.6 C 8.95 g/m*3 20.6 C 4.8 km/h
187 07-09-2020 15:30:00 20.7 C 8.82 g/m*3 20.7 C 9.7 km/h
188 07-09-2020 15:35:00 20.8 C 8.87 g/m*3 20.8 C 3.2 km/h
189 07-09-2020 15:40:00 20.8 C 8.87 g/m*3 20.8 C 6.4 km/h
190 07-09-2020 15:45:00 20.9 C 8.92 g/m*3 20.9 C 6.4 km/h
191 07-09-2020 15:50:00 21.1 C 8.84 g/m*3 21.1 C 6.4 km/h
192 07-09-2020 15:55:00 21.2 C 8.71 g/m*3 21.2 C 4.8 km/h
193 07-09-2020 16:00:00 21.2 C 8.71 g/m*3 21.2 C 4.8 km/h
194 07-09-2020 16:05:00 21.1 C 8.66 g/m*3 21.1 C 0 km/h
195 07-09-2020 16:10:00 21.1 C 8.84 g/m*3 21.1 C 8.1 km/h
196 07-09-2020 16:15:00 21.2 C 9.08 g/m*3 21.2 C 6.4 km/h
197 07-09-2020 16:20:00 21.4 C 9 g/m*3 21.4 C 6.4 km/h
198 07-09-2020 16:25:00 21.7 C 9.16 g/m*3 21.7 C 4.8 km/h
199 07-09-2020 16:30:00 21.8 C 8.63 g/m*3 21.8 C 6.4 km/h
200 07-09-2020 16:35:00 22 C 8.93 g/m*3 22 C 6.4 km/h
Sensor: Nr:Datum:Temp:Abs-Feuchte:Windchill:Wind:
Aussen-T/F 201 07-09-2020 16:40:00 22.2 C 9.03 g/m*3 22.2 C 9.7 km/h
202 07-09-2020 16:45:00 22.4 C 8.74 g/m*3 22.4 C 6.4 km/h
203 07-09-2020 16:50:00 22.3 C 8.69 g/m*3 22.3 C 1.6 km/h
204 07-09-2020 16:55:00 21.9 C 8.88 g/m*3 21.9 C 3.2 km/h
205 07-09-2020 17:00:00 21.7 C 8.97 g/m*3 21.7 C 6.4 km/h
206 07-09-2020 17:05:00 21.6 C 9.1 g/m*3 21.6 C 4.8 km/h
207 07-09-2020 17:10:00 22.1 C 8.98 g/m*3 22.1 C 0 km/h
208 07-09-2020 17:15:00 22.6 C 8.84 g/m*3 22.6 C 0 km/h
209 07-09-2020 17:20:00 22.7 C 8.89 g/m*3 22.7 C 6.4 km/h
210 07-09-2020 17:25:00 22.9 C 8.99 g/m*3 22.9 C 3.2 km/h
211 07-09-2020 17:30:00 23.3 C 9.41 g/m*3 23.3 C 1.6 km/h
212 07-09-2020 17:35:00 23.5 C 9.09 g/m*3 23.5 C 8.1 km/h
213 07-09-2020 17:40:00 23.6 C 9.15 g/m*3 23.6 C 1.6 km/h
214 07-09-2020 17:45:00 23.6 C 8.72 g/m*3 23.6 C 6.4 km/h
215 07-09-2020 17:50:00 23.3 C 9.2 g/m*3 23.3 C 6.4 km/h
216 07-09-2020 17:55:00 23.3 C 8.78 g/m*3 23.3 C 0 km/h
217 07-09-2020 18:00:00 23.5 C 8.88 g/m*3 23.5 C 1.6 km/h
218 07-09-2020 18:05:00 23.4 C 10.09 g/m*3 23.4 C 0 km/h
219 07-09-2020 18:10:00 23.1 C 10.34 g/m*3 23.1 C 0 km/h
220 07-09-2020 18:15:00 22.6 C 10.04 g/m*3 22.6 C 0 km/h
221 07-09-2020 18:20:00 22.1 C 10.15 g/m*3 22.1 C 0 km/h
222 07-09-2020 18:25:00 21.6 C 10.43 g/m*3 21.6 C 0 km/h
223 07-09-2020 18:30:00 21.3 C 10.44 g/m*3 21.3 C 0 km/h
224 07-09-2020 18:35:00 21.6 C 10.43 g/m*3 21.6 C 0 km/h
225 07-09-2020 18:40:00 22 C 10.09 g/m*3 22 C 0 km/h
Sensor: Nr:Datum:Temp:Abs-Feuchte:Windchill:Wind:
Aussen-T/F 226 07-09-2020 18:45:00 22.4 C 9.73 g/m*3 22.4 C 0 km/h
227 07-09-2020 18:50:00 22.8 C 10.16 g/m*3 22.8 C 0 km/h
228 07-09-2020 18:55:00 22.7 C 9.09 g/m*3 22.7 C 6.4 km/h
229 07-09-2020 19:00:00 22.6 C 9.84 g/m*3 22.6 C 4.8 km/h
230 07-09-2020 19:05:00 22.6 C 10.65 g/m*3 22.6 C 0 km/h
231 07-09-2020 19:10:00 22.4 C 10.53 g/m*3 22.4 C 0 km/h
232 07-09-2020 19:15:00 22.2 C 10.41 g/m*3 22.2 C 0 km/h
233 07-09-2020 19:20:00 21.8 C 10.36 g/m*3 21.8 C 1.6 km/h
234 07-09-2020 19:25:00 21.4 C 10.31 g/m*3 21.4 C 3.2 km/h
235 07-09-2020 19:30:00 20.8 C 10.14 g/m*3 20.8 C 6.4 km/h
236 07-09-2020 19:35:00 20.3 C 9.85 g/m*3 20.3 C 4.8 km/h
237 07-09-2020 19:40:00 19.8 C 9.91 g/m*3 19.8 C 4.8 km/h
238 07-09-2020 19:45:00 19.2 C 9.56 g/m*3 19.2 C 4.8 km/h
239 07-09-2020 19:50:00 18.8 C 9.5 g/m*3 18.8 C 0 km/h
240 07-09-2020 19:55:00 18.3 C 9.38 g/m*3 18.3 C 0 km/h
241 07-09-2020 20:00:00 17.9 C 9.16 g/m*3 17.9 C 4.8 km/h
242 07-09-2020 20:05:00 17.6 C 9.3 g/m*3 17.6 C 1.6 km/h
243 07-09-2020 20:10:00 17.3 C 9.13 g/m*3 17.3 C 4.8 km/h
244 07-09-2020 20:15:00 17.1 C 9.17 g/m*3 17.1 C 4.8 km/h
245 07-09-2020 20:20:00 16.8 C 9.15 g/m*3 16.8 C 6.4 km/h
246 07-09-2020 20:25:00 16.7 C 9.1 g/m*3 16.7 C 6.4 km/h
247 07-09-2020 20:30:00 16.4 C 9.07 g/m*3 16.4 C 4.8 km/h
248 07-09-2020 20:35:00 16.3 C 9.16 g/m*3 16.3 C 4.8 km/h
249 07-09-2020 20:40:00 16.1 C 9.18 g/m*3 16.1 C 0 km/h
250 07-09-2020 20:45:00 15.9 C 9.34 g/m*3 15.9 C 0 km/h
Sensor: Nr:Datum:Temp:Abs-Feuchte:Windchill:Wind:
Aussen-T/F 251 07-09-2020 20:50:00 15.6 C 9.18 g/m*3 15.6 C 0 km/h
252 07-09-2020 20:55:00 15.3 C 9.14 g/m*3 15.3 C 6.4 km/h
253 07-09-2020 21:00:00 15.1 C 9.16 g/m*3 15.1 C 6.4 km/h
254 07-09-2020 21:05:00 14.9 C 9.18 g/m*3 14.9 C 0 km/h
255 07-09-2020 21:10:00 14.8 C 9.25 g/m*3 14.8 C 0 km/h
256 07-09-2020 21:15:00 14.7 C 9.32 g/m*3 14.7 C 0 km/h
257 07-09-2020 21:20:00 14.5 C 9.33 g/m*3 14.5 C 0 km/h
258 07-09-2020 21:25:00 14.3 C 9.21 g/m*3 14.3 C 0 km/h
259 07-09-2020 21:30:00 14.1 C 9.1 g/m*3 14.1 C 0 km/h
260 07-09-2020 21:35:00 13.9 C 9.11 g/m*3 13.9 C 0 km/h
261 07-09-2020 21:40:00 13.8 C 9.17 g/m*3 13.8 C 0 km/h
262 07-09-2020 21:45:00 13.6 C 9.06 g/m*3 13.6 C 0 km/h
263 07-09-2020 21:50:00 13.5 C 9.12 g/m*3 13.5 C 0 km/h
264 07-09-2020 21:55:00 13.4 C 9.07 g/m*3 13.4 C 0 km/h
265 07-09-2020 22:00:00 13.3 C 9.01 g/m*3 13.3 C 0 km/h
266 07-09-2020 22:05:00 13.2 C 9.07 g/m*3 13.2 C 0 km/h
267 07-09-2020 22:10:00 13.1 C 9.01 g/m*3 13.1 C 0 km/h
268 07-09-2020 22:15:00 13 C 9.07 g/m*3 13 C 0 km/h
269 07-09-2020 22:20:00 12.8 C 8.96 g/m*3 12.8 C 0 km/h
270 07-09-2020 22:25:00 12.7 C 8.91 g/m*3 12.7 C 0 km/h
271 07-09-2020 22:30:00 12.6 C 8.96 g/m*3 12.6 C 0 km/h
272 07-09-2020 22:35:00 12.5 C 8.91 g/m*3 12.5 C 0 km/h
273 07-09-2020 22:40:00 12.4 C 8.85 g/m*3 12.4 C 0 km/h
274 07-09-2020 22:45:00 12.3 C 8.9 g/m*3 12.3 C 0 km/h
275 07-09-2020 22:50:00 12.3 C 8.9 g/m*3 12.3 C 0 km/h
Sensor: Nr:Datum:Temp:Abs-Feuchte:Windchill:Wind:
Aussen-T/F 276 07-09-2020 22:55:00 12.2 C 8.85 g/m*3 12.2 C 0 km/h
277 07-09-2020 23:00:00 12.1 C 8.9 g/m*3 12.1 C 0 km/h
278 07-09-2020 23:05:00 12 C 8.74 g/m*3 12 C 0 km/h
279 07-09-2020 23:10:00 11.9 C 8.79 g/m*3 11.9 C 0 km/h
280 07-09-2020 23:15:00 11.8 C 8.74 g/m*3 11.8 C 0 km/h
281 07-09-2020 23:20:00 11.8 C 8.74 g/m*3 11.8 C 0 km/h
282 07-09-2020 23:25:00 11.7 C 8.68 g/m*3 11.7 C 0 km/h
283 07-09-2020 23:30:00 11.7 C 8.68 g/m*3 11.7 C 0 km/h
284 07-09-2020 23:35:00 11.6 C 8.63 g/m*3 11.6 C 0 km/h
285 07-09-2020 23:40:00 11.5 C 8.57 g/m*3 11.5 C 0 km/h
286 07-09-2020 23:45:00 11.4 C 8.62 g/m*3 11.4 C 0 km/h
287 07-09-2020 23:50:00 11.3 C 8.57 g/m*3 11.3 C 0 km/h
288 07-09-2020 23:55:00 11.3 C 8.57 g/m*3 11.3 C 0 km/h
289 08-09-2020 00:00:00 11.2 C 8.51 g/m*3 11.2 C 0 km/h
290 08-09-2020 00:05:00 11.2 C 8.62 g/m*3 11.2 C 0 km/h
291 08-09-2020 00:10:00 11.1 C 8.56 g/m*3 11.1 C 0 km/h
292 08-09-2020 00:15:00 11 C 8.51 g/m*3 11 C 0 km/h
293 08-09-2020 00:20:00 10.9 C 8.45 g/m*3 10.9 C 0 km/h
294 08-09-2020 00:25:00 10.9 C 8.45 g/m*3 10.9 C 0 km/h
295 08-09-2020 00:30:00 10.8 C 8.5 g/m*3 10.8 C 0 km/h
296 08-09-2020 00:35:00 10.8 C 8.5 g/m*3 10.8 C 0 km/h
297 08-09-2020 00:40:00 10.7 C 8.45 g/m*3 10.7 C 0 km/h
298 08-09-2020 00:45:00 10.7 C 8.45 g/m*3 10.7 C 0 km/h
299 08-09-2020 00:50:00 10.6 C 8.49 g/m*3 10.6 C 0 km/h
300 08-09-2020 00:55:00 10.6 C 8.39 g/m*3 10.6 C 0 km/h
Sensor: Nr:Datum:Temp:Abs-Feuchte:Windchill:Wind:
Aussen-T/F 301 08-09-2020 01:00:00 10.6 C 8.49 g/m*3 10.6 C 0 km/h
302 08-09-2020 01:05:00 10.5 C 8.44 g/m*3 10.5 C 0 km/h
303 08-09-2020 01:10:00 10.4 C 8.38 g/m*3 10.4 C 0 km/h
304 08-09-2020 01:15:00 10.5 C 8.53 g/m*3 10.5 C 0 km/h
305 08-09-2020 01:20:00 10.6 C 8.49 g/m*3 10.6 C 0 km/h
306 08-09-2020 01:25:00 10.6 C 8.49 g/m*3 10.6 C 0 km/h
307 08-09-2020 01:30:00 10.5 C 8.44 g/m*3 10.5 C 0 km/h
308 08-09-2020 01:35:00 10.4 C 8.38 g/m*3 10.4 C 0 km/h
309 08-09-2020 01:40:00 10.3 C 8.33 g/m*3 10.3 C 1.6 km/h
310 08-09-2020 01:45:00 10.3 C 8.43 g/m*3 10.3 C 0 km/h
311 08-09-2020 01:50:00 10.2 C 8.37 g/m*3 10.2 C 0 km/h
312 08-09-2020 01:55:00 10.2 C 8.37 g/m*3 10.2 C 0 km/h
313 08-09-2020 02:00:00 10.1 C 8.32 g/m*3 10.1 C 0 km/h
314 08-09-2020 02:05:00 10 C 8.27 g/m*3 10 C 0 km/h
315 08-09-2020 02:10:00 9.9 C 8.22 g/m*3 9.9 C 0 km/h
316 08-09-2020 02:15:00 9.9 C 8.31 g/m*3 9.9 C 0 km/h
317 08-09-2020 02:20:00 9.8 C 8.26 g/m*3 9.8 C 0 km/h
318 08-09-2020 02:25:00 9.8 C 8.26 g/m*3 9.8 C 0 km/h
319 08-09-2020 02:30:00 9.7 C 8.2 g/m*3 9.7 C 0 km/h
320 08-09-2020 02:35:00 9.7 C 8.2 g/m*3 9.7 C 0 km/h
321 08-09-2020 02:40:00 9.7 C 8.2 g/m*3 9.7 C 0 km/h
322 08-09-2020 02:45:00 9.6 C 8.15 g/m*3 9.6 C 0 km/h
323 08-09-2020 02:50:00 9.6 C 8.24 g/m*3 9.6 C 0 km/h
324 08-09-2020 02:55:00 9.5 C 8.19 g/m*3 9.5 C 0 km/h
325 08-09-2020 03:00:00 9.5 C 8.19 g/m*3 9.5 C 0 km/h
Sensor: Nr:Datum:Temp:Abs-Feuchte:Windchill:Wind:
Aussen-T/F 326 08-09-2020 03:05:00 9.4 C 8.14 g/m*3 9.4 C 0 km/h
327 08-09-2020 03:10:00 9.4 C 8.14 g/m*3 9.4 C 0 km/h
328 08-09-2020 03:15:00 9.4 C 8.14 g/m*3 9.4 C 0 km/h
329 08-09-2020 03:20:00 9.3 C 8.09 g/m*3 9.3 C 0 km/h
330 08-09-2020 03:25:00 9.3 C 8.09 g/m*3 9.3 C 0 km/h
331 08-09-2020 03:30:00 9.2 C 8.04 g/m*3 9.2 C 0 km/h
332 08-09-2020 03:35:00 9.2 C 8.13 g/m*3 9.2 C 0 km/h
333 08-09-2020 03:40:00 9.1 C 8.07 g/m*3 9.1 C 0 km/h
334 08-09-2020 03:45:00 9.1 C 8.07 g/m*3 9.1 C 0 km/h
335 08-09-2020 03:50:00 9.1 C 8.07 g/m*3 9.1 C 0 km/h
336 08-09-2020 03:55:00 9 C 8.02 g/m*3 9 C 0 km/h
337 08-09-2020 04:00:00 8.9 C 7.97 g/m*3 8.9 C 0 km/h
338 08-09-2020 04:05:00 8.9 C 7.97 g/m*3 8.9 C 0 km/h
339 08-09-2020 04:10:00 8.8 C 7.92 g/m*3 8.8 C 0 km/h
340 08-09-2020 04:15:00 8.8 C 7.92 g/m*3 8.8 C 0 km/h
341 08-09-2020 04:20:00 8.8 C 7.92 g/m*3 8.8 C 0 km/h
342 08-09-2020 04:25:00 8.7 C 7.96 g/m*3 8.7 C 0 km/h
343 08-09-2020 04:30:00 8.7 C 7.96 g/m*3 8.7 C 0 km/h
344 08-09-2020 04:35:00 8.7 C 7.96 g/m*3 8.7 C 0 km/h
345 08-09-2020 04:40:00 8.7 C 7.96 g/m*3 8.7 C 0 km/h
346 08-09-2020 04:45:00 8.6 C 7.91 g/m*3 8.6 C 0 km/h
347 08-09-2020 04:50:00 8.6 C 7.91 g/m*3 8.6 C 0 km/h
348 08-09-2020 04:55:00 8.5 C 7.85 g/m*3 8.5 C 0 km/h
349 08-09-2020 05:00:00 8.4 C 7.8 g/m*3 8.4 C 0 km/h
350 08-09-2020 05:05:00 8.4 C 7.8 g/m*3 8.4 C 0 km/h
Sensor: Nr:Datum:Temp:Abs-Feuchte:Windchill:Wind:
Aussen-T/F 351 08-09-2020 05:10:00 8.4 C 7.8 g/m*3 8.4 C 0 km/h
352 08-09-2020 05:15:00 8.5 C 7.94 g/m*3 8.5 C 0 km/h
353 08-09-2020 05:20:00 8.6 C 7.99 g/m*3 8.6 C 0 km/h
354 08-09-2020 05:25:00 8.6 C 7.99 g/m*3 8.6 C 0 km/h
355 08-09-2020 05:30:00 8.5 C 7.94 g/m*3 8.5 C 0 km/h
356 08-09-2020 05:35:00 8.4 C 7.89 g/m*3 8.4 C 0 km/h
357 08-09-2020 05:40:00 8.4 C 7.8 g/m*3 8.4 C 0 km/h
358 08-09-2020 05:45:00 8.3 C 7.84 g/m*3 8.3 C 0 km/h
359 08-09-2020 05:50:00 8.3 C 7.75 g/m*3 8.3 C 0 km/h
360 08-09-2020 05:55:00 8.2 C 7.7 g/m*3 8.2 C 0 km/h
361 08-09-2020 06:00:00 8.2 C 7.79 g/m*3 8.2 C 0 km/h
362 08-09-2020 06:05:00 8.2 C 7.79 g/m*3 8.2 C 0 km/h
363 08-09-2020 06:10:00 8.1 C 7.74 g/m*3 8.1 C 0 km/h
364 08-09-2020 06:15:00 8.1 C 7.74 g/m*3 8.1 C 0 km/h
365 08-09-2020 06:20:00 8.1 C 7.74 g/m*3 8.1 C 0 km/h
366 08-09-2020 06:25:00 8.1 C 7.74 g/m*3 8.1 C 0 km/h
367 08-09-2020 06:30:00 8.1 C 7.74 g/m*3 8.1 C 0 km/h
368 08-09-2020 06:35:00 8.1 C 7.74 g/m*3 8.1 C 0 km/h
369 08-09-2020 06:40:00 8 C 7.69 g/m*3 8 C 0 km/h
370 08-09-2020 06:45:00 7.9 C 7.64 g/m*3 7.9 C 0 km/h
371 08-09-2020 06:50:00 7.9 C 7.64 g/m*3 7.9 C 0 km/h
372 08-09-2020 06:55:00 7.9 C 7.64 g/m*3 7.9 C 0 km/h
373 08-09-2020 07:00:00 7.9 C 7.64 g/m*3 7.9 C 0 km/h
374 08-09-2020 07:05:00 7.9 C 7.72 g/m*3 7.9 C 0 km/h
375 08-09-2020 07:10:00 7.9 C 7.72 g/m*3 7.9 C 0 km/h
Sensor: Nr:Datum:Temp:Abs-Feuchte:Windchill:Wind:
Aussen-T/F 376 08-09-2020 07:15:00 7.9 C 7.72 g/m*3 7.9 C 0 km/h
377 08-09-2020 07:20:00 7.9 C 7.72 g/m*3 7.9 C 0 km/h
378 08-09-2020 07:25:00 8.1 C 7.82 g/m*3 8.1 C 0 km/h
379 08-09-2020 07:30:00 8.2 C 7.87 g/m*3 8.2 C 0 km/h
380 08-09-2020 07:35:00 8.2 C 7.87 g/m*3 8.2 C 0 km/h
381 08-09-2020 07:40:00 8.3 C 7.92 g/m*3 8.3 C 0 km/h
382 08-09-2020 07:45:00 8.4 C 7.97 g/m*3 8.4 C 0 km/h
383 08-09-2020 07:50:00 8.4 C 7.97 g/m*3 8.4 C 0 km/h
384 08-09-2020 07:55:00 8.4 C 7.97 g/m*3 8.4 C 0 km/h
385 08-09-2020 08:00:00 8.4 C 7.97 g/m*3 8.4 C 0 km/h
386 08-09-2020 08:05:00 8.4 C 7.97 g/m*3 8.4 C 0 km/h
387 08-09-2020 08:10:00 8.5 C 8.03 g/m*3 8.5 C 0 km/h
388 08-09-2020 08:15:00 8.6 C 8.08 g/m*3 8.6 C 0 km/h
389 08-09-2020 08:20:00 8.7 C 8.13 g/m*3 8.7 C 0 km/h
390 08-09-2020 08:25:00 8.7 C 8.13 g/m*3 8.7 C 0 km/h
391 08-09-2020 08:30:00 8.8 C 8.18 g/m*3 8.8 C 0 km/h
392 08-09-2020 08:35:00 8.9 C 8.32 g/m*3 8.9 C 0 km/h
393 08-09-2020 08:40:00 9 C 8.29 g/m*3 9 C 0 km/h
394 08-09-2020 08:45:00 9 C 8.29 g/m*3 9 C 0 km/h
395 08-09-2020 08:50:00 9.1 C 8.34 g/m*3 9.1 C 0 km/h
396 08-09-2020 08:55:00 9.1 C 8.34 g/m*3 9.1 C 0 km/h
397 08-09-2020 09:00:00 9.2 C 8.39 g/m*3 9.2 C 0 km/h
398 08-09-2020 09:05:00 9.2 C 8.39 g/m*3 9.2 C 0 km/h
399 08-09-2020 09:10:00 9.3 C 8.45 g/m*3 9.3 C 0 km/h
400 08-09-2020 09:15:00 9.4 C 8.5 g/m*3 9.4 C 0 km/h
Sensor: Nr:Datum:Temp:Abs-Feuchte:Windchill:Wind:
Aussen-T/F 401 08-09-2020 09:20:00 9.5 C 8.56 g/m*3 9.5 C 0 km/h
402 08-09-2020 09:25:00 9.6 C 8.61 g/m*3 9.6 C 0 km/h
403 08-09-2020 09:30:00 9.6 C 8.61 g/m*3 9.6 C 3.2 km/h
404 08-09-2020 09:35:00 9.8 C 8.72 g/m*3 9.8 C 3.2 km/h
405 08-09-2020 09:40:00 9.9 C 8.78 g/m*3 9.9 C 1.6 km/h
406 08-09-2020 09:45:00 10.2 C 8.95 g/m*3 10.2 C 1.6 km/h
407 08-09-2020 09:50:00 10.4 C 9.06 g/m*3 10.4 C 0 km/h
408 08-09-2020 09:55:00 10.6 C 9.17 g/m*3 10.6 C 0 km/h
409 08-09-2020 10:00:00 10.7 C 9.23 g/m*3 10.7 C 1.6 km/h
410 08-09-2020 10:05:00 10.9 C 9.25 g/m*3 10.9 C 1.6 km/h
411 08-09-2020 10:10:00 11.1 C 9.37 g/m*3 11.1 C 3.2 km/h
412 08-09-2020 10:15:00 11.3 C 9.49 g/m*3 11.3 C 3.2 km/h
413 08-09-2020 10:20:00 11.6 C 9.56 g/m*3 11.6 C 4.8 km/h
414 08-09-2020 10:25:00 11.9 C 9.74 g/m*3 11.9 C 3.2 km/h
415 08-09-2020 10:30:00 12.2 C 9.82 g/m*3 12.2 C 1.6 km/h
416 08-09-2020 10:35:00 12.6 C 9.96 g/m*3 12.6 C 0 km/h
417 08-09-2020 10:40:00 13 C 10.09 g/m*3 13 C 1.6 km/h
418 08-09-2020 10:45:00 13.3 C 10.17 g/m*3 13.3 C 0 km/h
419 08-09-2020 10:50:00 13.7 C 10.18 g/m*3 13.7 C 3.2 km/h
420 08-09-2020 10:55:00 14.2 C 10.26 g/m*3 14.2 C 6.4 km/h
421 08-09-2020 11:00:00 14.7 C 10.2 g/m*3 14.7 C 6.4 km/h
422 08-09-2020 11:05:00 15.3 C 10.19 g/m*3 15.3 C 3.2 km/h
423 08-09-2020 11:10:00 15.8 C 10.23 g/m*3 15.8 C 1.6 km/h
424 08-09-2020 11:15:00 16.3 C 10.41 g/m*3 16.3 C 1.6 km/h
425 08-09-2020 11:20:00 16.7 C 10.23 g/m*3 16.7 C 8.1 km/h
Sensor: Nr:Datum:Temp:Abs-Feuchte:Windchill:Wind:
Aussen-T/F 426 08-09-2020 11:25:00 17.3 C 10.46 g/m*3 17.3 C 8.1 km/h
427 08-09-2020 11:30:00 17.8 C 10.32 g/m*3 17.8 C 8.1 km/h
428 08-09-2020 11:35:00 18.3 C 10.16 g/m*3 18.3 C 6.4 km/h
429 08-09-2020 11:40:00 18.7 C 10.41 g/m*3 18.7 C 8.1 km/h
430 08-09-2020 11:45:00 19.1 C 10.33 g/m*3 19.1 C 9.7 km/h
431 08-09-2020 11:50:00 19.3 C 10.12 g/m*3 19.3 C 11.3 km/h
432 08-09-2020 11:55:00 19.6 C 10.3 g/m*3 19.6 C 11.3 km/h
433 08-09-2020 12:00:00 19.8 C 10.59 g/m*3 19.8 C 8.1 km/h
434 08-09-2020 12:05:00 19.9 C 10.31 g/m*3 19.9 C 8.1 km/h
435 08-09-2020 12:10:00 20.2 C 10.32 g/m*3 20.2 C 16.1 km/h
436 08-09-2020 12:15:00 20.4 C 10.26 g/m*3 20.4 C 8.1 km/h
437 08-09-2020 12:20:00 20.6 C 10.38 g/m*3 20.6 C 11.3 km/h
438 08-09-2020 12:25:00 20.7 C 10.44 g/m*3 20.7 C 8.1 km/h
439 08-09-2020 12:30:00 20.8 C 10.14 g/m*3 20.8 C 12.9 km/h
440 08-09-2020 12:35:00 21 C 10.44 g/m*3 21 C 6.4 km/h
441 08-09-2020 12:40:00 21.1 C 10.32 g/m*3 21.1 C 9.7 km/h
442 08-09-2020 12:45:00 21.3 C 10.25 g/m*3 21.3 C 12.9 km/h
443 08-09-2020 12:50:00 21.3 C 10.07 g/m*3 21.3 C 14.5 km/h
444 08-09-2020 12:55:00 21.4 C 10.31 g/m*3 21.4 C 14.5 km/h
445 08-09-2020 13:00:00 21.6 C 10.05 g/m*3 21.6 C 14.5 km/h
446 08-09-2020 13:05:00 21.7 C 10.11 g/m*3 21.7 C 11.3 km/h
447 08-09-2020 13:10:00 21.8 C 10.17 g/m*3 21.8 C 11.3 km/h
448 08-09-2020 13:15:00 21.9 C 10.23 g/m*3 21.9 C 8.1 km/h
449 08-09-2020 13:20:00 22.1 C 10.35 g/m*3 22.1 C 14.5 km/h
450 08-09-2020 13:25:00 22.1 C 10.15 g/m*3 22.1 C 9.7 km/h
Sensor: Nr:Datum:Temp:Abs-Feuchte:Windchill:Wind:
Aussen-T/F 451 08-09-2020 13:30:00 22.1 C 10.35 g/m*3 22.1 C 11.3 km/h
452 08-09-2020 13:35:00 22.2 C 10.41 g/m*3 22.2 C 6.4 km/h
453 08-09-2020 13:40:00 22.3 C 10.07 g/m*3 22.3 C 14.5 km/h
454 08-09-2020 13:45:00 22.4 C 10.13 g/m*3 22.4 C 6.4 km/h
455 08-09-2020 13:50:00 22.5 C 10.19 g/m*3 22.5 C 9.7 km/h
456 08-09-2020 13:55:00 22.6 C 10.45 g/m*3 22.6 C 8.1 km/h
457 08-09-2020 14:00:00 22.6 C 10.25 g/m*3 22.6 C 11.3 km/h
458 08-09-2020 14:05:00 22.6 C 10.04 g/m*3 22.6 C 8.1 km/h
459 08-09-2020 14:10:00 22.7 C 10.3 g/m*3 22.7 C 11.3 km/h
460 08-09-2020 14:15:00 22.7 C 10.3 g/m*3 22.7 C 8.1 km/h
461 08-09-2020 14:20:00 22.8 C 10.16 g/m*3 22.8 C 9.7 km/h
462 08-09-2020 14:25:00 23 C 10.28 g/m*3 23 C 8.1 km/h
463 08-09-2020 14:30:00 23.1 C 10.54 g/m*3 23.1 C 6.4 km/h
464 08-09-2020 14:35:00 23.2 C 10.19 g/m*3 23.2 C 8.1 km/h
465 08-09-2020 14:40:00 23.3 C 10.45 g/m*3 23.3 C 11.3 km/h
466 08-09-2020 14:45:00 23.5 C 10.15 g/m*3 23.5 C 14.5 km/h
467 08-09-2020 14:50:00 23.6 C 10.21 g/m*3 23.6 C 8.1 km/h
468 08-09-2020 14:55:00 23.7 C 10.27 g/m*3 23.7 C 9.7 km/h
469 08-09-2020 15:00:00 23.9 C 10.17 g/m*3 23.9 C 9.7 km/h
470 08-09-2020 15:05:00 24 C 10.44 g/m*3 24 C 6.4 km/h
471 08-09-2020 15:10:00 24 C 10.23 g/m*3 24 C 14.5 km/h
472 08-09-2020 15:15:00 24.1 C 10.28 g/m*3 24.1 C 12.9 km/h
473 08-09-2020 15:20:00 24.1 C 10.28 g/m*3 24.1 C 11.3 km/h
474 08-09-2020 15:25:00 24.3 C 10.4 g/m*3 24.3 C 12.9 km/h
475 08-09-2020 15:30:00 24.3 C 10.18 g/m*3 24.3 C 11.3 km/h
Sensor: Nr:Datum:Temp:Abs-Feuchte:Windchill:Wind:
Aussen-T/F 476 08-09-2020 15:35:00 24.3 C 10.4 g/m*3 24.3 C 6.4 km/h
477 08-09-2020 15:40:00 24.3 C 10.18 g/m*3 24.3 C 9.7 km/h
478 08-09-2020 15:45:00 24.4 C 10.24 g/m*3 24.4 C 6.4 km/h
479 08-09-2020 15:50:00 24.5 C 10.3 g/m*3 24.5 C 14.5 km/h
480 08-09-2020 15:55:00 24.6 C 10.13 g/m*3 24.6 C 12.9 km/h
481 08-09-2020 16:00:00 24.7 C 10.41 g/m*3 24.7 C 8.1 km/h
482 08-09-2020 16:05:00 24.8 C 10.02 g/m*3 24.8 C 12.9 km/h
483 08-09-2020 16:10:00 24.9 C 10.07 g/m*3 24.9 C 8.1 km/h
484 08-09-2020 16:15:00 24.9 C 10.3 g/m*3 24.9 C 6.4 km/h
485 08-09-2020 16:20:00 25.2 C 10.24 g/m*3 25.2 C 11.3 km/h
486 08-09-2020 16:25:00 25.4 C 10.36 g/m*3 25.4 C 9.7 km/h
487 08-09-2020 16:30:00 25.8 C 10.59 g/m*3 25.8 C 11.3 km/h
488 08-09-2020 16:35:00 25.9 C 10.65 g/m*3 25.9 C 1.6 km/h
489 08-09-2020 16:40:00 26.2 C 10.34 g/m*3 26.2 C 11.3 km/h
490 08-09-2020 16:45:00 26.3 C 10.4 g/m*3 26.3 C 6.4 km/h
491 08-09-2020 16:50:00 26.6 C 10.32 g/m*3 26.6 C 12.9 km/h
492 08-09-2020 16:55:00 26.9 C 10.75 g/m*3 26.9 C 9.7 km/h
493 08-09-2020 17:00:00 27.1 C 10.35 g/m*3 27.1 C 14.5 km/h
494 08-09-2020 17:05:00 27.2 C 10.41 g/m*3 27.2 C 8.1 km/h
495 08-09-2020 17:10:00 27.3 C 10.47 g/m*3 27.3 C 9.7 km/h
496 08-09-2020 17:15:00 27.4 C 10.52 g/m*3 27.4 C 4.8 km/h
497 08-09-2020 17:20:00 27.6 C 10.64 g/m*3 27.6 C 6.4 km/h
498 08-09-2020 17:25:00 27.8 C 10.49 g/m*3 27.8 C 4.8 km/h
499 08-09-2020 17:30:00 27.9 C 10.55 g/m*3 27.9 C 6.4 km/h
500 08-09-2020 17:35:00 27.9 C 10.82 g/m*3 27.9 C 8.1 km/h
Sensor: Nr:Datum:Temp:Abs-Feuchte:Windchill:Wind:
Aussen-T/F 501 08-09-2020 17:40:00 27.7 C 10.97 g/m*3 27.7 C 8.1 km/h
502 08-09-2020 17:45:00 27.7 C 10.7 g/m*3 27.7 C 9.7 km/h
503 08-09-2020 17:50:00 27.7 C 10.7 g/m*3 27.7 C 12.9 km/h
504 08-09-2020 17:55:00 27.7 C 10.97 g/m*3 27.7 C 14.5 km/h
505 08-09-2020 18:00:00 27.8 C 11.3 g/m*3 27.8 C 4.8 km/h
506 08-09-2020 18:05:00 28 C 10.61 g/m*3 28 C 6.4 km/h
507 08-09-2020 18:10:00 28.2 C 11.82 g/m*3 28.2 C 3.2 km/h
508 08-09-2020 18:15:00 28.2 C 11 g/m*3 28.2 C 8.1 km/h
509 08-09-2020 18:20:00 28.1 C 10.94 g/m*3 28.1 C 9.7 km/h
510 08-09-2020 18:25:00 27.8 C 10.76 g/m*3 27.8 C 11.3 km/h
511 08-09-2020 18:30:00 27.6 C 11.17 g/m*3 27.6 C 9.7 km/h
512 08-09-2020 18:35:00 27.5 C 10.32 g/m*3 27.5 C 3.2 km/h
513 08-09-2020 18:40:00 27.6 C 11.71 g/m*3 27.6 C 3.2 km/h
514 08-09-2020 18:45:00 27.8 C 11.3 g/m*3 27.8 C 4.8 km/h
515 08-09-2020 18:50:00 27.8 C 11.3 g/m*3 27.8 C 6.4 km/h
516 08-09-2020 18:55:00 27.6 C 11.97 g/m*3 27.6 C 6.4 km/h
517 08-09-2020 19:00:00 27.2 C 11.97 g/m*3 27.2 C 6.4 km/h
518 08-09-2020 19:05:00 26.7 C 11.9 g/m*3 26.7 C 8.1 km/h
519 08-09-2020 19:10:00 26.3 C 12.13 g/m*3 26.3 C 9.7 km/h
520 08-09-2020 19:15:00 25.9 C 12.1 g/m*3 25.9 C 6.4 km/h
521 08-09-2020 19:20:00 25.5 C 12.31 g/m*3 25.5 C 6.4 km/h
522 08-09-2020 19:25:00 25.1 C 12.5 g/m*3 25.1 C 6.4 km/h
523 08-09-2020 19:30:00 24.9 C 12.59 g/m*3 24.9 C 4.8 km/h
524 08-09-2020 19:35:00 24.6 C 12.38 g/m*3 24.6 C 3.2 km/h
525 08-09-2020 19:40:00 24.4 C 12.91 g/m*3 24.4 C 3.2 km/h
Sensor: Nr:Datum:Temp:Abs-Feuchte:Windchill:Wind:
Aussen-T/F 526 08-09-2020 19:45:00 24.2 C 12.76 g/m*3 24.2 C 1.6 km/h
527 08-09-2020 19:50:00 23.7 C 12.83 g/m*3 23.7 C 3.2 km/h
528 08-09-2020 19:55:00 23.1 C 12.61 g/m*3 23.1 C 0 km/h
529 08-09-2020 20:00:00 22.5 C 12.58 g/m*3 22.5 C 0 km/h
530 08-09-2020 20:05:00 22 C 12.62 g/m*3 22 C 4.8 km/h
531 08-09-2020 20:10:00 21.6 C 12.52 g/m*3 21.6 C 0 km/h
532 08-09-2020 20:15:00 21.2 C 12.42 g/m*3 21.2 C 0 km/h
533 08-09-2020 20:20:00 20.8 C 12.31 g/m*3 20.8 C 0 km/h
534 08-09-2020 20:25:00 20.6 C 12.53 g/m*3 20.6 C 0 km/h
535 08-09-2020 20:30:00 20.3 C 12.31 g/m*3 20.3 C 0 km/h
536 08-09-2020 20:35:00 20.1 C 12.34 g/m*3 20.1 C 3.2 km/h
537 08-09-2020 20:40:00 19.9 C 12.37 g/m*3 19.9 C 0 km/h
538 08-09-2020 20:45:00 19.7 C 12.4 g/m*3 19.7 C 4.8 km/h
539 08-09-2020 20:50:00 19.5 C 12.42 g/m*3 19.5 C 0 km/h
540 08-09-2020 20:55:00 19.3 C 12.27 g/m*3 19.3 C 4.8 km/h
541 08-09-2020 21:00:00 19.2 C 12.37 g/m*3 19.2 C 0 km/h
542 08-09-2020 21:05:00 19.1 C 12.29 g/m*3 19.1 C 0 km/h
543 08-09-2020 21:10:00 18.9 C 12.31 g/m*3 18.9 C 0 km/h
544 08-09-2020 21:15:00 18.8 C 12.24 g/m*3 18.8 C 4.8 km/h
545 08-09-2020 21:20:00 18.7 C 12.33 g/m*3 18.7 C 0 km/h
546 08-09-2020 21:25:00 18.7 C 12.33 g/m*3 18.7 C 3.2 km/h
547 08-09-2020 21:30:00 18.6 C 12.26 g/m*3 18.6 C 1.6 km/h
548 08-09-2020 21:35:00 18.6 C 12.26 g/m*3 18.6 C 3.2 km/h
549 08-09-2020 21:40:00 18.5 C 12.18 g/m*3 18.5 C 3.2 km/h
550 08-09-2020 21:45:00 18.4 C 12.27 g/m*3 18.4 C 0 km/h
Sensor: Nr:Datum:Temp:Abs-Feuchte:Windchill:Wind:
Aussen-T/F 551 08-09-2020 21:50:00 18.3 C 12.2 g/m*3 18.3 C 6.4 km/h
552 08-09-2020 21:55:00 18.2 C 12.12 g/m*3 18.2 C 4.8 km/h
553 08-09-2020 22:00:00 18.1 C 12.21 g/m*3 18.1 C 1.6 km/h
554 08-09-2020 22:05:00 17.9 C 12.06 g/m*3 17.9 C 6.4 km/h
555 08-09-2020 22:10:00 17.9 C 12.06 g/m*3 17.9 C 3.2 km/h
556 08-09-2020 22:15:00 17.8 C 12.14 g/m*3 17.8 C 6.4 km/h
557 08-09-2020 22:20:00 17.7 C 12.07 g/m*3 17.7 C 0 km/h
558 08-09-2020 22:25:00 17.6 C 12 g/m*3 17.6 C 1.6 km/h
559 08-09-2020 22:30:00 17.5 C 12.08 g/m*3 17.5 C 3.2 km/h
560 08-09-2020 22:35:00 17.4 C 12 g/m*3 17.4 C 6.4 km/h
561 08-09-2020 22:40:00 17.3 C 11.93 g/m*3 17.3 C 3.2 km/h
562 08-09-2020 22:45:00 17.3 C 11.93 g/m*3 17.3 C 0 km/h
563 08-09-2020 22:50:00 17.2 C 12.01 g/m*3 17.2 C 0 km/h
564 08-09-2020 22:55:00 17.1 C 11.94 g/m*3 17.1 C 0 km/h
565 08-09-2020 23:00:00 16.9 C 11.79 g/m*3 16.9 C 0 km/h
566 08-09-2020 23:05:00 16.8 C 11.87 g/m*3 16.8 C 0 km/h
567 08-09-2020 23:10:00 16.7 C 11.8 g/m*3 16.7 C 0 km/h
568 08-09-2020 23:15:00 16.5 C 11.8 g/m*3 16.5 C 0 km/h
569 08-09-2020 23:20:00 16.4 C 11.72 g/m*3 16.4 C 0 km/h
570 08-09-2020 23:25:00 16.3 C 11.79 g/m*3 16.3 C 0 km/h
571 08-09-2020 23:30:00 16.2 C 11.72 g/m*3 16.2 C 0 km/h
572 08-09-2020 23:35:00 16 C 11.58 g/m*3 16 C 0 km/h
573 08-09-2020 23:40:00 15.9 C 11.65 g/m*3 15.9 C 0 km/h
574 08-09-2020 23:45:00 15.8 C 11.71 g/m*3 15.8 C 0 km/h
575 08-09-2020 23:50:00 15.7 C 11.64 g/m*3 15.7 C 0 km/h
Sensor: Nr:Datum:Temp:Abs-Feuchte:Windchill:Wind:
Aussen-T/F 576 08-09-2020 23:55:00 15.7 C 11.64 g/m*3 15.7 C 0 km/h
577 09-09-2020 00:00:00 15.6 C 11.57 g/m*3 15.6 C 0 km/h
578 09-09-2020 00:05:00 15.5 C 11.5 g/m*3 15.5 C 0 km/h
579 09-09-2020 00:10:00 15.4 C 11.43 g/m*3 15.4 C 0 km/h
580 09-09-2020 00:15:00 15.3 C 11.49 g/m*3 15.3 C 0 km/h
581 09-09-2020 00:20:00 15.2 C 11.42 g/m*3 15.2 C 0 km/h
582 09-09-2020 00:25:00 15.2 C 11.42 g/m*3 15.2 C 0 km/h
583 09-09-2020 00:30:00 15.1 C 11.35 g/m*3 15.1 C 0 km/h
584 09-09-2020 00:35:00 15.1 C 11.35 g/m*3 15.1 C 0 km/h
585 09-09-2020 00:40:00 15 C 11.41 g/m*3 15 C 0 km/h
586 09-09-2020 00:45:00 14.9 C 11.34 g/m*3 14.9 C 0 km/h
587 09-09-2020 00:50:00 14.8 C 11.27 g/m*3 14.8 C 0 km/h
588 09-09-2020 00:55:00 14.8 C 11.4 g/m*3 14.8 C 0 km/h
589 09-09-2020 01:00:00 14.8 C 11.4 g/m*3 14.8 C 0 km/h
590 09-09-2020 01:05:00 14.7 C 11.33 g/m*3 14.7 C 0 km/h
591 09-09-2020 01:10:00 14.7 C 11.33 g/m*3 14.7 C 0 km/h
592 09-09-2020 01:15:00 14.6 C 11.26 g/m*3 14.6 C 0 km/h
593 09-09-2020 01:20:00 14.5 C 11.19 g/m*3 14.5 C 0 km/h
594 09-09-2020 01:25:00 14.4 C 11.13 g/m*3 14.4 C 0 km/h
595 09-09-2020 01:30:00 14.4 C 11.25 g/m*3 14.4 C 0 km/h
596 09-09-2020 01:35:00 14.4 C 11.25 g/m*3 14.4 C 0 km/h
597 09-09-2020 01:40:00 14.3 C 11.18 g/m*3 14.3 C 0 km/h
598 09-09-2020 01:45:00 14.3 C 11.18 g/m*3 14.3 C 0 km/h
599 09-09-2020 01:50:00 14.3 C 11.18 g/m*3 14.3 C 0 km/h
600 09-09-2020 01:55:00 14.2 C 11.11 g/m*3 14.2 C 0 km/h
Sensor: Nr:Datum:Temp:Abs-Feuchte:Windchill:Wind:
Aussen-T/F 601 09-09-2020 02:00:00 14.2 C 11.11 g/m*3 14.2 C 0 km/h
602 09-09-2020 02:05:00 14.1 C 11.04 g/m*3 14.1 C 0 km/h
603 09-09-2020 02:10:00 14.1 C 11.04 g/m*3 14.1 C 0 km/h
604 09-09-2020 02:15:00 14.1 C 11.04 g/m*3 14.1 C 0 km/h
605 09-09-2020 02:20:00 13.9 C 10.91 g/m*3 13.9 C 0 km/h
606 09-09-2020 02:25:00 13.9 C 11.03 g/m*3 13.9 C 0 km/h
607 09-09-2020 02:30:00 13.8 C 10.96 g/m*3 13.8 C 0 km/h
608 09-09-2020 02:35:00 13.8 C 10.96 g/m*3 13.8 C 0 km/h
609 09-09-2020 02:40:00 13.8 C 10.96 g/m*3 13.8 C 0 km/h
610 09-09-2020 02:45:00 13.8 C 10.96 g/m*3 13.8 C 0 km/h
611 09-09-2020 02:50:00 13.7 C 10.89 g/m*3 13.7 C 0 km/h
612 09-09-2020 02:55:00 13.7 C 10.89 g/m*3 13.7 C 0 km/h
613 09-09-2020 03:00:00 13.7 C 11.01 g/m*3 13.7 C 0 km/h
614 09-09-2020 03:05:00 13.6 C 10.95 g/m*3 13.6 C 0 km/h
615 09-09-2020 03:10:00 13.6 C 10.95 g/m*3 13.6 C 0 km/h
616 09-09-2020 03:15:00 13.4 C 10.69 g/m*3 13.4 C 0 km/h
617 09-09-2020 03:20:00 13.4 C 10.69 g/m*3 13.4 C 0 km/h
618 09-09-2020 03:25:00 13.4 C 10.81 g/m*3 13.4 C 0 km/h
619 09-09-2020 03:30:00 13.3 C 10.74 g/m*3 13.3 C 0 km/h
620 09-09-2020 03:35:00 13.2 C 10.68 g/m*3 13.2 C 0 km/h
621 09-09-2020 03:40:00 13.2 C 10.68 g/m*3 13.2 C 0 km/h
622 09-09-2020 03:45:00 13.2 C 10.68 g/m*3 13.2 C 0 km/h
623 09-09-2020 03:50:00 13.1 C 10.61 g/m*3 13.1 C 0 km/h
624 09-09-2020 03:55:00 13.1 C 10.61 g/m*3 13.1 C 0 km/h
625 09-09-2020 04:00:00 13.1 C 10.61 g/m*3 13.1 C 0 km/h
Sensor: Nr:Datum:Temp:Abs-Feuchte:Windchill:Wind:
Aussen-T/F 626 09-09-2020 04:05:00 13.1 C 10.61 g/m*3 13.1 C 0 km/h
627 09-09-2020 04:10:00 13 C 10.55 g/m*3 13 C 0 km/h
628 09-09-2020 04:15:00 12.9 C 10.48 g/m*3 12.9 C 0 km/h
629 09-09-2020 04:20:00 12.9 C 10.48 g/m*3 12.9 C 0 km/h
630 09-09-2020 04:25:00 12.9 C 10.48 g/m*3 12.9 C 0 km/h
631 09-09-2020 04:30:00 12.9 C 10.48 g/m*3 12.9 C 0 km/h
632 09-09-2020 04:35:00 12.8 C 10.42 g/m*3 12.8 C 0 km/h
633 09-09-2020 04:40:00 12.8 C 10.42 g/m*3 12.8 C 0 km/h
634 09-09-2020 04:45:00 12.7 C 10.46 g/m*3 12.7 C 0 km/h
635 09-09-2020 04:50:00 12.7 C 10.46 g/m*3 12.7 C 0 km/h
636 09-09-2020 04:55:00 12.6 C 10.4 g/m*3 12.6 C 0 km/h
637 09-09-2020 05:00:00 12.6 C 10.4 g/m*3 12.6 C 0 km/h
638 09-09-2020 05:05:00 12.6 C 10.4 g/m*3 12.6 C 0 km/h
639 09-09-2020 05:10:00 12.6 C 10.4 g/m*3 12.6 C 0 km/h
640 09-09-2020 05:15:00 12.6 C 10.4 g/m*3 12.6 C 0 km/h
641 09-09-2020 05:20:00 12.6 C 10.4 g/m*3 12.6 C 0 km/h
642 09-09-2020 05:25:00 12.5 C 10.33 g/m*3 12.5 C 0 km/h
643 09-09-2020 05:30:00 12.4 C 10.27 g/m*3 12.4 C 0 km/h
644 09-09-2020 05:35:00 12.4 C 10.27 g/m*3 12.4 C 0 km/h
645 09-09-2020 05:40:00 12.4 C 10.27 g/m*3 12.4 C 0 km/h
646 09-09-2020 05:45:00 12.3 C 10.21 g/m*3 12.3 C 0 km/h
647 09-09-2020 05:50:00 12.3 C 10.32 g/m*3 12.3 C 0 km/h
648 09-09-2020 05:55:00 12.3 C 10.21 g/m*3 12.3 C 0 km/h
649 09-09-2020 06:00:00 12.4 C 10.38 g/m*3 12.4 C 0 km/h
650 09-09-2020 06:05:00 12.3 C 10.21 g/m*3 12.3 C 0 km/h
Sensor: Nr:Datum:Temp:Abs-Feuchte:Windchill:Wind:
Aussen-T/F 651 09-09-2020 06:10:00 12.3 C 10.21 g/m*3 12.3 C 0 km/h
652 09-09-2020 06:15:00 12.3 C 10.21 g/m*3 12.3 C 0 km/h
653 09-09-2020 06:20:00 12.2 C 10.14 g/m*3 12.2 C 0 km/h
654 09-09-2020 06:25:00 12.2 C 10.14 g/m*3 12.2 C 0 km/h
655 09-09-2020 06:30:00 12.1 C 10.19 g/m*3 12.1 C 0 km/h
656 09-09-2020 06:35:00 12.1 C 10.19 g/m*3 12.1 C 0 km/h
657 09-09-2020 06:40:00 12.1 C 10.19 g/m*3 12.1 C 0 km/h
658 09-09-2020 06:45:00 12.1 C 10.19 g/m*3 12.1 C 0 km/h
659 09-09-2020 06:50:00 12.1 C 10.19 g/m*3 12.1 C 0 km/h
660 09-09-2020 06:55:00 12 C 10.12 g/m*3 12 C 0 km/h
661 09-09-2020 07:00:00 11.9 C 10.06 g/m*3 11.9 C 0 km/h
662 09-09-2020 07:05:00 11.9 C 10.06 g/m*3 11.9 C 0 km/h
663 09-09-2020 07:10:00 11.9 C 10.06 g/m*3 11.9 C 0 km/h
664 09-09-2020 07:15:00 11.9 C 10.06 g/m*3 11.9 C 0 km/h
665 09-09-2020 07:20:00 11.9 C 10.06 g/m*3 11.9 C 0 km/h
666 09-09-2020 07:25:00 11.9 C 10.06 g/m*3 11.9 C 0 km/h
667 09-09-2020 07:30:00 11.9 C 10.06 g/m*3 11.9 C 0 km/h
668 09-09-2020 07:35:00 12.1 C 10.19 g/m*3 12.1 C 1.6 km/h
669 09-09-2020 07:40:00 12.2 C 10.25 g/m*3 12.2 C 0 km/h
670 09-09-2020 07:45:00 12.2 C 10.25 g/m*3 12.2 C 0 km/h
671 09-09-2020 07:50:00 12.2 C 10.36 g/m*3 12.2 C 0 km/h
672 09-09-2020 07:55:00 12.2 C 10.25 g/m*3 12.2 C 0 km/h
673 09-09-2020 08:00:00 12.2 C 10.25 g/m*3 12.2 C 0 km/h
674 09-09-2020 08:05:00 12.2 C 10.36 g/m*3 12.2 C 0 km/h
675 09-09-2020 08:10:00 12.2 C 10.25 g/m*3 12.2 C 0 km/h
Sensor: Nr:Datum:Temp:Abs-Feuchte:Windchill:Wind:
Aussen-T/F 676 09-09-2020 08:15:00 12.2 C 10.25 g/m*3 12.2 C 0 km/h
677 09-09-2020 08:20:00 12.2 C 10.36 g/m*3 12.2 C 1.6 km/h
678 09-09-2020 08:25:00 12.3 C 10.42 g/m*3 12.3 C 0 km/h
679 09-09-2020 08:30:00 12.4 C 10.49 g/m*3 12.4 C 1.6 km/h
680 09-09-2020 08:35:00 12.5 C 10.55 g/m*3 12.5 C 1.6 km/h
681 09-09-2020 08:40:00 12.6 C 10.62 g/m*3 12.6 C 0 km/h
682 09-09-2020 08:45:00 12.7 C 10.69 g/m*3 12.7 C 1.6 km/h
683 09-09-2020 08:50:00 12.7 C 10.69 g/m*3 12.7 C 3.2 km/h
684 09-09-2020 08:55:00 12.8 C 10.75 g/m*3 12.8 C 4.8 km/h
685 09-09-2020 09:00:00 12.8 C 10.75 g/m*3 12.8 C 1.6 km/h
686 09-09-2020 09:05:00 12.9 C 10.82 g/m*3 12.9 C 0 km/h
687 09-09-2020 09:10:00 13 C 10.89 g/m*3 13 C 0 km/h
688 09-09-2020 09:15:00 13.1 C 10.95 g/m*3 13.1 C 0 km/h
689 09-09-2020 09:20:00 13.1 C 10.95 g/m*3 13.1 C 1.6 km/h
690 09-09-2020 09:25:00 13.3 C 11.09 g/m*3 13.3 C 4.8 km/h
691 09-09-2020 09:30:00 13.3 C 11.09 g/m*3 13.3 C 3.2 km/h
692 09-09-2020 09:35:00 13.5 C 11.23 g/m*3 13.5 C 1.6 km/h
693 09-09-2020 09:40:00 13.7 C 11.37 g/m*3 13.7 C 0 km/h
694 09-09-2020 09:45:00 14.1 C 11.77 g/m*3 14.1 C 1.6 km/h
695 09-09-2020 09:50:00 14.3 C 11.92 g/m*3 14.3 C 3.2 km/h
696 09-09-2020 09:55:00 14.7 C 12.21 g/m*3 14.7 C 1.6 km/h
697 09-09-2020 10:00:00 14.9 C 12.36 g/m*3 14.9 C 0 km/h
698 09-09-2020 10:05:00 15.1 C 12.39 g/m*3 15.1 C 0 km/h
699 09-09-2020 10:10:00 15.2 C 12.46 g/m*3 15.2 C 0 km/h
700 09-09-2020 10:15:00 15.4 C 12.61 g/m*3 15.4 C 0 km/h
Sensor: Nr:Datum:Temp:Abs-Feuchte:Windchill:Wind:
Aussen-T/F 701 09-09-2020 10:20:00 15.7 C 12.84 g/m*3 15.7 C 0 km/h
702 09-09-2020 10:25:00 15.9 C 12.87 g/m*3 15.9 C 0 km/h
703 09-09-2020 10:30:00 16.3 C 13.04 g/m*3 16.3 C 0 km/h
704 09-09-2020 10:35:00 16.5 C 13.06 g/m*3 16.5 C 0 km/h
705 09-09-2020 10:40:00 16.8 C 13.01 g/m*3 16.8 C 0 km/h
706 09-09-2020 10:45:00 17.3 C 13.26 g/m*3 17.3 C 0 km/h
707 09-09-2020 10:50:00 17.8 C 13.36 g/m*3 17.8 C 0 km/h
708 09-09-2020 10:55:00 18.3 C 13.13 g/m*3 18.3 C 1.6 km/h
709 09-09-2020 11:00:00 18.9 C 13.45 g/m*3 18.9 C 1.6 km/h
710 09-09-2020 11:05:00 19.3 C 13.27 g/m*3 19.3 C 3.2 km/h
711 09-09-2020 11:10:00 19.7 C 13.25 g/m*3 19.7 C 0 km/h
712 09-09-2020 11:15:00 20 C 13.13 g/m*3 20 C 1.6 km/h
713 09-09-2020 11:20:00 20.3 C 13.19 g/m*3 20.3 C 0 km/h
714 09-09-2020 11:25:00 20.7 C 13.5 g/m*3 20.7 C 0 km/h
715 09-09-2020 11:30:00 20.9 C 13.3 g/m*3 20.9 C 0 km/h
716 09-09-2020 11:35:00 21.2 C 13.53 g/m*3 21.2 C 0 km/h
717 09-09-2020 11:40:00 21.5 C 13.58 g/m*3 21.5 C 0 km/h
718 09-09-2020 11:45:00 21.7 C 13.54 g/m*3 21.7 C 0 km/h
719 09-09-2020 11:50:00 21.9 C 14.09 g/m*3 21.9 C 0 km/h
720 09-09-2020 11:55:00 22.2 C 14.33 g/m*3 22.2 C 0 km/h
721 09-09-2020 12:00:00 22.3 C 13.82 g/m*3 22.3 C 0 km/h
722 09-09-2020 12:05:00 22.4 C 13.7 g/m*3 22.4 C 6.4 km/h
723 09-09-2020 12:10:00 22.4 C 13.5 g/m*3 22.4 C 8.1 km/h
724 09-09-2020 12:15:00 22.3 C 13.62 g/m*3 22.3 C 4.8 km/h
725 09-09-2020 12:20:00 22.4 C 13.7 g/m*3 22.4 C 1.6 km/h
Sensor: Nr:Datum:Temp:Abs-Feuchte:Windchill:Wind:
Aussen-T/F 726 09-09-2020 12:25:00 22.3 C 13.62 g/m*3 22.3 C 4.8 km/h
727 09-09-2020 12:30:00 22.3 C 13.62 g/m*3 22.3 C 0 km/h
728 09-09-2020 12:35:00 22.3 C 13.43 g/m*3 22.3 C 6.4 km/h
729 09-09-2020 12:40:00 22.3 C 13.62 g/m*3 22.3 C 6.4 km/h
730 09-09-2020 12:45:00 22.4 C 13.7 g/m*3 22.4 C 3.2 km/h
731 09-09-2020 12:50:00 22.5 C 13.98 g/m*3 22.5 C 0 km/h
732 09-09-2020 12:55:00 22.5 C 13.78 g/m*3 22.5 C 3.2 km/h
733 09-09-2020 13:00:00 22.6 C 13.86 g/m*3 22.6 C 0 km/h
734 09-09-2020 13:05:00 22.7 C 13.94 g/m*3 22.7 C 1.6 km/h
735 09-09-2020 13:10:00 22.7 C 13.94 g/m*3 22.7 C 4.8 km/h
736 09-09-2020 13:15:00 22.8 C 13.82 g/m*3 22.8 C 6.4 km/h
737 09-09-2020 13:20:00 22.9 C 14.31 g/m*3 22.9 C 4.8 km/h
738 09-09-2020 13:25:00 22.9 C 13.69 g/m*3 22.9 C 3.2 km/h
739 09-09-2020 13:30:00 22.9 C 13.9 g/m*3 22.9 C 4.8 km/h
740 09-09-2020 13:35:00 22.9 C 13.9 g/m*3 22.9 C 8.1 km/h
741 09-09-2020 13:40:00 22.9 C 13.69 g/m*3 22.9 C 9.7 km/h
742 09-09-2020 13:45:00 22.9 C 13.9 g/m*3 22.9 C 6.4 km/h
743 09-09-2020 13:50:00 23 C 13.77 g/m*3 23 C 4.8 km/h
744 09-09-2020 13:55:00 23 C 13.77 g/m*3 23 C 8.1 km/h
745 09-09-2020 14:00:00 23.1 C 13.85 g/m*3 23.1 C 3.2 km/h
746 09-09-2020 14:05:00 23.2 C 13.93 g/m*3 23.2 C 8.1 km/h
747 09-09-2020 14:10:00 23.2 C 13.93 g/m*3 23.2 C 8.1 km/h
748 09-09-2020 14:15:00 23.2 C 13.72 g/m*3 23.2 C 6.4 km/h
749 09-09-2020 14:20:00 23.3 C 14.01 g/m*3 23.3 C 4.8 km/h
750 09-09-2020 14:25:00 23.6 C 14.25 g/m*3 23.6 C 9.7 km/h
Sensor: Nr:Datum:Temp:Abs-Feuchte:Windchill:Wind:
Aussen-T/F 751 09-09-2020 14:30:00 23.8 C 14.2 g/m*3 23.8 C 8.1 km/h
752 09-09-2020 14:35:00 24 C 13.92 g/m*3 24 C 11.3 km/h
753 09-09-2020 14:40:00 24.1 C 14 g/m*3 24.1 C 6.4 km/h
754 09-09-2020 14:45:00 24.2 C 14.08 g/m*3 24.2 C 8.1 km/h
755 09-09-2020 14:50:00 24.3 C 13.94 g/m*3 24.3 C 9.7 km/h
756 09-09-2020 14:55:00 24.3 C 13.94 g/m*3 24.3 C 8.1 km/h
757 09-09-2020 15:00:00 24.2 C 13.86 g/m*3 24.2 C 9.7 km/h
758 09-09-2020 15:05:00 24.2 C 15.18 g/m*3 24.2 C 4.8 km/h
759 09-09-2020 15:10:00 24.2 C 14.08 g/m*3 24.2 C 12.9 km/h
760 09-09-2020 15:15:00 24.2 C 14.3 g/m*3 24.2 C 8.1 km/h
761 09-09-2020 15:20:00 24.3 C 14.61 g/m*3 24.3 C 1.6 km/h
762 09-09-2020 15:25:00 24.3 C 14.16 g/m*3 24.3 C 11.3 km/h
763 09-09-2020 15:30:00 24.2 C 14.08 g/m*3 24.2 C 11.3 km/h
764 09-09-2020 15:35:00 24.1 C 14 g/m*3 24.1 C 3.2 km/h
765 09-09-2020 15:40:00 24 C 14.14 g/m*3 24 C 6.4 km/h
766 09-09-2020 15:45:00 23.9 C 14.06 g/m*3 23.9 C 4.8 km/h
767 09-09-2020 15:50:00 23.8 C 13.77 g/m*3 23.8 C 9.7 km/h
768 09-09-2020 15:55:00 23.8 C 13.98 g/m*3 23.8 C 4.8 km/h
769 09-09-2020 16:00:00 23.7 C 13.9 g/m*3 23.7 C 8.1 km/h
770 09-09-2020 16:05:00 23.7 C 14.12 g/m*3 23.7 C 3.2 km/h
771 09-09-2020 16:10:00 23.8 C 14.2 g/m*3 23.8 C 0 km/h
772 09-09-2020 16:15:00 23.8 C 13.98 g/m*3 23.8 C 4.8 km/h
773 09-09-2020 16:20:00 23.9 C 14.06 g/m*3 23.9 C 11.3 km/h
774 09-09-2020 16:25:00 23.9 C 14.06 g/m*3 23.9 C 4.8 km/h
775 09-09-2020 16:30:00 23.9 C 14.06 g/m*3 23.9 C 4.8 km/h
Sensor: Nr:Datum:Temp:Abs-Feuchte:Windchill:Wind:
Aussen-T/F 776 09-09-2020 16:35:00 24 C 14.36 g/m*3 24 C 4.8 km/h
777 09-09-2020 16:40:00 24.1 C 14.22 g/m*3 24.1 C 1.6 km/h
778 09-09-2020 16:45:00 24.1 C 13.78 g/m*3 24.1 C 3.2 km/h
779 09-09-2020 16:50:00 24.1 C 14.22 g/m*3 24.1 C 3.2 km/h
780 09-09-2020 16:55:00 24.1 C 13.78 g/m*3 24.1 C 4.8 km/h
781 09-09-2020 17:00:00 24.1 C 13.78 g/m*3 24.1 C 4.8 km/h
782 09-09-2020 17:05:00 24.2 C 13.86 g/m*3 24.2 C 4.8 km/h
783 09-09-2020 17:10:00 24.3 C 13.72 g/m*3 24.3 C 3.2 km/h
784 09-09-2020 17:15:00 24.4 C 14.02 g/m*3 24.4 C 6.4 km/h
785 09-09-2020 17:20:00 24.5 C 13.88 g/m*3 24.5 C 6.4 km/h
786 09-09-2020 17:25:00 24.6 C 14.18 g/m*3 24.6 C 6.4 km/h
787 09-09-2020 17:30:00 24.6 C 14.4 g/m*3 24.6 C 4.8 km/h
788 09-09-2020 17:35:00 24.7 C 14.03 g/m*3 24.7 C 8.1 km/h
789 09-09-2020 17:40:00 24.7 C 14.03 g/m*3 24.7 C 4.8 km/h
790 09-09-2020 17:45:00 24.7 C 14.26 g/m*3 24.7 C 1.6 km/h
791 09-09-2020 17:50:00 24.7 C 14.71 g/m*3 24.7 C 1.6 km/h
792 09-09-2020 17:55:00 24.8 C 15.02 g/m*3 24.8 C 1.6 km/h
793 09-09-2020 18:00:00 25.1 C 14.12 g/m*3 25.1 C 8.1 km/h
794 09-09-2020 18:05:00 25.2 C 14.67 g/m*3 25.2 C 0 km/h
795 09-09-2020 18:10:00 25.1 C 14.58 g/m*3 25.1 C 0 km/h
796 09-09-2020 18:15:00 24.9 C 14.65 g/m*3 24.9 C 0 km/h
797 09-09-2020 18:20:00 24.7 C 14.94 g/m*3 24.7 C 1.6 km/h
798 09-09-2020 18:25:00 24.5 C 14.77 g/m*3 24.5 C 0 km/h
799 09-09-2020 18:30:00 24.3 C 14.83 g/m*3 24.3 C 0 km/h
800 09-09-2020 18:35:00 24.2 C 14.96 g/m*3 24.2 C 0 km/h
Sensor: Nr:Datum:Temp:Abs-Feuchte:Windchill:Wind:
Aussen-T/F 801 09-09-2020 18:40:00 24 C 14.36 g/m*3 24 C 4.8 km/h
802 09-09-2020 18:45:00 23.9 C 14.71 g/m*3 23.9 C 0 km/h
803 09-09-2020 18:50:00 23.9 C 14.93 g/m*3 23.9 C 0 km/h
804 09-09-2020 18:55:00 23.8 C 15.06 g/m*3 23.8 C 0 km/h
805 09-09-2020 19:00:00 23.7 C 14.97 g/m*3 23.7 C 0 km/h
806 09-09-2020 19:05:00 23.6 C 14.89 g/m*3 23.6 C 0 km/h
807 09-09-2020 19:10:00 23.4 C 14.93 g/m*3 23.4 C 0 km/h
808 09-09-2020 19:15:00 23.2 C 14.55 g/m*3 23.2 C 0 km/h
809 09-09-2020 19:20:00 23 C 14.59 g/m*3 23 C 0 km/h
810 09-09-2020 19:25:00 22.8 C 14.43 g/m*3 22.8 C 0 km/h
811 09-09-2020 19:30:00 22.5 C 14.38 g/m*3 22.5 C 0 km/h
812 09-09-2020 19:35:00 22.3 C 14.41 g/m*3 22.3 C 0 km/h
813 09-09-2020 19:40:00 22.2 C 14.33 g/m*3 22.2 C 0 km/h
814 09-09-2020 19:45:00 22.1 C 14.45 g/m*3 22.1 C 0 km/h
815 09-09-2020 19:50:00 21.9 C 14.28 g/m*3 21.9 C 0 km/h
816 09-09-2020 19:55:00 21.8 C 14.2 g/m*3 21.8 C 0 km/h
817 09-09-2020 20:00:00 21.7 C 14.5 g/m*3 21.7 C 0 km/h
818 09-09-2020 20:05:00 21.6 C 14.41 g/m*3 21.6 C 0 km/h
819 09-09-2020 20:10:00 21.5 C 14.33 g/m*3 21.5 C 0 km/h
820 09-09-2020 20:15:00 21.4 C 14.25 g/m*3 21.4 C 0 km/h
821 09-09-2020 20:20:00 21.3 C 14.17 g/m*3 21.3 C 0 km/h
822 09-09-2020 20:25:00 21.2 C 14.08 g/m*3 21.2 C 0 km/h
823 09-09-2020 20:30:00 21 C 14.11 g/m*3 21 C 0 km/h
824 09-09-2020 20:35:00 20.9 C 14.02 g/m*3 20.9 C 0 km/h
825 09-09-2020 20:40:00 20.7 C 13.86 g/m*3 20.7 C 0 km/h
Sensor: Nr:Datum:Temp:Abs-Feuchte:Windchill:Wind:
Aussen-T/F 826 09-09-2020 20:45:00 20.5 C 13.88 g/m*3 20.5 C 0 km/h
827 09-09-2020 20:50:00 20.3 C 13.72 g/m*3 20.3 C 0 km/h
828 09-09-2020 20:55:00 20.2 C 13.64 g/m*3 20.2 C 1.6 km/h
829 09-09-2020 21:00:00 20.1 C 13.56 g/m*3 20.1 C 1.6 km/h
830 09-09-2020 21:05:00 20.1 C 13.73 g/m*3 20.1 C 0 km/h
831 09-09-2020 21:10:00 19.9 C 13.57 g/m*3 19.9 C 4.8 km/h
832 09-09-2020 21:15:00 19.8 C 13.66 g/m*3 19.8 C 4.8 km/h
833 09-09-2020 21:20:00 19.7 C 13.41 g/m*3 19.7 C 6.4 km/h
834 09-09-2020 21:25:00 19.7 C 13.58 g/m*3 19.7 C 4.8 km/h
835 09-09-2020 21:30:00 19.7 C 13.58 g/m*3 19.7 C 6.4 km/h
836 09-09-2020 21:35:00 19.6 C 13.51 g/m*3 19.6 C 6.4 km/h
837 09-09-2020 21:40:00 19.6 C 13.51 g/m*3 19.6 C 6.4 km/h
838 09-09-2020 21:45:00 19.6 C 13.51 g/m*3 19.6 C 6.4 km/h
839 09-09-2020 21:50:00 19.6 C 13.67 g/m*3 19.6 C 4.8 km/h
840 09-09-2020 21:55:00 19.6 C 13.67 g/m*3 19.6 C 4.8 km/h
841 09-09-2020 22:00:00 19.6 C 13.67 g/m*3 19.6 C 3.2 km/h
842 09-09-2020 22:05:00 19.6 C 13.67 g/m*3 19.6 C 0 km/h
843 09-09-2020 22:10:00 19.6 C 13.67 g/m*3 19.6 C 4.8 km/h
844 09-09-2020 22:15:00 19.6 C 13.67 g/m*3 19.6 C 3.2 km/h
845 09-09-2020 22:20:00 19.6 C 13.67 g/m*3 19.6 C 3.2 km/h
846 09-09-2020 22:25:00 19.7 C 13.75 g/m*3 19.7 C 0 km/h
847 09-09-2020 22:30:00 19.7 C 13.75 g/m*3 19.7 C 0 km/h
848 09-09-2020 22:35:00 19.7 C 13.75 g/m*3 19.7 C 0 km/h
849 09-09-2020 22:40:00 19.7 C 13.75 g/m*3 19.7 C 0 km/h
850 09-09-2020 22:45:00 19.7 C 13.75 g/m*3 19.7 C 0 km/h
Sensor: Nr:Datum:Temp:Abs-Feuchte:Windchill:Wind:
Aussen-T/F 851 09-09-2020 22:50:00 19.7 C 13.92 g/m*3 19.7 C 0 km/h
852 09-09-2020 22:55:00 19.7 C 13.92 g/m*3 19.7 C 0 km/h
853 09-09-2020 23:00:00 19.7 C 13.75 g/m*3 19.7 C 3.2 km/h
854 09-09-2020 23:05:00 19.7 C 13.75 g/m*3 19.7 C 1.6 km/h
855 09-09-2020 23:10:00 19.7 C 13.75 g/m*3 19.7 C 0 km/h
856 09-09-2020 23:15:00 19.7 C 13.58 g/m*3 19.7 C 0 km/h
857 09-09-2020 23:20:00 19.7 C 13.41 g/m*3 19.7 C 1.6 km/h
858 09-09-2020 23:25:00 19.9 C 13.74 g/m*3 19.9 C 0 km/h
859 09-09-2020 23:30:00 20 C 13.65 g/m*3 20 C 6.4 km/h
860 09-09-2020 23:35:00 20.2 C 13.64 g/m*3 20.2 C 4.8 km/h
861 09-09-2020 23:40:00 20.3 C 13.72 g/m*3 20.3 C 6.4 km/h
862 09-09-2020 23:45:00 20.5 C 13.88 g/m*3 20.5 C 4.8 km/h
863 09-09-2020 23:50:00 20.6 C 13.78 g/m*3 20.6 C 4.8 km/h
864 09-09-2020 23:55:00 20.7 C 14.04 g/m*3 20.7 C 14.5 km/h
865 10-09-2020 00:00:00 20.8 C 14.3 g/m*3 20.8 C 11.3 km/h
866 10-09-2020 00:05:00 20.7 C 14.4 g/m*3 20.7 C 11.3 km/h
867 10-09-2020 00:10:00 20.6 C 14.5 g/m*3 20.6 C 16.1 km/h
868 10-09-2020 00:15:00 20.5 C 14.59 g/m*3 20.5 C 9.7 km/h
869 10-09-2020 00:20:00 20.3 C 14.6 g/m*3 20.3 C 11.3 km/h
870 10-09-2020 00:25:00 20.2 C 14.69 g/m*3 20.2 C 11.3 km/h
871 10-09-2020 00:30:00 20.1 C 14.6 g/m*3 20.1 C 8.1 km/h
872 10-09-2020 00:35:00 20 C 14.69 g/m*3 20 C 11.3 km/h
873 10-09-2020 00:40:00 19.9 C 14.6 g/m*3 19.9 C 14.5 km/h
874 10-09-2020 00:45:00 19.8 C 14.69 g/m*3 19.8 C 9.7 km/h
875 10-09-2020 00:50:00 19.7 C 14.6 g/m*3 19.7 C 9.7 km/h
Sensor: Nr:Datum:Temp:Abs-Feuchte:Windchill:Wind:
Aussen-T/F 876 10-09-2020 00:55:00 19.6 C 14.69 g/m*3 19.6 C 6.4 km/h
877 10-09-2020 01:00:00 19.4 C 14.68 g/m*3 19.4 C 14.5 km/h
878 10-09-2020 01:05:00 19.2 C 14.68 g/m*3 19.2 C 8.1 km/h
879 10-09-2020 01:10:00 19.1 C 14.75 g/m*3 19.1 C 4.8 km/h
880 10-09-2020 01:15:00 18.9 C 14.58 g/m*3 18.9 C 8.1 km/h
881 10-09-2020 01:20:00 18.7 C 14.41 g/m*3 18.7 C 12.9 km/h
882 10-09-2020 01:25:00 18.6 C 14.48 g/m*3 18.6 C 8.1 km/h
883 10-09-2020 01:30:00 18.6 C 14.48 g/m*3 18.6 C 6.4 km/h
884 10-09-2020 01:35:00 18.5 C 14.4 g/m*3 18.5 C 6.4 km/h
885 10-09-2020 01:40:00 18.4 C 14.47 g/m*3 18.4 C 4.8 km/h
886 10-09-2020 01:45:00 18.4 C 14.47 g/m*3 18.4 C 8.1 km/h
887 10-09-2020 01:50:00 18.3 C 14.38 g/m*3 18.3 C 11.3 km/h
888 10-09-2020 01:55:00 18.2 C 14.3 g/m*3 18.2 C 9.7 km/h
889 10-09-2020 02:00:00 18.1 C 14.21 g/m*3 18.1 C 3.2 km/h
890 10-09-2020 02:05:00 18.1 C 14.21 g/m*3 18.1 C 0 km/h
891 10-09-2020 02:10:00 18 C 14.13 g/m*3 18 C 4.8 km/h
892 10-09-2020 02:15:00 17.9 C 13.89 g/m*3 17.9 C 8.1 km/h
893 10-09-2020 02:20:00 17.8 C 13.66 g/m*3 17.8 C 11.3 km/h
894 10-09-2020 02:25:00 17.7 C 13.58 g/m*3 17.7 C 6.4 km/h
895 10-09-2020 02:30:00 17.6 C 13.5 g/m*3 17.6 C 1.6 km/h
896 10-09-2020 02:35:00 17.4 C 13.19 g/m*3 17.4 C 9.7 km/h
897 10-09-2020 02:40:00 17.4 C 13.34 g/m*3 17.4 C 4.8 km/h
898 10-09-2020 02:45:00 17.4 C 13.34 g/m*3 17.4 C 0 km/h
899 10-09-2020 02:50:00 17.4 C 13.34 g/m*3 17.4 C 4.8 km/h
900 10-09-2020 02:55:00 17.3 C 13.26 g/m*3 17.3 C 0 km/h
Sensor: Nr:Datum:Temp:Abs-Feuchte:Windchill:Wind:
Aussen-T/F 901 10-09-2020 03:00:00 17.3 C 13.26 g/m*3 17.3 C 6.4 km/h
902 10-09-2020 03:05:00 17.3 C 13.11 g/m*3 17.3 C 0 km/h
903 10-09-2020 03:10:00 17.3 C 13.11 g/m*3 17.3 C 0 km/h
904 10-09-2020 03:15:00 17.2 C 13.18 g/m*3 17.2 C 0 km/h
905 10-09-2020 03:20:00 17.2 C 13.18 g/m*3 17.2 C 0 km/h
906 10-09-2020 03:25:00 17.2 C 13.03 g/m*3 17.2 C 1.6 km/h
907 10-09-2020 03:30:00 17.1 C 12.96 g/m*3 17.1 C 4.8 km/h
908 10-09-2020 03:35:00 17.1 C 12.96 g/m*3 17.1 C 1.6 km/h
909 10-09-2020 03:40:00 17.1 C 12.96 g/m*3 17.1 C 0 km/h
910 10-09-2020 03:45:00 17.1 C 12.96 g/m*3 17.1 C 1.6 km/h
911 10-09-2020 03:50:00 17.1 C 12.96 g/m*3 17.1 C 8.1 km/h
912 10-09-2020 03:55:00 17.1 C 12.96 g/m*3 17.1 C 0 km/h
913 10-09-2020 04:00:00 17.1 C 12.96 g/m*3 17.1 C 3.2 km/h
914 10-09-2020 04:05:00 17.1 C 12.96 g/m*3 17.1 C 0 km/h
915 10-09-2020 04:10:00 17.1 C 12.96 g/m*3 17.1 C 0 km/h
916 10-09-2020 04:15:00 17 C 12.88 g/m*3 17 C 1.6 km/h
917 10-09-2020 04:20:00 16.9 C 12.66 g/m*3 16.9 C 0 km/h
918 10-09-2020 04:25:00 16.8 C 12.58 g/m*3 16.8 C 0 km/h
919 10-09-2020 04:30:00 16.8 C 12.44 g/m*3 16.8 C 1.6 km/h
920 10-09-2020 04:35:00 16.7 C 12.22 g/m*3 16.7 C 1.6 km/h
921 10-09-2020 04:40:00 16.7 C 12.36 g/m*3 16.7 C 0 km/h
922 10-09-2020 04:45:00 16.7 C 12.36 g/m*3 16.7 C 0 km/h
923 10-09-2020 04:50:00 16.7 C 12.22 g/m*3 16.7 C 1.6 km/h
924 10-09-2020 04:55:00 16.7 C 12.08 g/m*3 16.7 C 3.2 km/h
925 10-09-2020 05:00:00 16.6 C 11.72 g/m*3 16.6 C 6.4 km/h
Sensor: Nr:Datum:Temp:Abs-Feuchte:Windchill:Wind:
Aussen-T/F 926 10-09-2020 05:05:00 16.6 C 11.58 g/m*3 16.6 C 4.8 km/h
927 10-09-2020 05:10:00 16.6 C 11.72 g/m*3 16.6 C 3.2 km/h
928 10-09-2020 05:15:00 16.7 C 11.8 g/m*3 16.7 C 0 km/h
929 10-09-2020 05:20:00 16.6 C 11.72 g/m*3 16.6 C 0 km/h
930 10-09-2020 05:25:00 16.6 C 11.87 g/m*3 16.6 C 0 km/h
931 10-09-2020 05:30:00 16.6 C 11.87 g/m*3 16.6 C 0 km/h
932 10-09-2020 05:35:00 16.6 C 11.87 g/m*3 16.6 C 0 km/h
933 10-09-2020 05:40:00 16.6 C 12.01 g/m*3 16.6 C 0 km/h
934 10-09-2020 05:45:00 16.5 C 11.94 g/m*3 16.5 C 1.6 km/h
935 10-09-2020 05:50:00 16.4 C 11.86 g/m*3 16.4 C 4.8 km/h
936 10-09-2020 05:55:00 16.4 C 11.86 g/m*3 16.4 C 4.8 km/h
937 10-09-2020 06:00:00 16.3 C 11.79 g/m*3 16.3 C 0 km/h
938 10-09-2020 06:05:00 16.3 C 11.79 g/m*3 16.3 C 0 km/h
939 10-09-2020 06:10:00 16.3 C 11.79 g/m*3 16.3 C 1.6 km/h
940 10-09-2020 06:15:00 16.2 C 11.58 g/m*3 16.2 C 4.8 km/h
941 10-09-2020 06:20:00 16.2 C 11.58 g/m*3 16.2 C 1.6 km/h
942 10-09-2020 06:25:00 16.2 C 11.58 g/m*3 16.2 C 4.8 km/h
943 10-09-2020 06:30:00 16.1 C 11.51 g/m*3 16.1 C 3.2 km/h
944 10-09-2020 06:35:00 16 C 11.44 g/m*3 16 C 3.2 km/h
945 10-09-2020 06:40:00 15.9 C 11.38 g/m*3 15.9 C 3.2 km/h
946 10-09-2020 06:45:00 15.9 C 11.51 g/m*3 15.9 C 3.2 km/h
947 10-09-2020 06:50:00 15.8 C 11.31 g/m*3 15.8 C 8.1 km/h
948 10-09-2020 06:55:00 15.8 C 11.44 g/m*3 15.8 C 3.2 km/h
949 10-09-2020 07:00:00 15.8 C 11.44 g/m*3 15.8 C 0 km/h
950 10-09-2020 07:05:00 15.7 C 11.51 g/m*3 15.7 C 3.2 km/h
Sensor: Nr:Datum:Temp:Abs-Feuchte:Windchill:Wind:
Aussen-T/F 951 10-09-2020 07:10:00 15.6 C 11.44 g/m*3 15.6 C 8.1 km/h
952 10-09-2020 07:15:00 15.6 C 11.44 g/m*3 15.6 C 4.8 km/h
953 10-09-2020 07:20:00 15.5 C 11.5 g/m*3 15.5 C 8.1 km/h
954 10-09-2020 07:25:00 15.4 C 11.43 g/m*3 15.4 C 6.4 km/h
955 10-09-2020 07:30:00 15.4 C 11.43 g/m*3 15.4 C 3.2 km/h
956 10-09-2020 07:35:00 15.4 C 11.43 g/m*3 15.4 C 8.1 km/h
957 10-09-2020 07:40:00 15.4 C 11.3 g/m*3 15.4 C 4.8 km/h
958 10-09-2020 07:45:00 15.3 C 11.23 g/m*3 15.3 C 4.8 km/h
959 10-09-2020 07:50:00 15.3 C 11.23 g/m*3 15.3 C 8.1 km/h
960 10-09-2020 07:55:00 15.3 C 11.23 g/m*3 15.3 C 1.6 km/h
961 10-09-2020 08:00:00 15.3 C 11.23 g/m*3 15.3 C 0 km/h
962 10-09-2020 08:05:00 15.3 C 11.23 g/m*3 15.3 C 3.2 km/h
963 10-09-2020 08:10:00 15.3 C 11.23 g/m*3 15.3 C 4.8 km/h
964 10-09-2020 08:15:00 15.3 C 11.23 g/m*3 15.3 C 1.6 km/h
965 10-09-2020 08:20:00 15.3 C 11.23 g/m*3 15.3 C 0 km/h
966 10-09-2020 08:25:00 15.4 C 11.3 g/m*3 15.4 C 4.8 km/h
967 10-09-2020 08:30:00 15.4 C 11.3 g/m*3 15.4 C 0 km/h
968 10-09-2020 08:35:00 15.4 C 11.3 g/m*3 15.4 C 4.8 km/h
969 10-09-2020 08:40:00 15.4 C 11.3 g/m*3 15.4 C 4.8 km/h
970 10-09-2020 08:45:00 15.4 C 11.3 g/m*3 15.4 C 1.6 km/h
971 10-09-2020 08:50:00 15.4 C 11.43 g/m*3 15.4 C 0 km/h
972 10-09-2020 08:55:00 15.4 C 11.43 g/m*3 15.4 C 3.2 km/h
973 10-09-2020 09:00:00 15.4 C 11.43 g/m*3 15.4 C 1.6 km/h
974 10-09-2020 09:05:00 15.4 C 11.3 g/m*3 15.4 C 3.2 km/h
975 10-09-2020 09:10:00 15.4 C 11.43 g/m*3 15.4 C 1.6 km/h
Sensor: Nr:Datum:Temp:Abs-Feuchte:Windchill:Wind:
Aussen-T/F 976 10-09-2020 09:15:00 15.4 C 11.43 g/m*3 15.4 C 4.8 km/h
977 10-09-2020 09:20:00 15.5 C 11.37 g/m*3 15.5 C 3.2 km/h
978 10-09-2020 09:25:00 15.5 C 11.37 g/m*3 15.5 C 4.8 km/h
979 10-09-2020 09:30:00 15.6 C 11.44 g/m*3 15.6 C 4.8 km/h
980 10-09-2020 09:35:00 15.6 C 11.44 g/m*3 15.6 C 3.2 km/h
981 10-09-2020 09:40:00 15.7 C 11.37 g/m*3 15.7 C 3.2 km/h
982 10-09-2020 09:45:00 15.7 C 11.37 g/m*3 15.7 C 1.6 km/h
983 10-09-2020 09:50:00 15.8 C 11.44 g/m*3 15.8 C 6.4 km/h
984 10-09-2020 09:55:00 15.8 C 11.31 g/m*3 15.8 C 8.1 km/h
985 10-09-2020 10:00:00 15.9 C 11.38 g/m*3 15.9 C 6.4 km/h
986 10-09-2020 10:05:00 15.8 C 10.9 g/m*3 15.8 C 11.3 km/h
987 10-09-2020 10:10:00 15.8 C 10.9 g/m*3 15.8 C 6.4 km/h
988 10-09-2020 10:15:00 15.8 C 10.9 g/m*3 15.8 C 8.1 km/h
989 10-09-2020 10:20:00 15.8 C 10.9 g/m*3 15.8 C 8.1 km/h
990 10-09-2020 10:25:00 15.8 C 10.63 g/m*3 15.8 C 9.7 km/h
991 10-09-2020 10:30:00 15.8 C 10.63 g/m*3 15.8 C 6.4 km/h
992 10-09-2020 10:35:00 15.9 C 10.83 g/m*3 15.9 C 8.1 km/h
993 10-09-2020 10:40:00 16.1 C 10.97 g/m*3 16.1 C 4.8 km/h
994 10-09-2020 10:45:00 16.1 C 10.97 g/m*3 16.1 C 3.2 km/h
995 10-09-2020 10:50:00 16.2 C 10.76 g/m*3 16.2 C 8.1 km/h
996 10-09-2020 10:55:00 16.2 C 10.62 g/m*3 16.2 C 0 km/h
997 10-09-2020 11:00:00 16.3 C 10.68 g/m*3 16.3 C 0 km/h
998 10-09-2020 11:05:00 16.5 C 10.81 g/m*3 16.5 C 1.6 km/h
999 10-09-2020 11:10:00 16.6 C 10.88 g/m*3 16.6 C 6.4 km/h
1000 10-09-2020 11:15:00 16.7 C 10.94 g/m*3 16.7 C 3.2 km/h
Sensor: Nr:Datum:Temp:Abs-Feuchte:Windchill:Wind:
Aussen-T/F 1001 10-09-2020 11:20:00 16.7 C 10.94 g/m*3 16.7 C 4.8 km/h
1002 10-09-2020 11:25:00 16.8 C 11.01 g/m*3 16.8 C 9.7 km/h
1003 10-09-2020 11:30:00 16.8 C 10.87 g/m*3 16.8 C 9.7 km/h
1004 10-09-2020 11:35:00 16.8 C 10.87 g/m*3 16.8 C 8.1 km/h
1005 10-09-2020 11:40:00 16.8 C 10.72 g/m*3 16.8 C 1.6 km/h
1006 10-09-2020 11:45:00 16.8 C 10.15 g/m*3 16.8 C 8.1 km/h
1007 10-09-2020 11:50:00 16.8 C 10.01 g/m*3 16.8 C 4.8 km/h
1008 10-09-2020 11:55:00 16.8 C 10.15 g/m*3 16.8 C 6.4 km/h
1009 10-09-2020 12:00:00 17.1 C 10.48 g/m*3 17.1 C 6.4 km/h
1010 10-09-2020 12:05:00 17.2 C 10.4 g/m*3 17.2 C 6.4 km/h
1011 10-09-2020 12:10:00 17.4 C 10.67 g/m*3 17.4 C 6.4 km/h
1012 10-09-2020 12:15:00 17.5 C 10.59 g/m*3 17.5 C 8.1 km/h
1013 10-09-2020 12:20:00 17.8 C 10.62 g/m*3 17.8 C 6.4 km/h
1014 10-09-2020 12:25:00 17.9 C 10.54 g/m*3 17.9 C 9.7 km/h
1015 10-09-2020 12:30:00 18.1 C 10.35 g/m*3 18.1 C 9.7 km/h
1016 10-09-2020 12:35:00 18.2 C 9.95 g/m*3 18.2 C 6.4 km/h
1017 10-09-2020 12:40:00 18.2 C 9.95 g/m*3 18.2 C 3.2 km/h
1018 10-09-2020 12:45:00 18.2 C 10.1 g/m*3 18.2 C 11.3 km/h
1019 10-09-2020 12:50:00 18.2 C 9.79 g/m*3 18.2 C 11.3 km/h
1020 10-09-2020 12:55:00 18.2 C 9.79 g/m*3 18.2 C 1.6 km/h
1021 10-09-2020 13:00:00 18.2 C 9.48 g/m*3 18.2 C 3.2 km/h
1022 10-09-2020 13:05:00 18.2 C 9.64 g/m*3 18.2 C 8.1 km/h
1023 10-09-2020 13:10:00 18.3 C 9.69 g/m*3 18.3 C 8.1 km/h
1024 10-09-2020 13:15:00 18.3 C 9.54 g/m*3 18.3 C 6.4 km/h
1025 10-09-2020 13:20:00 18.3 C 9.38 g/m*3 18.3 C 6.4 km/h
Sensor: Nr:Datum:Temp:Abs-Feuchte:Windchill:Wind:
Aussen-T/F 1026 10-09-2020 13:25:00 18.4 C 9.28 g/m*3 18.4 C 8.1 km/h
1027 10-09-2020 13:30:00 18.5 C 9.33 g/m*3 18.5 C 0 km/h
1028 10-09-2020 13:35:00 18.6 C 9.39 g/m*3 18.6 C 4.8 km/h
1029 10-09-2020 13:40:00 18.7 C 9.45 g/m*3 18.7 C 8.1 km/h
1030 10-09-2020 13:45:00 18.9 C 9.56 g/m*3 18.9 C 6.4 km/h
1031 10-09-2020 13:50:00 19 C 9.78 g/m*3 19 C 4.8 km/h
1032 10-09-2020 13:55:00 19.1 C 9.67 g/m*3 19.1 C 6.4 km/h
1033 10-09-2020 14:00:00 19.2 C 9.73 g/m*3 19.2 C 3.2 km/h
1034 10-09-2020 14:05:00 19.2 C 10.06 g/m*3 19.2 C 4.8 km/h
1035 10-09-2020 14:10:00 19.3 C 9.95 g/m*3 19.3 C 4.8 km/h
1036 10-09-2020 14:15:00 19.4 C 9.84 g/m*3 19.4 C 6.4 km/h
1037 10-09-2020 14:20:00 19.5 C 10.07 g/m*3 19.5 C 9.7 km/h
1038 10-09-2020 14:25:00 19.7 C 10.02 g/m*3 19.7 C 8.1 km/h
1039 10-09-2020 14:30:00 19.7 C 9.85 g/m*3 19.7 C 8.1 km/h
1040 10-09-2020 14:35:00 19.7 C 9.85 g/m*3 19.7 C 0 km/h
1041 10-09-2020 14:40:00 19.8 C 9.91 g/m*3 19.8 C 4.8 km/h
1042 10-09-2020 14:45:00 20 C 10.2 g/m*3 20 C 1.6 km/h
1043 10-09-2020 14:50:00 20.2 C 9.97 g/m*3 20.2 C 8.1 km/h
1044 10-09-2020 14:55:00 20.3 C 10.02 g/m*3 20.3 C 6.4 km/h
1045 10-09-2020 15:00:00 20.3 C 10.02 g/m*3 20.3 C 4.8 km/h
1046 10-09-2020 15:05:00 20.3 C 10.2 g/m*3 20.3 C 1.6 km/h
1047 10-09-2020 15:10:00 20.4 C 10.08 g/m*3 20.4 C 3.2 km/h
1048 10-09-2020 15:15:00 20.6 C 10.2 g/m*3 20.6 C 9.7 km/h
1049 10-09-2020 15:20:00 20.7 C 10.26 g/m*3 20.7 C 6.4 km/h
1050 10-09-2020 15:25:00 20.8 C 10.14 g/m*3 20.8 C 8.1 km/h
Sensor: Nr:Datum:Temp:Abs-Feuchte:Windchill:Wind:
Aussen-T/F 1051 10-09-2020 15:30:00 20.9 C 10.2 g/m*3 20.9 C 6.4 km/h
1052 10-09-2020 15:35:00 21 C 10.08 g/m*3 21 C 9.7 km/h
1053 10-09-2020 15:40:00 21.1 C 10.32 g/m*3 21.1 C 4.8 km/h
1054 10-09-2020 15:45:00 21.2 C 10.19 g/m*3 21.2 C 8.1 km/h
1055 10-09-2020 15:50:00 21.3 C 10.07 g/m*3 21.3 C 11.3 km/h
1056 10-09-2020 15:55:00 21.5 C 10.18 g/m*3 21.5 C 11.3 km/h
1057 10-09-2020 16:00:00 21.6 C 10.24 g/m*3 21.6 C 8.1 km/h
1058 10-09-2020 16:05:00 21.7 C 10.3 g/m*3 21.7 C 12.9 km/h
1059 10-09-2020 16:10:00 21.8 C 10.36 g/m*3 21.8 C 8.1 km/h
1060 10-09-2020 16:15:00 21.8 C 10.36 g/m*3 21.8 C 6.4 km/h
1061 10-09-2020 16:20:00 21.9 C 10.42 g/m*3 21.9 C 4.8 km/h
1062 10-09-2020 16:25:00 22.1 C 10.35 g/m*3 22.1 C 3.2 km/h
1063 10-09-2020 16:30:00 22.1 C 10.15 g/m*3 22.1 C 8.1 km/h
1064 10-09-2020 16:35:00 22.2 C 10.6 g/m*3 22.2 C 4.8 km/h
1065 10-09-2020 16:40:00 22.3 C 10.27 g/m*3 22.3 C 9.7 km/h
1066 10-09-2020 16:45:00 22.4 C 10.13 g/m*3 22.4 C 8.1 km/h
1067 10-09-2020 16:50:00 22.5 C 10.19 g/m*3 22.5 C 11.3 km/h
1068 10-09-2020 16:55:00 22.4 C 10.33 g/m*3 22.4 C 6.4 km/h
1069 10-09-2020 17:00:00 22.5 C 10.19 g/m*3 22.5 C 9.7 km/h
1070 10-09-2020 17:05:00 22.4 C 10.13 g/m*3 22.4 C 9.7 km/h
1071 10-09-2020 17:10:00 22.3 C 10.27 g/m*3 22.3 C 6.4 km/h
1072 10-09-2020 17:15:00 22.2 C 10.21 g/m*3 22.2 C 9.7 km/h
1073 10-09-2020 17:20:00 22.4 C 10.33 g/m*3 22.4 C 9.7 km/h
1074 10-09-2020 17:25:00 22.8 C 10.36 g/m*3 22.8 C 4.8 km/h
1075 10-09-2020 17:30:00 22.9 C 10.42 g/m*3 22.9 C 8.1 km/h
Sensor: Nr:Datum:Temp:Abs-Feuchte:Windchill:Wind:
Aussen-T/F 1076 10-09-2020 17:35:00 23 C 10.48 g/m*3 23 C 9.7 km/h
1077 10-09-2020 17:40:00 23.1 C 10.13 g/m*3 23.1 C 8.1 km/h
1078 10-09-2020 17:45:00 23 C 10.28 g/m*3 23 C 9.7 km/h
1079 10-09-2020 17:50:00 23.1 C 10.34 g/m*3 23.1 C 9.7 km/h
1080 10-09-2020 17:55:00 23.1 C 10.13 g/m*3 23.1 C 8.1 km/h
1081 10-09-2020 18:00:00 23.1 C 10.34 g/m*3 23.1 C 4.8 km/h
1082 10-09-2020 18:05:00 23.1 C 10.34 g/m*3 23.1 C 6.4 km/h
1083 10-09-2020 18:10:00 22.9 C 10.01 g/m*3 22.9 C 8.1 km/h
1084 10-09-2020 18:15:00 22.7 C 10.51 g/m*3 22.7 C 4.8 km/h
1085 10-09-2020 18:20:00 22.6 C 10.25 g/m*3 22.6 C 8.1 km/h
1086 10-09-2020 18:25:00 22.4 C 10.13 g/m*3 22.4 C 8.1 km/h
1087 10-09-2020 18:30:00 22.3 C 10.27 g/m*3 22.3 C 6.4 km/h
1088 10-09-2020 18:35:00 22.3 C 10.27 g/m*3 22.3 C 6.4 km/h
1089 10-09-2020 18:40:00 22.2 C 10.41 g/m*3 22.2 C 4.8 km/h
1090 10-09-2020 18:45:00 22.2 C 10.21 g/m*3 22.2 C 0 km/h
1091 10-09-2020 18:50:00 21.9 C 10.23 g/m*3 21.9 C 0 km/h
1092 10-09-2020 18:55:00 21.7 C 9.92 g/m*3 21.7 C 4.8 km/h
1093 10-09-2020 19:00:00 21.5 C 9.99 g/m*3 21.5 C 0 km/h
1094 10-09-2020 19:05:00 21.3 C 9.88 g/m*3 21.3 C 4.8 km/h
1095 10-09-2020 19:10:00 21.2 C 9.82 g/m*3 21.2 C 3.2 km/h
1096 10-09-2020 19:15:00 21.1 C 9.77 g/m*3 21.1 C 6.4 km/h
1097 10-09-2020 19:20:00 21 C 9.71 g/m*3 21 C 4.8 km/h
1098 10-09-2020 19:25:00 20.9 C 9.65 g/m*3 20.9 C 0 km/h
1099 10-09-2020 19:30:00 20.8 C 9.78 g/m*3 20.8 C 0 km/h
1100 10-09-2020 19:35:00 20.7 C 9.54 g/m*3 20.7 C 4.8 km/h
Sensor: Nr:Datum:Temp:Abs-Feuchte:Windchill:Wind:
Aussen-T/F 1101 10-09-2020 19:40:00 20.6 C 9.49 g/m*3 20.6 C 0 km/h
1102 10-09-2020 19:45:00 20.4 C 10.08 g/m*3 20.4 C 0 km/h
1103 10-09-2020 19:50:00 20.3 C 10.02 g/m*3 20.3 C 0 km/h
1104 10-09-2020 19:55:00 19.9 C 9.79 g/m*3 19.9 C 0 km/h
1105 10-09-2020 20:00:00 19.6 C 9.28 g/m*3 19.6 C 0 km/h
1106 10-09-2020 20:05:00 19.3 C 9.79 g/m*3 19.3 C 0 km/h
1107 10-09-2020 20:10:00 18.9 C 9.4 g/m*3 18.9 C 0 km/h
1108 10-09-2020 20:15:00 18.4 C 9.28 g/m*3 18.4 C 0 km/h
1109 10-09-2020 20:20:00 18 C 9.37 g/m*3 18 C 0 km/h
1110 10-09-2020 20:25:00 17.6 C 9.15 g/m*3 17.6 C 0 km/h
1111 10-09-2020 20:30:00 17.3 C 9.13 g/m*3 17.3 C 0 km/h
1112 10-09-2020 20:35:00 16.9 C 9.06 g/m*3 16.9 C 6.4 km/h
1113 10-09-2020 20:40:00 16.8 C 9.29 g/m*3 16.8 C 0 km/h
1114 10-09-2020 20:45:00 16.6 C 9.04 g/m*3 16.6 C 0 km/h
1115 10-09-2020 20:50:00 16.4 C 9.07 g/m*3 16.4 C 4.8 km/h
1116 10-09-2020 20:55:00 16.3 C 9.02 g/m*3 16.3 C 4.8 km/h
1117 10-09-2020 21:00:00 16.2 C 8.96 g/m*3 16.2 C 0 km/h
1118 10-09-2020 21:05:00 16 C 8.99 g/m*3 16 C 3.2 km/h
1119 10-09-2020 21:10:00 15.9 C 9.07 g/m*3 15.9 C 0 km/h
1120 10-09-2020 21:15:00 15.8 C 8.88 g/m*3 15.8 C 6.4 km/h
1121 10-09-2020 21:20:00 15.7 C 8.83 g/m*3 15.7 C 4.8 km/h
1122 10-09-2020 21:25:00 15.7 C 8.96 g/m*3 15.7 C 6.4 km/h
1123 10-09-2020 21:30:00 15.6 C 8.91 g/m*3 15.6 C 3.2 km/h
1124 10-09-2020 21:35:00 15.5 C 8.99 g/m*3 15.5 C 4.8 km/h
1125 10-09-2020 21:40:00 15.4 C 9.07 g/m*3 15.4 C 3.2 km/h
Sensor: Nr:Datum:Temp:Abs-Feuchte:Windchill:Wind:
Aussen-T/F 1126 10-09-2020 21:45:00 15.3 C 9.01 g/m*3 15.3 C 0 km/h
1127 10-09-2020 21:50:00 15.2 C 9.09 g/m*3 15.2 C 0 km/h
1128 10-09-2020 21:55:00 15 C 8.98 g/m*3 15 C 6.4 km/h
1129 10-09-2020 22:00:00 14.9 C 8.92 g/m*3 14.9 C 4.8 km/h
1130 10-09-2020 22:05:00 14.8 C 8.99 g/m*3 14.8 C 0 km/h
1131 10-09-2020 22:10:00 14.8 C 9.12 g/m*3 14.8 C 0 km/h
1132 10-09-2020 22:15:00 14.7 C 9.07 g/m*3 14.7 C 0 km/h
1133 10-09-2020 22:20:00 14.6 C 9.13 g/m*3 14.6 C 0 km/h
1134 10-09-2020 22:25:00 14.4 C 9.02 g/m*3 14.4 C 0 km/h
1135 10-09-2020 22:30:00 14.3 C 8.97 g/m*3 14.3 C 0 km/h
1136 10-09-2020 22:35:00 14.2 C 9.04 g/m*3 14.2 C 0 km/h
1137 10-09-2020 22:40:00 14.1 C 9.1 g/m*3 14.1 C 0 km/h
1138 10-09-2020 22:45:00 13.8 C 8.94 g/m*3 13.8 C 0 km/h
1139 10-09-2020 22:50:00 13.7 C 8.88 g/m*3 13.7 C 0 km/h
1140 10-09-2020 22:55:00 13.6 C 8.94 g/m*3 13.6 C 0 km/h
1141 10-09-2020 23:00:00 13.4 C 8.83 g/m*3 13.4 C 0 km/h
1142 10-09-2020 23:05:00 13.3 C 8.9 g/m*3 13.3 C 0 km/h
1143 10-09-2020 23:10:00 13.2 C 8.84 g/m*3 13.2 C 0 km/h
1144 10-09-2020 23:15:00 12.9 C 8.68 g/m*3 12.9 C 0 km/h
1145 10-09-2020 23:20:00 12.8 C 8.74 g/m*3 12.8 C 0 km/h
1146 10-09-2020 23:25:00 12.7 C 8.79 g/m*3 12.7 C 0 km/h
1147 10-09-2020 23:30:00 12.6 C 8.74 g/m*3 12.6 C 0 km/h
1148 10-09-2020 23:35:00 12.4 C 8.63 g/m*3 12.4 C 0 km/h
1149 10-09-2020 23:40:00 12.4 C 8.74 g/m*3 12.4 C 0 km/h
1150 10-09-2020 23:45:00 12.3 C 8.69 g/m*3 12.3 C 0 km/h
Sensor: Nr:Datum:Temp:Abs-Feuchte:Windchill:Wind:
Aussen-T/F 1151 10-09-2020 23:50:00 12.2 C 8.63 g/m*3 12.2 C 0 km/h
1152 10-09-2020 23:55:00 12.2 C 8.74 g/m*3 12.2 C 0 km/h
1153 11-09-2020 00:00:00 12.1 C 8.79 g/m*3 12.1 C 0 km/h
1154 11-09-2020 00:05:00 12.1 C 8.69 g/m*3 12.1 C 0 km/h
1155 11-09-2020 00:10:00 12 C 8.74 g/m*3 12 C 0 km/h
1156 11-09-2020 00:15:00 11.9 C 8.68 g/m*3 11.9 C 0 km/h
1157 11-09-2020 00:20:00 11.9 C 8.68 g/m*3 11.9 C 0 km/h
1158 11-09-2020 00:25:00 12 C 8.74 g/m*3 12 C 0 km/h
1159 11-09-2020 00:30:00 12.1 C 8.79 g/m*3 12.1 C 0 km/h
1160 11-09-2020 00:35:00 12.1 C 8.79 g/m*3 12.1 C 0 km/h
1161 11-09-2020 00:40:00 12.2 C 8.85 g/m*3 12.2 C 0 km/h
1162 11-09-2020 00:45:00 12.2 C 8.85 g/m*3 12.2 C 0 km/h
1163 11-09-2020 00:50:00 12.2 C 8.85 g/m*3 12.2 C 0 km/h
1164 11-09-2020 00:55:00 12.2 C 8.85 g/m*3 12.2 C 0 km/h
1165 11-09-2020 01:00:00 12.2 C 8.85 g/m*3 12.2 C 0 km/h
1166 11-09-2020 01:05:00 12.1 C 8.79 g/m*3 12.1 C 0 km/h
1167 11-09-2020 01:10:00 12 C 8.74 g/m*3 12 C 0 km/h
1168 11-09-2020 01:15:00 12 C 8.74 g/m*3 12 C 0 km/h
1169 11-09-2020 01:20:00 12 C 8.85 g/m*3 12 C 0 km/h
1170 11-09-2020 01:25:00 12.1 C 8.9 g/m*3 12.1 C 0 km/h
1171 11-09-2020 01:30:00 12 C 8.85 g/m*3 12 C 0 km/h
1172 11-09-2020 01:35:00 12 C 8.85 g/m*3 12 C 0 km/h
1173 11-09-2020 01:40:00 11.9 C 8.79 g/m*3 11.9 C 0 km/h
1174 11-09-2020 01:45:00 11.8 C 8.74 g/m*3 11.8 C 0 km/h
1175 11-09-2020 01:50:00 11.7 C 8.68 g/m*3 11.7 C 0 km/h
Sensor: Nr:Datum:Temp:Abs-Feuchte:Windchill:Wind:
Aussen-T/F 1176 11-09-2020 01:55:00 11.6 C 8.63 g/m*3 11.6 C 0 km/h
1177 11-09-2020 02:00:00 11.4 C 8.52 g/m*3 11.4 C 0 km/h
1178 11-09-2020 02:05:00 11.3 C 8.57 g/m*3 11.3 C 0 km/h
1179 11-09-2020 02:10:00 11.3 C 8.57 g/m*3 11.3 C 0 km/h
1180 11-09-2020 02:15:00 11.2 C 8.51 g/m*3 11.2 C 0 km/h
1181 11-09-2020 02:20:00 11.2 C 8.62 g/m*3 11.2 C 0 km/h
1182 11-09-2020 02:25:00 11.1 C 8.56 g/m*3 11.1 C 0 km/h
1183 11-09-2020 02:30:00 11.1 C 8.56 g/m*3 11.1 C 0 km/h
1184 11-09-2020 02:35:00 11 C 8.51 g/m*3 11 C 0 km/h
1185 11-09-2020 02:40:00 10.9 C 8.45 g/m*3 10.9 C 0 km/h
1186 11-09-2020 02:45:00 10.8 C 8.5 g/m*3 10.8 C 0 km/h
1187 11-09-2020 02:50:00 10.7 C 8.45 g/m*3 10.7 C 0 km/h
1188 11-09-2020 02:55:00 10.7 C 8.45 g/m*3 10.7 C 0 km/h
1189 11-09-2020 03:00:00 10.6 C 8.39 g/m*3 10.6 C 0 km/h
1190 11-09-2020 03:05:00 10.4 C 8.29 g/m*3 10.4 C 0 km/h
1191 11-09-2020 03:10:00 10.4 C 8.38 g/m*3 10.4 C 0 km/h
1192 11-09-2020 03:15:00 10.3 C 8.33 g/m*3 10.3 C 0 km/h
1193 11-09-2020 03:20:00 10.3 C 8.33 g/m*3 10.3 C 0 km/h
1194 11-09-2020 03:25:00 10.3 C 8.43 g/m*3 10.3 C 0 km/h
1195 11-09-2020 03:30:00 10.2 C 8.37 g/m*3 10.2 C 0 km/h
1196 11-09-2020 03:35:00 10.2 C 8.37 g/m*3 10.2 C 0 km/h
1197 11-09-2020 03:40:00 10.1 C 8.32 g/m*3 10.1 C 0 km/h
1198 11-09-2020 03:45:00 10.1 C 8.32 g/m*3 10.1 C 0 km/h
1199 11-09-2020 03:50:00 10 C 8.36 g/m*3 10 C 0 km/h
1200 11-09-2020 03:55:00 9.9 C 8.31 g/m*3 9.9 C 0 km/h
Sensor: Nr:Datum:Temp:Abs-Feuchte:Windchill:Wind:
Aussen-T/F 1201 11-09-2020 04:00:00 9.9 C 8.31 g/m*3 9.9 C 0 km/h
1202 11-09-2020 04:05:00 9.8 C 8.26 g/m*3 9.8 C 0 km/h
1203 11-09-2020 04:10:00 9.8 C 8.35 g/m*3 9.8 C 0 km/h
1204 11-09-2020 04:15:00 9.8 C 8.35 g/m*3 9.8 C 0 km/h
1205 11-09-2020 04:20:00 9.7 C 8.3 g/m*3 9.7 C 0 km/h
1206 11-09-2020 04:25:00 9.7 C 8.3 g/m*3 9.7 C 0 km/h
1207 11-09-2020 04:30:00 9.6 C 8.24 g/m*3 9.6 C 0 km/h
1208 11-09-2020 04:35:00 9.5 C 8.19 g/m*3 9.5 C 0 km/h
1209 11-09-2020 04:40:00 9.4 C 8.14 g/m*3 9.4 C 0 km/h
1210 11-09-2020 04:45:00 9.3 C 8.09 g/m*3 9.3 C 0 km/h
1211 11-09-2020 04:50:00 9.3 C 8.09 g/m*3 9.3 C 0 km/h
1212 11-09-2020 04:55:00 9.3 C 8.18 g/m*3 9.3 C 0 km/h
1213 11-09-2020 05:00:00 9.3 C 8.18 g/m*3 9.3 C 0 km/h
1214 11-09-2020 05:05:00 9.2 C 8.13 g/m*3 9.2 C 0 km/h
1215 11-09-2020 05:10:00 9.2 C 8.13 g/m*3 9.2 C 0 km/h
1216 11-09-2020 05:15:00 9.1 C 8.07 g/m*3 9.1 C 0 km/h
1217 11-09-2020 05:20:00 9 C 8.02 g/m*3 9 C 0 km/h
1218 11-09-2020 05:25:00 8.9 C 7.97 g/m*3 8.9 C 0 km/h
1219 11-09-2020 05:30:00 8.9 C 7.97 g/m*3 8.9 C 0 km/h
1220 11-09-2020 05:35:00 8.9 C 7.97 g/m*3 8.9 C 0 km/h
1221 11-09-2020 05:40:00 8.8 C 8.01 g/m*3 8.8 C 0 km/h
1222 11-09-2020 05:45:00 8.8 C 8.01 g/m*3 8.8 C 0 km/h
1223 11-09-2020 05:50:00 8.7 C 7.96 g/m*3 8.7 C 0 km/h
1224 11-09-2020 05:55:00 8.7 C 7.96 g/m*3 8.7 C 0 km/h
1225 11-09-2020 06:00:00 8.7 C 7.96 g/m*3 8.7 C 0 km/h
Sensor: Nr:Datum:Temp:Abs-Feuchte:Windchill:Wind:
Aussen-T/F 1226 11-09-2020 06:05:00 8.6 C 7.91 g/m*3 8.6 C 0 km/h
1227 11-09-2020 06:10:00 8.6 C 7.91 g/m*3 8.6 C 0 km/h
1228 11-09-2020 06:15:00 8.5 C 7.85 g/m*3 8.5 C 0 km/h
1229 11-09-2020 06:20:00 8.5 C 7.85 g/m*3 8.5 C 0 km/h
1230 11-09-2020 06:25:00 8.5 C 7.94 g/m*3 8.5 C 0 km/h
1231 11-09-2020 06:30:00 8.4 C 7.89 g/m*3 8.4 C 0 km/h
1232 11-09-2020 06:35:00 8.4 C 7.89 g/m*3 8.4 C 0 km/h
1233 11-09-2020 06:40:00 8.3 C 7.84 g/m*3 8.3 C 0 km/h
1234 11-09-2020 06:45:00 8.3 C 7.84 g/m*3 8.3 C 0 km/h
1235 11-09-2020 06:50:00 8.2 C 7.79 g/m*3 8.2 C 0 km/h
1236 11-09-2020 06:55:00 8.2 C 7.79 g/m*3 8.2 C 0 km/h
1237 11-09-2020 07:00:00 8.2 C 7.79 g/m*3 8.2 C 0 km/h
1238 11-09-2020 07:05:00 8.2 C 7.79 g/m*3 8.2 C 0 km/h
1239 11-09-2020 07:10:00 8.2 C 7.79 g/m*3 8.2 C 0 km/h
1240 11-09-2020 07:15:00 8.2 C 7.79 g/m*3 8.2 C 0 km/h
1241 11-09-2020 07:20:00 8.2 C 7.87 g/m*3 8.2 C 0 km/h
1242 11-09-2020 07:25:00 8.2 C 7.87 g/m*3 8.2 C 0 km/h
1243 11-09-2020 07:30:00 8.2 C 7.87 g/m*3 8.2 C 0 km/h
1244 11-09-2020 07:35:00 8.3 C 7.92 g/m*3 8.3 C 0 km/h
1245 11-09-2020 07:40:00 8.3 C 7.92 g/m*3 8.3 C 0 km/h
1246 11-09-2020 07:45:00 8.4 C 7.97 g/m*3 8.4 C 0 km/h
1247 11-09-2020 07:50:00 8.4 C 7.97 g/m*3 8.4 C 0 km/h
1248 11-09-2020 07:55:00 8.4 C 7.97 g/m*3 8.4 C 0 km/h
1249 11-09-2020 08:00:00 8.4 C 7.97 g/m*3 8.4 C 0 km/h
1250 11-09-2020 08:05:00 8.4 C 7.97 g/m*3 8.4 C 0 km/h
Sensor: Nr:Datum:Temp:Abs-Feuchte:Windchill:Wind:
Aussen-T/F 1251 11-09-2020 08:10:00 8.4 C 7.97 g/m*3 8.4 C 0 km/h
1252 11-09-2020 08:15:00 8.5 C 8.03 g/m*3 8.5 C 0 km/h
1253 11-09-2020 08:20:00 8.5 C 8.03 g/m*3 8.5 C 0 km/h
1254 11-09-2020 08:25:00 8.6 C 8.16 g/m*3 8.6 C 0 km/h
1255 11-09-2020 08:30:00 8.7 C 8.22 g/m*3 8.7 C 0 km/h
1256 11-09-2020 08:35:00 8.7 C 8.22 g/m*3 8.7 C 0 km/h
1257 11-09-2020 08:40:00 8.8 C 8.27 g/m*3 8.8 C 0 km/h
1258 11-09-2020 08:45:00 8.8 C 8.18 g/m*3 8.8 C 0 km/h
1259 11-09-2020 08:50:00 8.8 C 8.27 g/m*3 8.8 C 0 km/h
1260 11-09-2020 08:55:00 8.9 C 8.32 g/m*3 8.9 C 0 km/h
1261 11-09-2020 09:00:00 8.9 C 8.32 g/m*3 8.9 C 0 km/h
1262 11-09-2020 09:05:00 9.1 C 8.43 g/m*3 9.1 C 0 km/h
1263 11-09-2020 09:10:00 9.1 C 8.43 g/m*3 9.1 C 0 km/h
1264 11-09-2020 09:15:00 9.2 C 8.48 g/m*3 9.2 C 0 km/h
1265 11-09-2020 09:20:00 9.3 C 8.54 g/m*3 9.3 C 0 km/h
1266 11-09-2020 09:25:00 9.3 C 8.54 g/m*3 9.3 C 0 km/h
1267 11-09-2020 09:30:00 9.5 C 8.65 g/m*3 9.5 C 0 km/h
1268 11-09-2020 09:35:00 9.6 C 8.7 g/m*3 9.6 C 0 km/h
1269 11-09-2020 09:40:00 9.7 C 8.76 g/m*3 9.7 C 0 km/h
1270 11-09-2020 09:45:00 9.8 C 8.81 g/m*3 9.8 C 0 km/h
1271 11-09-2020 09:50:00 9.9 C 8.87 g/m*3 9.9 C 0 km/h
1272 11-09-2020 09:55:00 10.1 C 8.98 g/m*3 10.1 C 0 km/h
1273 11-09-2020 10:00:00 10.2 C 9.04 g/m*3 10.2 C 0 km/h
1274 11-09-2020 10:05:00 10.4 C 9.16 g/m*3 10.4 C 0 km/h
1275 11-09-2020 10:10:00 10.6 C 9.27 g/m*3 10.6 C 0 km/h
Sensor: Nr:Datum:Temp:Abs-Feuchte:Windchill:Wind:
Aussen-T/F 1276 11-09-2020 10:15:00 10.7 C 9.33 g/m*3 10.7 C 0 km/h
1277 11-09-2020 10:20:00 10.9 C 9.45 g/m*3 10.9 C 0 km/h
1278 11-09-2020 10:25:00 11.1 C 9.57 g/m*3 11.1 C 0 km/h
1279 11-09-2020 10:30:00 11.3 C 9.59 g/m*3 11.3 C 0 km/h
1280 11-09-2020 10:35:00 11.4 C 9.65 g/m*3 11.4 C 0 km/h
1281 11-09-2020 10:40:00 11.7 C 9.83 g/m*3 11.7 C 0 km/h
1282 11-09-2020 10:45:00 11.8 C 9.79 g/m*3 11.8 C 0 km/h
1283 11-09-2020 10:50:00 12.1 C 9.97 g/m*3 12.1 C 0 km/h
1284 11-09-2020 10:55:00 12.3 C 9.99 g/m*3 12.3 C 0 km/h
1285 11-09-2020 11:00:00 12.5 C 10.11 g/m*3 12.5 C 0 km/h
1286 11-09-2020 11:05:00 12.7 C 10.13 g/m*3 12.7 C 0 km/h
1287 11-09-2020 11:10:00 13 C 10.21 g/m*3 13 C 0 km/h
1288 11-09-2020 11:15:00 13.2 C 10.22 g/m*3 13.2 C 0 km/h
1289 11-09-2020 11:20:00 13.5 C 10.18 g/m*3 13.5 C 0 km/h
1290 11-09-2020 11:25:00 13.8 C 10.13 g/m*3 13.8 C 0 km/h
1291 11-09-2020 11:30:00 14.2 C 10.38 g/m*3 14.2 C 1.6 km/h
1292 11-09-2020 11:35:00 14.5 C 10.2 g/m*3 14.5 C 1.6 km/h
1293 11-09-2020 11:40:00 14.8 C 10.26 g/m*3 14.8 C 0 km/h
1294 11-09-2020 11:45:00 15.1 C 10.19 g/m*3 15.1 C 0 km/h
1295 11-09-2020 11:50:00 15.3 C 10.19 g/m*3 15.3 C 0 km/h
1296 11-09-2020 11:55:00 15.7 C 10.17 g/m*3 15.7 C 0 km/h
1297 11-09-2020 12:00:00 16 C 10.22 g/m*3 16 C 0 km/h
1298 11-09-2020 12:05:00 16.3 C 10.27 g/m*3 16.3 C 0 km/h
1299 11-09-2020 12:10:00 16.6 C 10.31 g/m*3 16.6 C 1.6 km/h
1300 11-09-2020 12:15:00 16.9 C 10.07 g/m*3 16.9 C 3.2 km/h
Sensor: Nr:Datum:Temp:Abs-Feuchte:Windchill:Wind:
Aussen-T/F 1301 11-09-2020 12:20:00 17.3 C 10.16 g/m*3 17.3 C 4.8 km/h
1302 11-09-2020 12:25:00 17.6 C 9.9 g/m*3 17.6 C 4.8 km/h
1303 11-09-2020 12:30:00 17.9 C 9.77 g/m*3 17.9 C 6.4 km/h
1304 11-09-2020 12:35:00 18.2 C 9.64 g/m*3 18.2 C 4.8 km/h
1305 11-09-2020 12:40:00 18.3 C 9.85 g/m*3 18.3 C 4.8 km/h
1306 11-09-2020 12:45:00 18.6 C 9.87 g/m*3 18.6 C 1.6 km/h
1307 11-09-2020 12:50:00 18.7 C 9.61 g/m*3 18.7 C 3.2 km/h
1308 11-09-2020 12:55:00 18.8 C 9.66 g/m*3 18.8 C 0 km/h
1309 11-09-2020 13:00:00 19.1 C 9.67 g/m*3 19.1 C 4.8 km/h
1310 11-09-2020 13:05:00 19.2 C 9.4 g/m*3 19.2 C 0 km/h
1311 11-09-2020 13:10:00 19.4 C 9.51 g/m*3 19.4 C 4.8 km/h
1312 11-09-2020 13:15:00 19.6 C 9.45 g/m*3 19.6 C 6.4 km/h
1313 11-09-2020 13:20:00 19.7 C 9.85 g/m*3 19.7 C 6.4 km/h
1314 11-09-2020 13:25:00 19.9 C 9.79 g/m*3 19.9 C 8.1 km/h
1315 11-09-2020 13:30:00 20 C 9.68 g/m*3 20 C 1.6 km/h
1316 11-09-2020 13:35:00 20.1 C 9.91 g/m*3 20.1 C 4.8 km/h
1317 11-09-2020 13:40:00 20.2 C 9.79 g/m*3 20.2 C 3.2 km/h
1318 11-09-2020 13:45:00 20.3 C 9.85 g/m*3 20.3 C 6.4 km/h
1319 11-09-2020 13:50:00 20.4 C 9.73 g/m*3 20.4 C 9.7 km/h
1320 11-09-2020 13:55:00 20.5 C 9.79 g/m*3 20.5 C 8.1 km/h
1321 11-09-2020 14:00:00 20.6 C 9.84 g/m*3 20.6 C 4.8 km/h
1322 11-09-2020 14:05:00 20.7 C 9.9 g/m*3 20.7 C 9.7 km/h
1323 11-09-2020 14:10:00 20.7 C 9.72 g/m*3 20.7 C 6.4 km/h
1324 11-09-2020 14:15:00 20.8 C 9.96 g/m*3 20.8 C 4.8 km/h
1325 11-09-2020 14:20:00 20.9 C 10.02 g/m*3 20.9 C 4.8 km/h
Sensor: Nr:Datum:Temp:Abs-Feuchte:Windchill:Wind:
Aussen-T/F 1326 11-09-2020 14:25:00 21.1 C 9.95 g/m*3 21.1 C 0 km/h
1327 11-09-2020 14:30:00 21.2 C 10.19 g/m*3 21.2 C 8.1 km/h
1328 11-09-2020 14:35:00 21.3 C 10.07 g/m*3 21.3 C 4.8 km/h
1329 11-09-2020 14:40:00 21.4 C 10.12 g/m*3 21.4 C 3.2 km/h
1330 11-09-2020 14:45:00 21.6 C 10.24 g/m*3 21.6 C 1.6 km/h
1331 11-09-2020 14:50:00 21.7 C 10.49 g/m*3 21.7 C 4.8 km/h
1332 11-09-2020 14:55:00 21.8 C 10.17 g/m*3 21.8 C 8.1 km/h
1333 11-09-2020 15:00:00 21.8 C 10.17 g/m*3 21.8 C 1.6 km/h
1334 11-09-2020 15:05:00 21.9 C 10.42 g/m*3 21.9 C 3.2 km/h
1335 11-09-2020 15:10:00 22.1 C 10.35 g/m*3 22.1 C 8.1 km/h
1336 11-09-2020 15:15:00 22.2 C 10.41 g/m*3 22.2 C 3.2 km/h
1337 11-09-2020 15:20:00 22.3 C 10.47 g/m*3 22.3 C 8.1 km/h
1338 11-09-2020 15:25:00 22.4 C 10.33 g/m*3 22.4 C 8.1 km/h
1339 11-09-2020 15:30:00 22.5 C 10.39 g/m*3 22.5 C 6.4 km/h
1340 11-09-2020 15:35:00 22.7 C 10.51 g/m*3 22.7 C 8.1 km/h
1341 11-09-2020 15:40:00 22.7 C 10.3 g/m*3 22.7 C 8.1 km/h
1342 11-09-2020 15:45:00 22.8 C 10.36 g/m*3 22.8 C 6.4 km/h
1343 11-09-2020 15:50:00 22.9 C 10.63 g/m*3 22.9 C 8.1 km/h
1344 11-09-2020 15:55:00 23 C 10.48 g/m*3 23 C 8.1 km/h
1345 11-09-2020 16:00:00 23.1 C 10.54 g/m*3 23.1 C 9.7 km/h
1346 11-09-2020 16:05:00 23.2 C 10.6 g/m*3 23.2 C 3.2 km/h
1347 11-09-2020 16:10:00 23.3 C 10.66 g/m*3 23.3 C 6.4 km/h
1348 11-09-2020 16:15:00 23.3 C 10.45 g/m*3 23.3 C 9.7 km/h
1349 11-09-2020 16:20:00 23.4 C 10.51 g/m*3 23.4 C 9.7 km/h
1350 11-09-2020 16:25:00 23.5 C 10.57 g/m*3 23.5 C 8.1 km/h
Sensor: Nr:Datum:Temp:Abs-Feuchte:Windchill:Wind:
Aussen-T/F 1351 11-09-2020 16:30:00 23.6 C 10.42 g/m*3 23.6 C 9.7 km/h
1352 11-09-2020 16:35:00 23.7 C 10.69 g/m*3 23.7 C 8.1 km/h
1353 11-09-2020 16:40:00 23.8 C 10.76 g/m*3 23.8 C 6.4 km/h
1354 11-09-2020 16:45:00 23.9 C 10.6 g/m*3 23.9 C 12.9 km/h
1355 11-09-2020 16:50:00 24.1 C 10.5 g/m*3 24.1 C 12.9 km/h
1356 11-09-2020 16:55:00 24.1 C 10.72 g/m*3 24.1 C 6.4 km/h
1357 11-09-2020 17:00:00 24.1 C 10.72 g/m*3 24.1 C 9.7 km/h
1358 11-09-2020 17:05:00 24.2 C 10.78 g/m*3 24.2 C 6.4 km/h
1359 11-09-2020 17:10:00 24.4 C 10.68 g/m*3 24.4 C 6.4 km/h
1360 11-09-2020 17:15:00 24.5 C 10.74 g/m*3 24.5 C 12.9 km/h
1361 11-09-2020 17:20:00 24.4 C 10.68 g/m*3 24.4 C 8.1 km/h
1362 11-09-2020 17:25:00 24.6 C 11.25 g/m*3 24.6 C 6.4 km/h
1363 11-09-2020 17:30:00 24.6 C 10.8 g/m*3 24.6 C 8.1 km/h
1364 11-09-2020 17:35:00 24.7 C 11.09 g/m*3 24.7 C 6.4 km/h
1365 11-09-2020 17:40:00 24.8 C 10.47 g/m*3 24.8 C 0 km/h
1366 11-09-2020 17:45:00 25 C 10.82 g/m*3 25 C 0 km/h
1367 11-09-2020 17:50:00 25 C 10.59 g/m*3 25 C 6.4 km/h
1368 11-09-2020 17:55:00 24.9 C 10.99 g/m*3 24.9 C 6.4 km/h
1369 11-09-2020 18:00:00 24.9 C 10.76 g/m*3 24.9 C 6.4 km/h
1370 11-09-2020 18:05:00 24.8 C 10.47 g/m*3 24.8 C 8.1 km/h
1371 11-09-2020 18:10:00 24.6 C 10.58 g/m*3 24.6 C 6.4 km/h
1372 11-09-2020 18:15:00 24.5 C 10.52 g/m*3 24.5 C 3.2 km/h
1373 11-09-2020 18:20:00 24.5 C 10.74 g/m*3 24.5 C 4.8 km/h
1374 11-09-2020 18:25:00 24.4 C 10.68 g/m*3 24.4 C 4.8 km/h
1375 11-09-2020 18:30:00 24.4 C 11.35 g/m*3 24.4 C 3.2 km/h
Sensor: Nr:Datum:Temp:Abs-Feuchte:Windchill:Wind:
Aussen-T/F 1376 11-09-2020 18:35:00 24.4 C 12.02 g/m*3 24.4 C 0 km/h
1377 11-09-2020 18:40:00 24.3 C 11.95 g/m*3 24.3 C 0 km/h
1378 11-09-2020 18:45:00 24.1 C 12.03 g/m*3 24.1 C 0 km/h
1379 11-09-2020 18:50:00 23.9 C 12.11 g/m*3 23.9 C 0 km/h
1380 11-09-2020 18:55:00 23.6 C 11.91 g/m*3 23.6 C 0 km/h
1381 11-09-2020 19:00:00 23.3 C 11.92 g/m*3 23.3 C 0 km/h
1382 11-09-2020 19:05:00 23 C 11.72 g/m*3 23 C 0 km/h
1383 11-09-2020 19:10:00 22.7 C 11.72 g/m*3 22.7 C 0 km/h
1384 11-09-2020 19:15:00 22.3 C 11.65 g/m*3 22.3 C 4.8 km/h
1385 11-09-2020 19:20:00 21.9 C 11.58 g/m*3 21.9 C 4.8 km/h
1386 11-09-2020 19:25:00 21.6 C 11.38 g/m*3 21.6 C 3.2 km/h
1387 11-09-2020 19:30:00 21.2 C 11.12 g/m*3 21.2 C 0 km/h
1388 11-09-2020 19:35:00 20.8 C 11.05 g/m*3 20.8 C 0 km/h
1389 11-09-2020 19:40:00 20.5 C 10.85 g/m*3 20.5 C 0 km/h
1390 11-09-2020 19:45:00 20.2 C 11.02 g/m*3 20.2 C 6.4 km/h
1391 11-09-2020 19:50:00 19.9 C 10.82 g/m*3 19.9 C 8.1 km/h
1392 11-09-2020 19:55:00 19.7 C 10.87 g/m*3 19.7 C 6.4 km/h
1393 11-09-2020 20:00:00 19.4 C 10.68 g/m*3 19.4 C 3.2 km/h
1394 11-09-2020 20:05:00 19.2 C 10.72 g/m*3 19.2 C 0 km/h
1395 11-09-2020 20:10:00 19 C 10.59 g/m*3 19 C 4.8 km/h
1396 11-09-2020 20:15:00 18.8 C 10.63 g/m*3 18.8 C 6.4 km/h
1397 11-09-2020 20:20:00 18.7 C 10.73 g/m*3 18.7 C 4.8 km/h
1398 11-09-2020 20:25:00 18.5 C 10.76 g/m*3 18.5 C 4.8 km/h
1399 11-09-2020 20:30:00 18.2 C 10.72 g/m*3 18.2 C 4.8 km/h
1400 11-09-2020 20:35:00 17.9 C 10.54 g/m*3 17.9 C 1.6 km/h
Sensor: Nr:Datum:Temp:Abs-Feuchte:Windchill:Wind:
Aussen-T/F 1401 11-09-2020 20:40:00 17.8 C 10.62 g/m*3 17.8 C 0 km/h
1402 11-09-2020 20:45:00 17.6 C 10.65 g/m*3 17.6 C 6.4 km/h
1403 11-09-2020 20:50:00 17.3 C 10.46 g/m*3 17.3 C 6.4 km/h
1404 11-09-2020 20:55:00 17.2 C 10.54 g/m*3 17.2 C 6.4 km/h
1405 11-09-2020 21:00:00 17.1 C 10.48 g/m*3 17.1 C 6.4 km/h
1406 11-09-2020 21:05:00 17.1 C 10.63 g/m*3 17.1 C 0 km/h
1407 11-09-2020 21:10:00 16.9 C 10.5 g/m*3 16.9 C 0 km/h
1408 11-09-2020 21:15:00 16.8 C 10.58 g/m*3 16.8 C 0 km/h
1409 11-09-2020 21:20:00 16.6 C 10.59 g/m*3 16.6 C 0 km/h
1410 11-09-2020 21:25:00 16.4 C 10.47 g/m*3 16.4 C 0 km/h
1411 11-09-2020 21:30:00 16.3 C 10.54 g/m*3 16.3 C 0 km/h
1412 11-09-2020 21:35:00 16.1 C 10.42 g/m*3 16.1 C 0 km/h
1413 11-09-2020 21:40:00 15.9 C 10.29 g/m*3 15.9 C 0 km/h
1414 11-09-2020 21:45:00 15.8 C 10.36 g/m*3 15.8 C 0 km/h
1415 11-09-2020 21:50:00 15.7 C 10.3 g/m*3 15.7 C 0 km/h
1416 11-09-2020 21:55:00 15.6 C 10.37 g/m*3 15.6 C 0 km/h
1417 11-09-2020 22:00:00 15.4 C 10.25 g/m*3 15.4 C 0 km/h
1418 11-09-2020 22:05:00 15.3 C 10.32 g/m*3 15.3 C 0 km/h
1419 11-09-2020 22:10:00 15.3 C 10.32 g/m*3 15.3 C 0 km/h
1420 11-09-2020 22:15:00 15.2 C 10.25 g/m*3 15.2 C 0 km/h
1421 11-09-2020 22:20:00 15.1 C 10.19 g/m*3 15.1 C 0 km/h
1422 11-09-2020 22:25:00 15.1 C 10.32 g/m*3 15.1 C 0 km/h
1423 11-09-2020 22:30:00 15.1 C 10.32 g/m*3 15.1 C 0 km/h
1424 11-09-2020 22:35:00 15 C 10.26 g/m*3 15 C 0 km/h
1425 11-09-2020 22:40:00 14.9 C 10.32 g/m*3 14.9 C 0 km/h
Sensor: Nr:Datum:Temp:Abs-Feuchte:Windchill:Wind:
Aussen-T/F 1426 11-09-2020 22:45:00 14.8 C 10.26 g/m*3 14.8 C 0 km/h
1427 11-09-2020 22:50:00 14.7 C 10.2 g/m*3 14.7 C 0 km/h
1428 11-09-2020 22:55:00 14.6 C 10.26 g/m*3 14.6 C 0 km/h
1429 11-09-2020 23:00:00 14.4 C 10.26 g/m*3 14.4 C 0 km/h
1430 11-09-2020 23:05:00 14.3 C 10.2 g/m*3 14.3 C 0 km/h
1431 11-09-2020 23:10:00 14.3 C 10.2 g/m*3 14.3 C 0 km/h
1432 11-09-2020 23:15:00 14.2 C 10.14 g/m*3 14.2 C 0 km/h
1433 11-09-2020 23:20:00 14.1 C 10.07 g/m*3 14.1 C 0 km/h
1434 11-09-2020 23:25:00 14 C 10.13 g/m*3 14 C 0 km/h
1435 11-09-2020 23:30:00 13.9 C 10.07 g/m*3 13.9 C 0 km/h
1436 11-09-2020 23:35:00 13.8 C 10.01 g/m*3 13.8 C 0 km/h
1437 11-09-2020 23:40:00 13.7 C 9.95 g/m*3 13.7 C 0 km/h
1438 11-09-2020 23:45:00 13.6 C 10 g/m*3 13.6 C 0 km/h
1439 11-09-2020 23:50:00 13.5 C 9.94 g/m*3 13.5 C 0 km/h
1440 11-09-2020 23:55:00 13.4 C 9.88 g/m*3 13.4 C 0 km/h
1441 12-09-2020 00:00:00 13.4 C 9.88 g/m*3 13.4 C 0 km/h
1442 12-09-2020 00:05:00 13.3 C 9.94 g/m*3 13.3 C 0 km/h
1443 12-09-2020 00:10:00 13.3 C 9.94 g/m*3 13.3 C 0 km/h
1444 12-09-2020 00:15:00 13.2 C 9.87 g/m*3 13.2 C 0 km/h
1445 12-09-2020 00:20:00 13.2 C 9.87 g/m*3 13.2 C 0 km/h
1446 12-09-2020 00:25:00 13.1 C 9.81 g/m*3 13.1 C 0 km/h
1447 12-09-2020 00:30:00 13 C 9.87 g/m*3 13 C 0 km/h
1448 12-09-2020 00:35:00 12.9 C 9.81 g/m*3 12.9 C 0 km/h
1449 12-09-2020 00:40:00 12.8 C 9.74 g/m*3 12.8 C 0 km/h
1450 12-09-2020 00:45:00 12.8 C 9.74 g/m*3 12.8 C 0 km/h
Sensor: Nr:Datum:Temp:Abs-Feuchte:Windchill:Wind:
Aussen-T/F 1451 12-09-2020 00:50:00 12.8 C 9.86 g/m*3 12.8 C 0 km/h
1452 12-09-2020 00:55:00 12.8 C 9.86 g/m*3 12.8 C 0 km/h
1453 12-09-2020 01:00:00 12.8 C 9.86 g/m*3 12.8 C 0 km/h
1454 12-09-2020 01:05:00 12.7 C 9.8 g/m*3 12.7 C 0 km/h
1455 12-09-2020 01:10:00 12.7 C 9.8 g/m*3 12.7 C 0 km/h
1456 12-09-2020 01:15:00 12.6 C 9.74 g/m*3 12.6 C 0 km/h
1457 12-09-2020 01:20:00 12.6 C 9.74 g/m*3 12.6 C 0 km/h
1458 12-09-2020 01:25:00 12.6 C 9.74 g/m*3 12.6 C 0 km/h
1459 12-09-2020 01:30:00 12.6 C 9.74 g/m*3 12.6 C 0 km/h
1460 12-09-2020 01:35:00 12.4 C 9.62 g/m*3 12.4 C 0 km/h
1461 12-09-2020 01:40:00 12.4 C 9.62 g/m*3 12.4 C 0 km/h
1462 12-09-2020 01:45:00 12.3 C 9.56 g/m*3 12.3 C 0 km/h
1463 12-09-2020 01:50:00 12.3 C 9.66 g/m*3 12.3 C 0 km/h
1464 12-09-2020 01:55:00 12.3 C 9.66 g/m*3 12.3 C 0 km/h
1465 12-09-2020 02:00:00 12.2 C 9.6 g/m*3 12.2 C 0 km/h
1466 12-09-2020 02:05:00 12.2 C 9.6 g/m*3 12.2 C 0 km/h
1467 12-09-2020 02:10:00 12.1 C 9.54 g/m*3 12.1 C 0 km/h
1468 12-09-2020 02:15:00 12.1 C 9.54 g/m*3 12.1 C 0 km/h
1469 12-09-2020 02:20:00 12.1 C 9.54 g/m*3 12.1 C 0 km/h
1470 12-09-2020 02:25:00 12 C 9.59 g/m*3 12 C 0 km/h
1471 12-09-2020 02:30:00 11.9 C 9.53 g/m*3 11.9 C 0 km/h
1472 12-09-2020 02:35:00 11.9 C 9.53 g/m*3 11.9 C 0 km/h
1473 12-09-2020 02:40:00 11.8 C 9.47 g/m*3 11.8 C 0 km/h
1474 12-09-2020 02:45:00 11.8 C 9.47 g/m*3 11.8 C 0 km/h
1475 12-09-2020 02:50:00 11.8 C 9.47 g/m*3 11.8 C 0 km/h
Sensor: Nr:Datum:Temp:Abs-Feuchte:Windchill:Wind:
Aussen-T/F 1476 12-09-2020 02:55:00 11.8 C 9.47 g/m*3 11.8 C 0 km/h
1477 12-09-2020 03:00:00 11.7 C 9.41 g/m*3 11.7 C 0 km/h
1478 12-09-2020 03:05:00 11.7 C 9.41 g/m*3 11.7 C 0 km/h
1479 12-09-2020 03:10:00 11.6 C 9.35 g/m*3 11.6 C 0 km/h
1480 12-09-2020 03:15:00 11.6 C 9.35 g/m*3 11.6 C 0 km/h
1481 12-09-2020 03:20:00 11.5 C 9.4 g/m*3 11.5 C 0 km/h
1482 12-09-2020 03:25:00 11.4 C 9.34 g/m*3 11.4 C 0 km/h
1483 12-09-2020 03:30:00 11.4 C 9.34 g/m*3 11.4 C 0 km/h
1484 12-09-2020 03:35:00 11.4 C 9.34 g/m*3 11.4 C 0 km/h
1485 12-09-2020 03:40:00 11.4 C 9.34 g/m*3 11.4 C 0 km/h
1486 12-09-2020 03:45:00 11.4 C 9.34 g/m*3 11.4 C 0 km/h
1487 12-09-2020 03:50:00 11.3 C 9.28 g/m*3 11.3 C 0 km/h
1488 12-09-2020 03:55:00 11.3 C 9.28 g/m*3 11.3 C 0 km/h
1489 12-09-2020 04:00:00 11.2 C 9.22 g/m*3 11.2 C 0 km/h
1490 12-09-2020 04:05:00 11.2 C 9.33 g/m*3 11.2 C 0 km/h
1491 12-09-2020 04:10:00 11.1 C 9.17 g/m*3 11.1 C 0 km/h
1492 12-09-2020 04:15:00 11.1 C 9.17 g/m*3 11.1 C 0 km/h
1493 12-09-2020 04:20:00 11 C 9.21 g/m*3 11 C 0 km/h
1494 12-09-2020 04:25:00 10.9 C 9.15 g/m*3 10.9 C 0 km/h
1495 12-09-2020 04:30:00 10.9 C 9.15 g/m*3 10.9 C 0 km/h
1496 12-09-2020 04:35:00 10.9 C 9.15 g/m*3 10.9 C 0 km/h
1497 12-09-2020 04:40:00 10.9 C 9.15 g/m*3 10.9 C 0 km/h
1498 12-09-2020 04:45:00 10.9 C 9.15 g/m*3 10.9 C 0 km/h
1499 12-09-2020 04:50:00 10.8 C 9.09 g/m*3 10.8 C 0 km/h
1500 12-09-2020 04:55:00 10.8 C 9.09 g/m*3 10.8 C 0 km/h
Sensor: Nr:Datum:Temp:Abs-Feuchte:Windchill:Wind:
Aussen-T/F 1501 12-09-2020 05:00:00 10.8 C 9.09 g/m*3 10.8 C 0 km/h
1502 12-09-2020 05:05:00 10.8 C 9.19 g/m*3 10.8 C 0 km/h
1503 12-09-2020 05:10:00 10.7 C 9.13 g/m*3 10.7 C 0 km/h
1504 12-09-2020 05:15:00 10.6 C 9.08 g/m*3 10.6 C 0 km/h
1505 12-09-2020 05:20:00 10.6 C 9.08 g/m*3 10.6 C 0 km/h
1506 12-09-2020 05:25:00 10.5 C 9.02 g/m*3 10.5 C 0 km/h
1507 12-09-2020 05:30:00 10.5 C 9.02 g/m*3 10.5 C 0 km/h
1508 12-09-2020 05:35:00 10.4 C 8.96 g/m*3 10.4 C 0 km/h
1509 12-09-2020 05:40:00 10.4 C 8.96 g/m*3 10.4 C 0 km/h
1510 12-09-2020 05:45:00 10.4 C 8.96 g/m*3 10.4 C 0 km/h
1511 12-09-2020 05:50:00 10.3 C 8.91 g/m*3 10.3 C 0 km/h
1512 12-09-2020 05:55:00 10.3 C 8.91 g/m*3 10.3 C 0 km/h
1513 12-09-2020 06:00:00 10.3 C 8.91 g/m*3 10.3 C 0 km/h
1514 12-09-2020 06:05:00 10.3 C 8.91 g/m*3 10.3 C 0 km/h
1515 12-09-2020 06:10:00 10.3 C 8.91 g/m*3 10.3 C 0 km/h
1516 12-09-2020 06:15:00 10.3 C 8.91 g/m*3 10.3 C 0 km/h
1517 12-09-2020 06:20:00 10.2 C 8.85 g/m*3 10.2 C 0 km/h
1518 12-09-2020 06:25:00 10.2 C 8.85 g/m*3 10.2 C 0 km/h
1519 12-09-2020 06:30:00 10.2 C 8.95 g/m*3 10.2 C 0 km/h
1520 12-09-2020 06:35:00 10.2 C 8.95 g/m*3 10.2 C 0 km/h
1521 12-09-2020 06:40:00 10.1 C 8.79 g/m*3 10.1 C 0 km/h
1522 12-09-2020 06:45:00 10.2 C 8.95 g/m*3 10.2 C 0 km/h
1523 12-09-2020 06:50:00 10.2 C 8.95 g/m*3 10.2 C 0 km/h
1524 12-09-2020 06:55:00 10.2 C 8.95 g/m*3 10.2 C 0 km/h
1525 12-09-2020 07:00:00 10.2 C 8.95 g/m*3 10.2 C 0 km/h
Sensor: Nr:Datum:Temp:Abs-Feuchte:Windchill:Wind:
Aussen-T/F 1526 12-09-2020 07:05:00 10.2 C 8.95 g/m*3 10.2 C 0 km/h
1527 12-09-2020 07:10:00 10.1 C 8.89 g/m*3 10.1 C 0 km/h
1528 12-09-2020 07:15:00 10.1 C 8.89 g/m*3 10.1 C 0 km/h
1529 12-09-2020 07:20:00 10 C 8.83 g/m*3 10 C 0 km/h
1530 12-09-2020 07:25:00 10.1 C 8.89 g/m*3 10.1 C 0 km/h
1531 12-09-2020 07:30:00 10.1 C 8.89 g/m*3 10.1 C 0 km/h
1532 12-09-2020 07:35:00 10.2 C 8.95 g/m*3 10.2 C 0 km/h
1533 12-09-2020 07:40:00 10.2 C 8.95 g/m*3 10.2 C 0 km/h
1534 12-09-2020 07:45:00 10.2 C 8.95 g/m*3 10.2 C 0 km/h
1535 12-09-2020 07:50:00 10.3 C 9.1 g/m*3 10.3 C 0 km/h
1536 12-09-2020 07:55:00 10.3 C 9.1 g/m*3 10.3 C 0 km/h
1537 12-09-2020 08:00:00 10.3 C 9.1 g/m*3 10.3 C 0 km/h
1538 12-09-2020 08:05:00 10.4 C 9.16 g/m*3 10.4 C 0 km/h
1539 12-09-2020 08:10:00 10.4 C 9.16 g/m*3 10.4 C 0 km/h
1540 12-09-2020 08:15:00 10.6 C 9.27 g/m*3 10.6 C 0 km/h
1541 12-09-2020 08:20:00 10.7 C 9.33 g/m*3 10.7 C 0 km/h
1542 12-09-2020 08:25:00 10.8 C 9.39 g/m*3 10.8 C 0 km/h
1543 12-09-2020 08:30:00 10.9 C 9.45 g/m*3 10.9 C 0 km/h
1544 12-09-2020 08:35:00 11.1 C 9.57 g/m*3 11.1 C 0 km/h
1545 12-09-2020 08:40:00 11.2 C 9.73 g/m*3 11.2 C 0 km/h
1546 12-09-2020 08:45:00 11.3 C 9.69 g/m*3 11.3 C 0 km/h
1547 12-09-2020 08:50:00 11.5 C 9.81 g/m*3 11.5 C 0 km/h
1548 12-09-2020 08:55:00 11.6 C 9.87 g/m*3 11.6 C 0 km/h
1549 12-09-2020 09:00:00 11.7 C 9.94 g/m*3 11.7 C 0 km/h
1550 12-09-2020 09:05:00 11.9 C 10.06 g/m*3 11.9 C 0 km/h
Sensor: Nr:Datum:Temp:Abs-Feuchte:Windchill:Wind:
Aussen-T/F 1551 12-09-2020 09:10:00 12.1 C 10.19 g/m*3 12.1 C 1.6 km/h
1552 12-09-2020 09:15:00 12.3 C 10.32 g/m*3 12.3 C 0 km/h
1553 12-09-2020 09:20:00 12.4 C 10.27 g/m*3 12.4 C 0 km/h
1554 12-09-2020 09:25:00 12.6 C 10.4 g/m*3 12.6 C 0 km/h
1555 12-09-2020 09:30:00 12.7 C 10.35 g/m*3 12.7 C 0 km/h
1556 12-09-2020 09:35:00 12.8 C 10.42 g/m*3 12.8 C 0 km/h
1557 12-09-2020 09:40:00 12.9 C 10.48 g/m*3 12.9 C 0 km/h
1558 12-09-2020 09:45:00 13.2 C 10.68 g/m*3 13.2 C 0 km/h
1559 12-09-2020 09:50:00 13.3 C 10.51 g/m*3 13.3 C 1.6 km/h
1560 12-09-2020 09:55:00 13.6 C 10.71 g/m*3 13.6 C 0 km/h
1561 12-09-2020 10:00:00 13.7 C 10.66 g/m*3 13.7 C 0 km/h
1562 12-09-2020 10:05:00 13.8 C 10.6 g/m*3 13.8 C 0 km/h
1563 12-09-2020 10:10:00 14 C 10.74 g/m*3 14 C 0 km/h
1564 12-09-2020 10:15:00 14.2 C 10.75 g/m*3 14.2 C 0 km/h
1565 12-09-2020 10:20:00 14.3 C 10.81 g/m*3 14.3 C 0 km/h
1566 12-09-2020 10:25:00 14.5 C 10.94 g/m*3 14.5 C 0 km/h
1567 12-09-2020 10:30:00 14.7 C 10.95 g/m*3 14.7 C 0 km/h
1568 12-09-2020 10:35:00 14.8 C 10.89 g/m*3 14.8 C 0 km/h
1569 12-09-2020 10:40:00 15.1 C 11.09 g/m*3 15.1 C 0 km/h
1570 12-09-2020 10:45:00 15.4 C 11.3 g/m*3 15.4 C 0 km/h
1571 12-09-2020 10:50:00 15.7 C 11.24 g/m*3 15.7 C 0 km/h
1572 12-09-2020 10:55:00 15.9 C 11.24 g/m*3 15.9 C 1.6 km/h
1573 12-09-2020 11:00:00 16.2 C 11.31 g/m*3 16.2 C 0 km/h
1574 12-09-2020 11:05:00 16.4 C 11.31 g/m*3 16.4 C 0 km/h
1575 12-09-2020 11:10:00 16.7 C 11.37 g/m*3 16.7 C 0 km/h
Sensor: Nr:Datum:Temp:Abs-Feuchte:Windchill:Wind:
Aussen-T/F 1576 12-09-2020 11:15:00 16.8 C 11.44 g/m*3 16.8 C 0 km/h
1577 12-09-2020 11:20:00 17.1 C 11.79 g/m*3 17.1 C 0 km/h
1578 12-09-2020 11:25:00 17.3 C 11.93 g/m*3 17.3 C 0 km/h
1579 12-09-2020 11:30:00 17.3 C 11.64 g/m*3 17.3 C 0 km/h
1580 12-09-2020 11:35:00 17.5 C 11.78 g/m*3 17.5 C 0 km/h
1581 12-09-2020 11:40:00 17.7 C 12.07 g/m*3 17.7 C 0 km/h
1582 12-09-2020 11:45:00 17.8 C 11.99 g/m*3 17.8 C 0 km/h
1583 12-09-2020 11:50:00 18 C 12.13 g/m*3 18 C 0 km/h
1584 12-09-2020 11:55:00 18.2 C 11.81 g/m*3 18.2 C 0 km/h
1585 12-09-2020 12:00:00 18.4 C 12.11 g/m*3 18.4 C 0 km/h
1586 12-09-2020 12:05:00 18.7 C 12.33 g/m*3 18.7 C 0 km/h
1587 12-09-2020 12:10:00 18.9 C 12.15 g/m*3 18.9 C 0 km/h
1588 12-09-2020 12:15:00 19.2 C 12.37 g/m*3 19.2 C 3.2 km/h
1589 12-09-2020 12:20:00 19.5 C 12.25 g/m*3 19.5 C 3.2 km/h
1590 12-09-2020 12:25:00 19.8 C 12.13 g/m*3 19.8 C 3.2 km/h
1591 12-09-2020 12:30:00 20.3 C 12.49 g/m*3 20.3 C 1.6 km/h
1592 12-09-2020 12:35:00 20.7 C 12.24 g/m*3 20.7 C 0 km/h
1593 12-09-2020 12:40:00 21 C 12.09 g/m*3 21 C 4.8 km/h
1594 12-09-2020 12:45:00 21.4 C 12.56 g/m*3 21.4 C 4.8 km/h
1595 12-09-2020 12:50:00 21.8 C 12.09 g/m*3 21.8 C 4.8 km/h
1596 12-09-2020 12:55:00 22.2 C 11.98 g/m*3 22.2 C 8.1 km/h
1597 12-09-2020 13:00:00 22.8 C 11.99 g/m*3 22.8 C 8.1 km/h
1598 12-09-2020 13:05:00 23.2 C 11.85 g/m*3 23.2 C 8.1 km/h
1599 12-09-2020 13:10:00 23.7 C 12.19 g/m*3 23.7 C 8.1 km/h
1600 12-09-2020 13:15:00 23.9 C 11.47 g/m*3 23.9 C 11.3 km/h
Sensor: Nr:Datum:Temp:Abs-Feuchte:Windchill:Wind:
Aussen-T/F 1601 12-09-2020 13:20:00 24.3 C 11.51 g/m*3 24.3 C 11.3 km/h
1602 12-09-2020 13:25:00 24.5 C 11.86 g/m*3 24.5 C 12.9 km/h
1603 12-09-2020 13:30:00 24.7 C 11.54 g/m*3 24.7 C 14.5 km/h
1604 12-09-2020 13:35:00 24.9 C 11.45 g/m*3 24.9 C 12.9 km/h
1605 12-09-2020 13:40:00 25.1 C 11.57 g/m*3 25.1 C 6.4 km/h
1606 12-09-2020 13:45:00 25.3 C 11.94 g/m*3 25.3 C 12.9 km/h
1607 12-09-2020 13:50:00 25.3 C 11.47 g/m*3 25.3 C 17.7 km/h
1608 12-09-2020 13:55:00 25.4 C 12.01 g/m*3 25.4 C 9.7 km/h
1609 12-09-2020 14:00:00 25.3 C 12.41 g/m*3 25.3 C 9.7 km/h
1610 12-09-2020 14:05:00 25.1 C 12.04 g/m*3 25.1 C 8.1 km/h
1611 12-09-2020 14:10:00 24.8 C 12.06 g/m*3 24.8 C 11.3 km/h
1612 12-09-2020 14:15:00 24.7 C 12.22 g/m*3 24.7 C 8.1 km/h
1613 12-09-2020 14:20:00 24.7 C 12.22 g/m*3 24.7 C 4.8 km/h
1614 12-09-2020 14:25:00 24.7 C 12.22 g/m*3 24.7 C 4.8 km/h
1615 12-09-2020 14:30:00 24.8 C 12.29 g/m*3 24.8 C 9.7 km/h
1616 12-09-2020 14:35:00 24.8 C 12.29 g/m*3 24.8 C 4.8 km/h
1617 12-09-2020 14:40:00 24.8 C 12.29 g/m*3 24.8 C 8.1 km/h
1618 12-09-2020 14:45:00 24.9 C 12.36 g/m*3 24.9 C 1.6 km/h
1619 12-09-2020 14:50:00 25.1 C 12.5 g/m*3 25.1 C 6.4 km/h
1620 12-09-2020 14:55:00 25.2 C 12.57 g/m*3 25.2 C 4.8 km/h
1621 12-09-2020 15:00:00 25.3 C 12.41 g/m*3 25.3 C 6.4 km/h
1622 12-09-2020 15:05:00 25.3 C 12.41 g/m*3 25.3 C 0 km/h
1623 12-09-2020 15:10:00 25.4 C 12.48 g/m*3 25.4 C 9.7 km/h
1624 12-09-2020 15:15:00 25.6 C 12.38 g/m*3 25.6 C 11.3 km/h
1625 12-09-2020 15:20:00 25.6 C 12.38 g/m*3 25.6 C 9.7 km/h
Sensor: Nr:Datum:Temp:Abs-Feuchte:Windchill:Wind:
Aussen-T/F 1626 12-09-2020 15:25:00 25.6 C 12.38 g/m*3 25.6 C 1.6 km/h
1627 12-09-2020 15:30:00 25.7 C 12.45 g/m*3 25.7 C 9.7 km/h
1628 12-09-2020 15:35:00 25.7 C 12.45 g/m*3 25.7 C 9.7 km/h
1629 12-09-2020 15:40:00 25.8 C 12.52 g/m*3 25.8 C 12.9 km/h
1630 12-09-2020 15:45:00 25.8 C 12.52 g/m*3 25.8 C 14.5 km/h
1631 12-09-2020 15:50:00 25.8 C 12.52 g/m*3 25.8 C 6.4 km/h
1632 12-09-2020 15:55:00 25.8 C 12.28 g/m*3 25.8 C 11.3 km/h
1633 12-09-2020 16:00:00 25.8 C 12.28 g/m*3 25.8 C 9.7 km/h
1634 12-09-2020 16:05:00 25.8 C 12.28 g/m*3 25.8 C 6.4 km/h
1635 12-09-2020 16:10:00 25.8 C 12.28 g/m*3 25.8 C 9.7 km/h
1636 12-09-2020 16:15:00 25.9 C 12.35 g/m*3 25.9 C 6.4 km/h
1637 12-09-2020 16:20:00 25.8 C 12.28 g/m*3 25.8 C 12.9 km/h
1638 12-09-2020 16:25:00 25.8 C 12.28 g/m*3 25.8 C 9.7 km/h
1639 12-09-2020 16:30:00 25.7 C 12.45 g/m*3 25.7 C 14.5 km/h
1640 12-09-2020 16:35:00 25.7 C 12.21 g/m*3 25.7 C 14.5 km/h
1641 12-09-2020 16:40:00 25.6 C 12.38 g/m*3 25.6 C 11.3 km/h
1642 12-09-2020 16:45:00 25.6 C 12.38 g/m*3 25.6 C 11.3 km/h
1643 12-09-2020 16:50:00 25.7 C 12.69 g/m*3 25.7 C 12.9 km/h
1644 12-09-2020 16:55:00 25.8 C 12.52 g/m*3 25.8 C 6.4 km/h
1645 12-09-2020 17:00:00 26.1 C 12.73 g/m*3 26.1 C 11.3 km/h
1646 12-09-2020 17:05:00 26.2 C 12.8 g/m*3 26.2 C 9.7 km/h
1647 12-09-2020 17:10:00 26.3 C 12.63 g/m*3 26.3 C 12.9 km/h
1648 12-09-2020 17:15:00 26.3 C 12.63 g/m*3 26.3 C 11.3 km/h
1649 12-09-2020 17:20:00 26.3 C 12.63 g/m*3 26.3 C 11.3 km/h
1650 12-09-2020 17:25:00 26.3 C 12.87 g/m*3 26.3 C 8.1 km/h
Sensor: Nr:Datum:Temp:Abs-Feuchte:Windchill:Wind:
Aussen-T/F 1651 12-09-2020 17:30:00 26.2 C 12.8 g/m*3 26.2 C 12.9 km/h
1652 12-09-2020 17:35:00 26.2 C 12.8 g/m*3 26.2 C 12.9 km/h
1653 12-09-2020 17:40:00 26.1 C 12.73 g/m*3 26.1 C 9.7 km/h
1654 12-09-2020 17:45:00 26 C 12.9 g/m*3 26 C 8.1 km/h
1655 12-09-2020 17:50:00 25.9 C 12.83 g/m*3 25.9 C 8.1 km/h
1656 12-09-2020 17:55:00 25.8 C 12.76 g/m*3 25.8 C 12.9 km/h
1657 12-09-2020 18:00:00 25.7 C 12.93 g/m*3 25.7 C 9.7 km/h
1658 12-09-2020 18:05:00 25.7 C 12.93 g/m*3 25.7 C 6.4 km/h
1659 12-09-2020 18:10:00 25.6 C 12.86 g/m*3 25.6 C 9.7 km/h
1660 12-09-2020 18:15:00 25.4 C 12.71 g/m*3 25.4 C 11.3 km/h
1661 12-09-2020 18:20:00 25.4 C 12.71 g/m*3 25.4 C 6.4 km/h
1662 12-09-2020 18:25:00 25.4 C 12.95 g/m*3 25.4 C 6.4 km/h
1663 12-09-2020 18:30:00 25.4 C 12.95 g/m*3 25.4 C 6.4 km/h
1664 12-09-2020 18:35:00 25.2 C 12.8 g/m*3 25.2 C 6.4 km/h
1665 12-09-2020 18:40:00 25.2 C 13.04 g/m*3 25.2 C 4.8 km/h
1666 12-09-2020 18:45:00 24.9 C 12.59 g/m*3 24.9 C 8.1 km/h
1667 12-09-2020 18:50:00 24.8 C 12.75 g/m*3 24.8 C 4.8 km/h
1668 12-09-2020 18:55:00 24.7 C 12.9 g/m*3 24.7 C 6.4 km/h
1669 12-09-2020 19:00:00 24.5 C 12.76 g/m*3 24.5 C 4.8 km/h
1670 12-09-2020 19:05:00 24.4 C 12.69 g/m*3 24.4 C 4.8 km/h
1671 12-09-2020 19:10:00 24.1 C 12.69 g/m*3 24.1 C 4.8 km/h
1672 12-09-2020 19:15:00 23.9 C 12.55 g/m*3 23.9 C 0 km/h
1673 12-09-2020 19:20:00 23.7 C 13.05 g/m*3 23.7 C 0 km/h
1674 12-09-2020 19:25:00 23.4 C 12.83 g/m*3 23.4 C 0 km/h
1675 12-09-2020 19:30:00 23.2 C 12.89 g/m*3 23.2 C 0 km/h
Sensor: Nr:Datum:Temp:Abs-Feuchte:Windchill:Wind:
Aussen-T/F 1676 12-09-2020 19:35:00 22.8 C 12.6 g/m*3 22.8 C 0 km/h
1677 12-09-2020 19:40:00 22.4 C 12.51 g/m*3 22.4 C 0 km/h
1678 12-09-2020 19:45:00 21.8 C 12.47 g/m*3 21.8 C 0 km/h
1679 12-09-2020 19:50:00 21.3 C 12.49 g/m*3 21.3 C 0 km/h
1680 12-09-2020 19:55:00 20.9 C 12.2 g/m*3 20.9 C 3.2 km/h
1681 12-09-2020 20:00:00 20.7 C 12.42 g/m*3 20.7 C 0 km/h
1682 12-09-2020 20:05:00 20.4 C 12.21 g/m*3 20.4 C 0 km/h
1683 12-09-2020 20:10:00 20.1 C 12.17 g/m*3 20.1 C 4.8 km/h
1684 12-09-2020 20:15:00 20 C 12.1 g/m*3 20 C 0 km/h
1685 12-09-2020 20:20:00 19.8 C 11.96 g/m*3 19.8 C 3.2 km/h
1686 12-09-2020 20:25:00 19.8 C 11.79 g/m*3 19.8 C 0 km/h
1687 12-09-2020 20:30:00 19.8 C 11.79 g/m*3 19.8 C 3.2 km/h
1688 12-09-2020 20:35:00 19.8 C 11.79 g/m*3 19.8 C 1.6 km/h
1689 12-09-2020 20:40:00 19.6 C 11.82 g/m*3 19.6 C 0 km/h
1690 12-09-2020 20:45:00 19.3 C 11.61 g/m*3 19.3 C 0 km/h
1691 12-09-2020 20:50:00 19.1 C 11.31 g/m*3 19.1 C 4.8 km/h
1692 12-09-2020 20:55:00 19.1 C 11.31 g/m*3 19.1 C 1.6 km/h
1693 12-09-2020 21:00:00 19.1 C 11.31 g/m*3 19.1 C 1.6 km/h
1694 12-09-2020 21:05:00 19.1 C 11.15 g/m*3 19.1 C 8.1 km/h
1695 12-09-2020 21:10:00 19.1 C 11.15 g/m*3 19.1 C 0 km/h
1696 12-09-2020 21:15:00 18.9 C 11.18 g/m*3 18.9 C 0 km/h
1697 12-09-2020 21:20:00 18.7 C 10.89 g/m*3 18.7 C 4.8 km/h
1698 12-09-2020 21:25:00 18.7 C 11.21 g/m*3 18.7 C 0 km/h
1699 12-09-2020 21:30:00 18.5 C 10.92 g/m*3 18.5 C 0 km/h
1700 12-09-2020 21:35:00 18.3 C 10.94 g/m*3 18.3 C 0 km/h
Sensor: Nr:Datum:Temp:Abs-Feuchte:Windchill:Wind:
Aussen-T/F 1701 12-09-2020 21:40:00 18.1 C 10.82 g/m*3 18.1 C 0 km/h
1702 12-09-2020 21:45:00 17.9 C 10.54 g/m*3 17.9 C 0 km/h
1703 12-09-2020 21:50:00 17.8 C 10.62 g/m*3 17.8 C 0 km/h
1704 12-09-2020 21:55:00 17.7 C 10.56 g/m*3 17.7 C 0 km/h
1705 12-09-2020 22:00:00 17.6 C 10.65 g/m*3 17.6 C 0 km/h
1706 12-09-2020 22:05:00 17.5 C 10.44 g/m*3 17.5 C 0 km/h
1707 12-09-2020 22:10:00 17.5 C 10.59 g/m*3 17.5 C 4.8 km/h
1708 12-09-2020 22:15:00 17.5 C 10.59 g/m*3 17.5 C 1.6 km/h
1709 12-09-2020 22:20:00 17.4 C 10.52 g/m*3 17.4 C 1.6 km/h
1710 12-09-2020 22:25:00 17.3 C 10.46 g/m*3 17.3 C 0 km/h
1711 12-09-2020 22:30:00 17.2 C 10.54 g/m*3 17.2 C 0 km/h
1712 12-09-2020 22:35:00 17.1 C 10.48 g/m*3 17.1 C 0 km/h
1713 12-09-2020 22:40:00 16.9 C 10.36 g/m*3 16.9 C 0 km/h
1714 12-09-2020 22:45:00 16.8 C 10.44 g/m*3 16.8 C 0 km/h
1715 12-09-2020 22:50:00 16.7 C 10.37 g/m*3 16.7 C 0 km/h
1716 12-09-2020 22:55:00 16.5 C 10.39 g/m*3 16.5 C 0 km/h
1717 12-09-2020 23:00:00 16.4 C 10.33 g/m*3 16.4 C 0 km/h
1718 12-09-2020 23:05:00 16.3 C 10.41 g/m*3 16.3 C 0 km/h
1719 12-09-2020 23:10:00 16.2 C 10.34 g/m*3 16.2 C 0 km/h
1720 12-09-2020 23:15:00 16.1 C 10.42 g/m*3 16.1 C 0 km/h
1721 12-09-2020 23:20:00 16 C 10.35 g/m*3 16 C 0 km/h
1722 12-09-2020 23:25:00 15.9 C 10.29 g/m*3 15.9 C 0 km/h
1723 12-09-2020 23:30:00 15.7 C 10.17 g/m*3 15.7 C 0 km/h
1724 12-09-2020 23:35:00 15.6 C 10.24 g/m*3 15.6 C 0 km/h
1725 12-09-2020 23:40:00 15.6 C 10.24 g/m*3 15.6 C 0 km/h
Sensor: Nr:Datum:Temp:Abs-Feuchte:Windchill:Wind:
Aussen-T/F 1726 12-09-2020 23:45:00 15.4 C 10.25 g/m*3 15.4 C 6.4 km/h
1727 12-09-2020 23:50:00 15.3 C 10.19 g/m*3 15.3 C 3.2 km/h
1728 12-09-2020 23:55:00 15.3 C 10.19 g/m*3 15.3 C 3.2 km/h
1729 13-09-2020 00:00:00 15.2 C 10.25 g/m*3 15.2 C 1.6 km/h
1730 13-09-2020 00:05:00 15.1 C 10.19 g/m*3 15.1 C 1.6 km/h
1731 13-09-2020 00:10:00 14.9 C 10.07 g/m*3 14.9 C 0 km/h
1732 13-09-2020 00:15:00 14.8 C 10.13 g/m*3 14.8 C 0 km/h
1733 13-09-2020 00:20:00 14.6 C 10.01 g/m*3 14.6 C 0 km/h
1734 13-09-2020 00:25:00 14.4 C 9.89 g/m*3 14.4 C 0 km/h
1735 13-09-2020 00:30:00 14.3 C 9.95 g/m*3 14.3 C 0 km/h
1736 13-09-2020 00:35:00 14.1 C 9.83 g/m*3 14.1 C 0 km/h
1737 13-09-2020 00:40:00 13.9 C 9.83 g/m*3 13.9 C 0 km/h
1738 13-09-2020 00:45:00 13.8 C 9.89 g/m*3 13.8 C 0 km/h
1739 13-09-2020 00:50:00 13.7 C 9.83 g/m*3 13.7 C 0 km/h
1740 13-09-2020 00:55:00 13.6 C 9.89 g/m*3 13.6 C 0 km/h
1741 13-09-2020 01:00:00 13.4 C 9.76 g/m*3 13.4 C 0 km/h
1742 13-09-2020 01:05:00 13.4 C 9.76 g/m*3 13.4 C 0 km/h
1743 13-09-2020 01:10:00 13.3 C 9.82 g/m*3 13.3 C 0 km/h
1744 13-09-2020 01:15:00 13.2 C 9.76 g/m*3 13.2 C 0 km/h
1745 13-09-2020 01:20:00 13.2 C 9.76 g/m*3 13.2 C 0 km/h
1746 13-09-2020 01:25:00 13.1 C 9.7 g/m*3 13.1 C 1.6 km/h
1747 13-09-2020 01:30:00 13 C 9.75 g/m*3 13 C 0 km/h
1748 13-09-2020 01:35:00 12.9 C 9.69 g/m*3 12.9 C 0 km/h
1749 13-09-2020 01:40:00 12.9 C 9.69 g/m*3 12.9 C 0 km/h
1750 13-09-2020 01:45:00 12.8 C 9.63 g/m*3 12.8 C 0 km/h
Sensor: Nr:Datum:Temp:Abs-Feuchte:Windchill:Wind:
Aussen-T/F 1751 13-09-2020 01:50:00 12.7 C 9.68 g/m*3 12.7 C 0 km/h
1752 13-09-2020 01:55:00 12.7 C 9.68 g/m*3 12.7 C 0 km/h
1753 13-09-2020 02:00:00 12.7 C 9.68 g/m*3 12.7 C 3.2 km/h
1754 13-09-2020 02:05:00 12.6 C 9.62 g/m*3 12.6 C 0 km/h
1755 13-09-2020 02:10:00 12.6 C 9.74 g/m*3 12.6 C 0 km/h
1756 13-09-2020 02:15:00 12.6 C 9.62 g/m*3 12.6 C 0 km/h
1757 13-09-2020 02:20:00 12.6 C 9.62 g/m*3 12.6 C 0 km/h
1758 13-09-2020 02:25:00 12.4 C 9.51 g/m*3 12.4 C 0 km/h
1759 13-09-2020 02:30:00 12.3 C 9.45 g/m*3 12.3 C 0 km/h
1760 13-09-2020 02:35:00 12.3 C 9.45 g/m*3 12.3 C 0 km/h
1761 13-09-2020 02:40:00 12.2 C 9.5 g/m*3 12.2 C 0 km/h
1762 13-09-2020 02:45:00 12.1 C 9.44 g/m*3 12.1 C 0 km/h
1763 13-09-2020 02:50:00 12.1 C 9.54 g/m*3 12.1 C 0 km/h
1764 13-09-2020 02:55:00 12 C 9.48 g/m*3 12 C 0 km/h
1765 13-09-2020 03:00:00 11.9 C 9.43 g/m*3 11.9 C 0 km/h
1766 13-09-2020 03:05:00 11.9 C 9.43 g/m*3 11.9 C 0 km/h
1767 13-09-2020 03:10:00 11.9 C 9.53 g/m*3 11.9 C 0 km/h
1768 13-09-2020 03:15:00 11.8 C 9.37 g/m*3 11.8 C 0 km/h
1769 13-09-2020 03:20:00 11.8 C 9.47 g/m*3 11.8 C 0 km/h
1770 13-09-2020 03:25:00 11.7 C 9.41 g/m*3 11.7 C 0 km/h
1771 13-09-2020 03:30:00 11.7 C 9.41 g/m*3 11.7 C 0 km/h
1772 13-09-2020 03:35:00 11.7 C 9.41 g/m*3 11.7 C 0 km/h
1773 13-09-2020 03:40:00 11.6 C 9.35 g/m*3 11.6 C 0 km/h
1774 13-09-2020 03:45:00 11.6 C 9.35 g/m*3 11.6 C 0 km/h
1775 13-09-2020 03:50:00 11.6 C 9.46 g/m*3 11.6 C 0 km/h
Sensor: Nr:Datum:Temp:Abs-Feuchte:Windchill:Wind:
Aussen-T/F 1776 13-09-2020 03:55:00 11.6 C 9.46 g/m*3 11.6 C 0 km/h
1777 13-09-2020 04:00:00 11.5 C 9.4 g/m*3 11.5 C 0 km/h
1778 13-09-2020 04:05:00 11.5 C 9.4 g/m*3 11.5 C 0 km/h
1779 13-09-2020 04:10:00 11.5 C 9.4 g/m*3 11.5 C 0 km/h
1780 13-09-2020 04:15:00 11.5 C 9.4 g/m*3 11.5 C 0 km/h
1781 13-09-2020 04:20:00 11.4 C 9.34 g/m*3 11.4 C 0 km/h
1782 13-09-2020 04:25:00 11.3 C 9.28 g/m*3 11.3 C 0 km/h
1783 13-09-2020 04:30:00 11.3 C 9.28 g/m*3 11.3 C 0 km/h
1784 13-09-2020 04:35:00 11.3 C 9.28 g/m*3 11.3 C 0 km/h
1785 13-09-2020 04:40:00 11.3 C 9.28 g/m*3 11.3 C 0 km/h
1786 13-09-2020 04:45:00 11.2 C 9.22 g/m*3 11.2 C 0 km/h
1787 13-09-2020 04:50:00 11.2 C 9.22 g/m*3 11.2 C 0 km/h
1788 13-09-2020 04:55:00 11.2 C 9.33 g/m*3 11.2 C 0 km/h
1789 13-09-2020 05:00:00 11.2 C 9.33 g/m*3 11.2 C 0 km/h
1790 13-09-2020 05:05:00 11.1 C 9.27 g/m*3 11.1 C 0 km/h
1791 13-09-2020 05:10:00 11.1 C 9.27 g/m*3 11.1 C 0 km/h
1792 13-09-2020 05:15:00 11 C 9.21 g/m*3 11 C 0 km/h
1793 13-09-2020 05:20:00 10.9 C 9.15 g/m*3 10.9 C 0 km/h
1794 13-09-2020 05:25:00 10.8 C 9.09 g/m*3 10.8 C 0 km/h
1795 13-09-2020 05:30:00 10.8 C 9.09 g/m*3 10.8 C 0 km/h
1796 13-09-2020 05:35:00 10.8 C 9.09 g/m*3 10.8 C 0 km/h
1797 13-09-2020 05:40:00 10.7 C 9.04 g/m*3 10.7 C 0 km/h
1798 13-09-2020 05:45:00 10.6 C 8.98 g/m*3 10.6 C 0 km/h
1799 13-09-2020 05:50:00 10.6 C 8.98 g/m*3 10.6 C 0 km/h
1800 13-09-2020 05:55:00 10.5 C 8.92 g/m*3 10.5 C 0 km/h
Sensor: Nr:Datum:Temp:Abs-Feuchte:Windchill:Wind:
Aussen-T/F 1801 13-09-2020 06:00:00 10.5 C 8.92 g/m*3 10.5 C 0 km/h
1802 13-09-2020 06:05:00 10.4 C 8.87 g/m*3 10.4 C 0 km/h
1803 13-09-2020 06:10:00 10.4 C 8.96 g/m*3 10.4 C 0 km/h
1804 13-09-2020 06:15:00 10.4 C 8.96 g/m*3 10.4 C 0 km/h
1805 13-09-2020 06:20:00 10.4 C 8.96 g/m*3 10.4 C 0 km/h
1806 13-09-2020 06:25:00 10.4 C 8.96 g/m*3 10.4 C 0 km/h
1807 13-09-2020 06:30:00 10.3 C 8.91 g/m*3 10.3 C 0 km/h
1808 13-09-2020 06:35:00 10.3 C 8.91 g/m*3 10.3 C 0 km/h
1809 13-09-2020 06:40:00 10.3 C 8.91 g/m*3 10.3 C 0 km/h
1810 13-09-2020 06:45:00 10.3 C 8.91 g/m*3 10.3 C 0 km/h
1811 13-09-2020 06:50:00 10.3 C 8.91 g/m*3 10.3 C 0 km/h
1812 13-09-2020 06:55:00 10.2 C 8.85 g/m*3 10.2 C 0 km/h
1813 13-09-2020 07:00:00 10.2 C 8.85 g/m*3 10.2 C 0 km/h
1814 13-09-2020 07:05:00 10.2 C 8.95 g/m*3 10.2 C 0 km/h
1815 13-09-2020 07:10:00 10.1 C 8.89 g/m*3 10.1 C 0 km/h
1816 13-09-2020 07:15:00 10.1 C 8.89 g/m*3 10.1 C 0 km/h
1817 13-09-2020 07:20:00 10 C 8.83 g/m*3 10 C 0 km/h
1818 13-09-2020 07:25:00 10 C 8.83 g/m*3 10 C 0 km/h
1819 13-09-2020 07:30:00 10.1 C 8.89 g/m*3 10.1 C 0 km/h
1820 13-09-2020 07:35:00 10.1 C 8.89 g/m*3 10.1 C 0 km/h
1821 13-09-2020 07:40:00 10.2 C 8.95 g/m*3 10.2 C 0 km/h
1822 13-09-2020 07:45:00 10.2 C 8.95 g/m*3 10.2 C 0 km/h
1823 13-09-2020 07:50:00 10.3 C 9 g/m*3 10.3 C 0 km/h
1824 13-09-2020 07:55:00 10.3 C 9 g/m*3 10.3 C 0 km/h
1825 13-09-2020 08:00:00 10.3 C 9.1 g/m*3 10.3 C 0 km/h
Sensor: Nr:Datum:Temp:Abs-Feuchte:Windchill:Wind:
Aussen-T/F 1826 13-09-2020 08:05:00 10.4 C 9.16 g/m*3 10.4 C 0 km/h
1827 13-09-2020 08:10:00 10.4 C 9.16 g/m*3 10.4 C 0 km/h
1828 13-09-2020 08:15:00 10.5 C 9.21 g/m*3 10.5 C 0 km/h
1829 13-09-2020 08:20:00 10.6 C 9.27 g/m*3 10.6 C 0 km/h
1830 13-09-2020 08:25:00 10.6 C 9.27 g/m*3 10.6 C 0 km/h
1831 13-09-2020 08:30:00 10.7 C 9.33 g/m*3 10.7 C 0 km/h
1832 13-09-2020 08:35:00 10.7 C 9.33 g/m*3 10.7 C 0 km/h
1833 13-09-2020 08:40:00 10.8 C 9.39 g/m*3 10.8 C 3.2 km/h
1834 13-09-2020 08:45:00 10.9 C 9.45 g/m*3 10.9 C 0 km/h
1835 13-09-2020 08:50:00 11 C 9.51 g/m*3 11 C 0 km/h
1836 13-09-2020 08:55:00 11.1 C 9.57 g/m*3 11.1 C 0 km/h
1837 13-09-2020 09:00:00 11.2 C 9.63 g/m*3 11.2 C 0 km/h
1838 13-09-2020 09:05:00 11.2 C 9.63 g/m*3 11.2 C 0 km/h
1839 13-09-2020 09:10:00 11.3 C 9.69 g/m*3 11.3 C 0 km/h
1840 13-09-2020 09:15:00 11.3 C 9.69 g/m*3 11.3 C 0 km/h
1841 13-09-2020 09:20:00 11.4 C 9.75 g/m*3 11.4 C 0 km/h
1842 13-09-2020 09:25:00 11.5 C 9.81 g/m*3 11.5 C 0 km/h
1843 13-09-2020 09:30:00 11.6 C 9.87 g/m*3 11.6 C 0 km/h
1844 13-09-2020 09:35:00 11.7 C 9.94 g/m*3 11.7 C 0 km/h
1845 13-09-2020 09:40:00 11.8 C 10 g/m*3 11.8 C 0 km/h
1846 13-09-2020 09:45:00 12 C 10.12 g/m*3 12 C 0 km/h
1847 13-09-2020 09:50:00 12.1 C 10.19 g/m*3 12.1 C 0 km/h
1848 13-09-2020 09:55:00 12.2 C 10.25 g/m*3 12.2 C 0 km/h
1849 13-09-2020 10:00:00 12.3 C 10.32 g/m*3 12.3 C 0 km/h
1850 13-09-2020 10:05:00 12.4 C 10.38 g/m*3 12.4 C 0 km/h
Sensor: Nr:Datum:Temp:Abs-Feuchte:Windchill:Wind:
Aussen-T/F 1851 13-09-2020 10:10:00 12.6 C 10.51 g/m*3 12.6 C 0 km/h
1852 13-09-2020 10:15:00 12.7 C 10.46 g/m*3 12.7 C 0 km/h
1853 13-09-2020 10:20:00 12.8 C 10.64 g/m*3 12.8 C 0 km/h
1854 13-09-2020 10:25:00 12.9 C 10.59 g/m*3 12.9 C 0 km/h
1855 13-09-2020 10:30:00 13.1 C 10.73 g/m*3 13.1 C 0 km/h
1856 13-09-2020 10:35:00 13.3 C 10.74 g/m*3 13.3 C 0 km/h
1857 13-09-2020 10:40:00 13.4 C 10.81 g/m*3 13.4 C 0 km/h
1858 13-09-2020 10:45:00 13.7 C 10.89 g/m*3 13.7 C 0 km/h
1859 13-09-2020 10:50:00 13.9 C 10.91 g/m*3 13.9 C 0 km/h
1860 13-09-2020 10:55:00 14.1 C 11.04 g/m*3 14.1 C 0 km/h
1861 13-09-2020 11:00:00 14.3 C 11.18 g/m*3 14.3 C 0 km/h
1862 13-09-2020 11:05:00 14.5 C 11.07 g/m*3 14.5 C 0 km/h
1863 13-09-2020 11:10:00 14.7 C 11.21 g/m*3 14.7 C 0 km/h
1864 13-09-2020 11:15:00 14.8 C 11.15 g/m*3 14.8 C 0 km/h
1865 13-09-2020 11:20:00 15 C 11.16 g/m*3 15 C 0 km/h
1866 13-09-2020 11:25:00 15.2 C 11.03 g/m*3 15.2 C 1.6 km/h
1867 13-09-2020 11:30:00 15.6 C 11.17 g/m*3 15.6 C 0 km/h
1868 13-09-2020 11:35:00 15.9 C 11.24 g/m*3 15.9 C 3.2 km/h
1869 13-09-2020 11:40:00 16.2 C 11.31 g/m*3 16.2 C 0 km/h
1870 13-09-2020 11:45:00 16.4 C 11.45 g/m*3 16.4 C 0 km/h
1871 13-09-2020 11:50:00 16.7 C 11.51 g/m*3 16.7 C 0 km/h
1872 13-09-2020 11:55:00 17.1 C 11.65 g/m*3 17.1 C 0 km/h
1873 13-09-2020 12:00:00 17.3 C 11.79 g/m*3 17.3 C 0 km/h
1874 13-09-2020 12:05:00 17.6 C 11.85 g/m*3 17.6 C 0 km/h
1875 13-09-2020 12:10:00 17.8 C 11.84 g/m*3 17.8 C 0 km/h
Sensor: Nr:Datum:Temp:Abs-Feuchte:Windchill:Wind:
Aussen-T/F 1876 13-09-2020 12:15:00 18.1 C 11.9 g/m*3 18.1 C 0 km/h
1877 13-09-2020 12:20:00 18.4 C 11.8 g/m*3 18.4 C 0 km/h
1878 13-09-2020 12:25:00 18.8 C 11.92 g/m*3 18.8 C 0 km/h
1879 13-09-2020 12:30:00 19.2 C 12.2 g/m*3 19.2 C 1.6 km/h
1880 13-09-2020 12:35:00 19.7 C 12.06 g/m*3 19.7 C 3.2 km/h
1881 13-09-2020 12:40:00 20.1 C 12.17 g/m*3 20.1 C 4.8 km/h
1882 13-09-2020 12:45:00 20.3 C 11.96 g/m*3 20.3 C 6.4 km/h
1883 13-09-2020 12:50:00 20.6 C 11.99 g/m*3 20.6 C 6.4 km/h
1884 13-09-2020 12:55:00 20.8 C 11.95 g/m*3 20.8 C 4.8 km/h
1885 13-09-2020 13:00:00 21.1 C 11.98 g/m*3 21.1 C 0 km/h
1886 13-09-2020 13:05:00 21.2 C 12.23 g/m*3 21.2 C 1.6 km/h
1887 13-09-2020 13:10:00 21.3 C 11.93 g/m*3 21.3 C 1.6 km/h
1888 13-09-2020 13:15:00 21.4 C 12.19 g/m*3 21.4 C 3.2 km/h
1889 13-09-2020 13:20:00 21.6 C 12.14 g/m*3 21.6 C 0 km/h
1890 13-09-2020 13:25:00 21.8 C 11.9 g/m*3 21.8 C 0 km/h
1891 13-09-2020 13:30:00 21.9 C 11.96 g/m*3 21.9 C 0 km/h
1892 13-09-2020 13:35:00 22.1 C 11.91 g/m*3 22.1 C 0 km/h
1893 13-09-2020 13:40:00 22.2 C 11.98 g/m*3 22.2 C 0 km/h
1894 13-09-2020 13:45:00 22.3 C 11.65 g/m*3 22.3 C 0 km/h
1895 13-09-2020 13:50:00 22.4 C 11.92 g/m*3 22.4 C 0 km/h
1896 13-09-2020 13:55:00 22.6 C 12.05 g/m*3 22.6 C 0 km/h
1897 13-09-2020 14:00:00 22.6 C 11.85 g/m*3 22.6 C 0 km/h
1898 13-09-2020 14:05:00 22.8 C 11.99 g/m*3 22.8 C 0 km/h
1899 13-09-2020 14:10:00 23 C 11.92 g/m*3 23 C 0 km/h
1900 13-09-2020 14:15:00 23.2 C 11.85 g/m*3 23.2 C 0 km/h
Sensor: Nr:Datum:Temp:Abs-Feuchte:Windchill:Wind:
Aussen-T/F 1901 13-09-2020 14:20:00 23.4 C 11.99 g/m*3 23.4 C 6.4 km/h
1902 13-09-2020 14:25:00 23.7 C 11.76 g/m*3 23.7 C 8.1 km/h
1903 13-09-2020 14:30:00 23.8 C 12.05 g/m*3 23.8 C 8.1 km/h
1904 13-09-2020 14:35:00 24 C 11.75 g/m*3 24 C 0 km/h
1905 13-09-2020 14:40:00 24.2 C 11.88 g/m*3 24.2 C 0 km/h
1906 13-09-2020 14:45:00 24.4 C 11.57 g/m*3 24.4 C 4.8 km/h
1907 13-09-2020 14:50:00 24.7 C 11.32 g/m*3 24.7 C 6.4 km/h
1908 13-09-2020 14:55:00 24.9 C 11.22 g/m*3 24.9 C 0 km/h
1909 13-09-2020 15:00:00 25.1 C 11.81 g/m*3 25.1 C 0 km/h
1910 13-09-2020 15:05:00 25.2 C 11.41 g/m*3 25.2 C 6.4 km/h
1911 13-09-2020 15:10:00 25.4 C 11.06 g/m*3 25.4 C 8.1 km/h
1912 13-09-2020 15:15:00 25.6 C 10.95 g/m*3 25.6 C 3.2 km/h
1913 13-09-2020 15:20:00 25.8 C 11.07 g/m*3 25.8 C 0 km/h
1914 13-09-2020 15:25:00 25.9 C 10.89 g/m*3 25.9 C 4.8 km/h
1915 13-09-2020 15:30:00 26 C 10.96 g/m*3 26 C 6.4 km/h
1916 13-09-2020 15:35:00 26.1 C 11.02 g/m*3 26.1 C 4.8 km/h
1917 13-09-2020 15:40:00 26.2 C 11.08 g/m*3 26.2 C 6.4 km/h
1918 13-09-2020 15:45:00 26.3 C 11.39 g/m*3 26.3 C 3.2 km/h
1919 13-09-2020 15:50:00 26.3 C 11.14 g/m*3 26.3 C 6.4 km/h
1920 13-09-2020 15:55:00 26.4 C 11.2 g/m*3 26.4 C 0 km/h
1921 13-09-2020 16:00:00 26.4 C 11.45 g/m*3 26.4 C 9.7 km/h
1922 13-09-2020 16:05:00 26.5 C 11.26 g/m*3 26.5 C 8.1 km/h
1923 13-09-2020 16:10:00 26.6 C 11.33 g/m*3 26.6 C 8.1 km/h
1924 13-09-2020 16:15:00 26.6 C 10.82 g/m*3 26.6 C 9.7 km/h
1925 13-09-2020 16:20:00 26.7 C 10.88 g/m*3 26.7 C 6.4 km/h
Sensor: Nr:Datum:Temp:Abs-Feuchte:Windchill:Wind:
Aussen-T/F 1926 13-09-2020 16:25:00 26.8 C 10.94 g/m*3 26.8 C 4.8 km/h
1927 13-09-2020 16:30:00 26.8 C 11.2 g/m*3 26.8 C 1.6 km/h
1928 13-09-2020 16:35:00 26.9 C 11.01 g/m*3 26.9 C 3.2 km/h
1929 13-09-2020 16:40:00 27 C 10.81 g/m*3 27 C 4.8 km/h
1930 13-09-2020 16:45:00 27.1 C 11.65 g/m*3 27.1 C 1.6 km/h
1931 13-09-2020 16:50:00 27.2 C 10.93 g/m*3 27.2 C 3.2 km/h
1932 13-09-2020 16:55:00 27.4 C 11.31 g/m*3 27.4 C 0 km/h
1933 13-09-2020 17:00:00 27.7 C 11.23 g/m*3 27.7 C 6.4 km/h
1934 13-09-2020 17:05:00 28 C 11.42 g/m*3 28 C 4.8 km/h
1935 13-09-2020 17:10:00 28.3 C 11.61 g/m*3 28.3 C 3.2 km/h
1936 13-09-2020 17:15:00 28.6 C 11.24 g/m*3 28.6 C 6.4 km/h
1937 13-09-2020 17:20:00 28.8 C 11.65 g/m*3 28.8 C 4.8 km/h
1938 13-09-2020 17:25:00 28.8 C 11.36 g/m*3 28.8 C 6.4 km/h
1939 13-09-2020 17:30:00 28.8 C 11.08 g/m*3 28.8 C 4.8 km/h
1940 13-09-2020 17:35:00 28.9 C 11.71 g/m*3 28.9 C 3.2 km/h
1941 13-09-2020 17:40:00 29.1 C 11.84 g/m*3 29.1 C 1.6 km/h
1942 13-09-2020 17:45:00 29.3 C 12.85 g/m*3 29.3 C 1.6 km/h
1943 13-09-2020 17:50:00 29.7 C 13.13 g/m*3 29.7 C 1.6 km/h
1944 13-09-2020 17:55:00 29.8 C 12.6 g/m*3 29.8 C 1.6 km/h
1945 13-09-2020 18:00:00 29.8 C 13.8 g/m*3 29.8 C 0 km/h
1946 13-09-2020 18:05:00 29.7 C 13.72 g/m*3 29.7 C 1.6 km/h
1947 13-09-2020 18:10:00 29.2 C 13.36 g/m*3 29.2 C 1.6 km/h
1948 13-09-2020 18:15:00 28.8 C 13.35 g/m*3 28.8 C 3.2 km/h
1949 13-09-2020 18:20:00 28.3 C 12.99 g/m*3 28.3 C 3.2 km/h
1950 13-09-2020 18:25:00 27.7 C 13.11 g/m*3 27.7 C 1.6 km/h
Sensor: Nr:Datum:Temp:Abs-Feuchte:Windchill:Wind:
Aussen-T/F 1951 13-09-2020 18:30:00 27.1 C 12.94 g/m*3 27.1 C 0 km/h
1952 13-09-2020 18:35:00 26.6 C 12.59 g/m*3 26.6 C 4.8 km/h
1953 13-09-2020 18:40:00 26.1 C 12.73 g/m*3 26.1 C 4.8 km/h
1954 13-09-2020 18:45:00 25.7 C 12.45 g/m*3 25.7 C 4.8 km/h
1955 13-09-2020 18:50:00 25.4 C 12.48 g/m*3 25.4 C 4.8 km/h
1956 13-09-2020 18:55:00 25.2 C 12.34 g/m*3 25.2 C 1.6 km/h
1957 13-09-2020 19:00:00 25.1 C 12.27 g/m*3 25.1 C 4.8 km/h
1958 13-09-2020 19:05:00 24.8 C 12.06 g/m*3 24.8 C 3.2 km/h
1959 13-09-2020 19:10:00 24.5 C 12.09 g/m*3 24.5 C 0 km/h
1960 13-09-2020 19:15:00 24.3 C 12.17 g/m*3 24.3 C 4.8 km/h
1961 13-09-2020 19:20:00 24.1 C 12.03 g/m*3 24.1 C 4.8 km/h
1962 13-09-2020 19:25:00 23.8 C 11.83 g/m*3 23.8 C 6.4 km/h
1963 13-09-2020 19:30:00 23.6 C 11.91 g/m*3 23.6 C 6.4 km/h
1964 13-09-2020 19:35:00 23.3 C 11.71 g/m*3 23.3 C 4.8 km/h
1965 13-09-2020 19:40:00 23.1 C 11.58 g/m*3 23.1 C 0 km/h
1966 13-09-2020 19:45:00 22.8 C 11.58 g/m*3 22.8 C 0 km/h
1967 13-09-2020 19:50:00 22.6 C 11.65 g/m*3 22.6 C 0 km/h
1968 13-09-2020 19:55:00 22.3 C 11.45 g/m*3 22.3 C 3.2 km/h
1969 13-09-2020 20:00:00 22 C 11.45 g/m*3 22 C 4.8 km/h
1970 13-09-2020 20:05:00 21.7 C 11.45 g/m*3 21.7 C 0 km/h
1971 13-09-2020 20:10:00 21.4 C 11.62 g/m*3 21.4 C 0 km/h
1972 13-09-2020 20:15:00 21.1 C 11.42 g/m*3 21.1 C 6.4 km/h
1973 13-09-2020 20:20:00 20.8 C 11.41 g/m*3 20.8 C 1.6 km/h
1974 13-09-2020 20:25:00 20.6 C 11.28 g/m*3 20.6 C 1.6 km/h
1975 13-09-2020 20:30:00 20.3 C 11.08 g/m*3 20.3 C 4.8 km/h
Sensor: Nr:Datum:Temp:Abs-Feuchte:Windchill:Wind:
Aussen-T/F 1976 13-09-2020 20:35:00 20.2 C 11.37 g/m*3 20.2 C 3.2 km/h
1977 13-09-2020 20:40:00 19.9 C 11.34 g/m*3 19.9 C 0 km/h
1978 13-09-2020 20:45:00 19.7 C 11.21 g/m*3 19.7 C 0 km/h
1979 13-09-2020 20:50:00 19.4 C 11.01 g/m*3 19.4 C 0 km/h
1980 13-09-2020 20:55:00 19.3 C 11.11 g/m*3 19.3 C 0 km/h
1981 13-09-2020 21:00:00 19.2 C 11.21 g/m*3 19.2 C 0 km/h
1982 13-09-2020 21:05:00 19 C 11.08 g/m*3 19 C 0 km/h
1983 13-09-2020 21:10:00 18.8 C 11.11 g/m*3 18.8 C 0 km/h
1984 13-09-2020 21:15:00 18.6 C 10.98 g/m*3 18.6 C 0 km/h
1985 13-09-2020 21:20:00 18.4 C 11.01 g/m*3 18.4 C 0 km/h
1986 13-09-2020 21:25:00 18.3 C 10.94 g/m*3 18.3 C 0 km/h
1987 13-09-2020 21:30:00 18.1 C 10.82 g/m*3 18.1 C 0 km/h
1988 13-09-2020 21:35:00 18 C 10.75 g/m*3 18 C 0 km/h
1989 13-09-2020 21:40:00 17.9 C 10.84 g/m*3 17.9 C 0 km/h
1990 13-09-2020 21:45:00 17.7 C 10.86 g/m*3 17.7 C 0 km/h
1991 13-09-2020 21:50:00 17.6 C 10.95 g/m*3 17.6 C 0 km/h
1992 13-09-2020 21:55:00 17.4 C 10.82 g/m*3 17.4 C 0 km/h
1993 13-09-2020 22:00:00 17.3 C 10.75 g/m*3 17.3 C 0 km/h
1994 13-09-2020 22:05:00 17.2 C 10.69 g/m*3 17.2 C 0 km/h
1995 13-09-2020 22:10:00 17.1 C 10.77 g/m*3 17.1 C 0 km/h
1996 13-09-2020 22:15:00 16.9 C 10.64 g/m*3 16.9 C 0 km/h
1997 13-09-2020 22:20:00 16.8 C 10.72 g/m*3 16.8 C 0 km/h
1998 13-09-2020 22:25:00 16.6 C 10.59 g/m*3 16.6 C 0 km/h
1999 13-09-2020 22:30:00 16.4 C 10.61 g/m*3 16.4 C 0 km/h
2000 13-09-2020 22:35:00 16.3 C 10.54 g/m*3 16.3 C 0 km/h
Sensor: Nr:Datum:Temp:Abs-Feuchte:Windchill:Wind:
Aussen-T/F 2001 13-09-2020 22:40:00 16.2 C 10.48 g/m*3 16.2 C 0 km/h
2002 13-09-2020 22:45:00 16.1 C 10.55 g/m*3 16.1 C 0 km/h
2003 13-09-2020 22:50:00 15.9 C 10.56 g/m*3 15.9 C 0 km/h
2004 13-09-2020 22:55:00 15.9 C 10.56 g/m*3 15.9 C 0 km/h
2005 13-09-2020 23:00:00 15.8 C 10.63 g/m*3 15.8 C 0 km/h
2006 13-09-2020 23:05:00 15.7 C 10.57 g/m*3 15.7 C 0 km/h
2007 13-09-2020 23:10:00 15.6 C 10.51 g/m*3 15.6 C 0 km/h
2008 13-09-2020 23:15:00 15.4 C 10.51 g/m*3 15.4 C 0 km/h
2009 13-09-2020 23:20:00 15.3 C 10.45 g/m*3 15.3 C 0 km/h
2010 13-09-2020 23:25:00 15.2 C 10.38 g/m*3 15.2 C 0 km/h
2011 13-09-2020 23:30:00 15 C 10.39 g/m*3 15 C 0 km/h
2012 13-09-2020 23:35:00 14.9 C 10.32 g/m*3 14.9 C 0 km/h
2013 13-09-2020 23:40:00 14.9 C 10.45 g/m*3 14.9 C 0 km/h
2014 13-09-2020 23:45:00 14.8 C 10.39 g/m*3 14.8 C 0 km/h
2015 13-09-2020 23:50:00 14.8 C 10.39 g/m*3 14.8 C 0 km/h
2016 13-09-2020 23:55:00 14.7 C 10.32 g/m*3 14.7 C 0 km/h

Legende:
   Min
   Max


Maximal/Minimal-Werte vom 23.02.2003 - 30.09.2020

Sensor Min Max Avg
Temp
(Aussen-T/F)
-16.4 °C
20-12-2009  01:30:01
40.4 °C
25-07-2019  16:20:00
11.32 °C

Die Daten stammen von einer Davis Vantage Pro 2 Wetter-Station und werden unter Linux mit der Software wview2wettercgi und aufbereitet. Alle Angaben erfolgen ohne Gewähr für ihre Vollständigkeit oder Richtigkeit.
Kontakt: Rainer Krienke krienke@uni-koblenz.de . Meine Webseiten an der Uni Koblenz oder privat.
Version: $Revision: 0.78 $